[[{"header":{"parameterUnit":"m.s-1","parameterCategory":1,"la1":30.6,"la2":28.766,"lo1":-90.7593,"lo2":-88.6598,"dy":0.0162,"dx":0.0183,"nx":116,"ny":114,"refTime":"2023-09-28T00:00:00:Z","depth":0,"parameterNumber":2,"parameterNumberName":"U-component_of_WINDS"},"data":[0.0,0.0,0.0,0.0,0.0,0.0,0.0,0.0,0.0,0.0,0.0,0.0,0.0,0.0,0.0,0.0,0.0,0.0,0.0,0.0,0.0,0.0,0.0,0.0,0.0,0.0,0.0,0.0,0.0,0.0,0.0,0.0,0.0,0.0,0.0,0.0,0.0,0.0,0.0,0.0,0.0,0.0,0.0,0.0,0.0,0.0,0.0,0.0,0.0,0.0,0.0,0.0,0.0,0.0,0.0,0.0,0.0,0.0,0.0,0.0,0.0,0.0,0.0,0.0,0.0,0.0,0.0,0.0,0.0,0.0,0.0,0.0,0.0,0.0,0.0,0.0,0.0,0.0,0.0,0.0,0.0,0.0,0.0,0.0,0.0,0.0,0.0,0.0,0.0,0.0,0.0,0.0,0.0,0.0,0.0,0.0,0.0,0.0,0.0,0.0,0.0,0.0,0.0,0.0,0.0,0.0,0.0,0.0,0.0,0.0,0.0,0.0,0.0,0.0,0.0,0.0,0.0,0.0,0.0,0.0,0.0,0.0,0.0,0.0,0.0,0.0,0.0,0.0,0.0,0.0,0.0,0.0,0.0,0.0,0.0,0.0,0.0,0.0,0.0,0.0,0.0,0.0,0.0,0.0,0.0,0.0,0.0,0.0,0.0,0.0,0.0,0.0,0.0,0.0,0.0,0.0,0.0,0.0,0.0,0.0,0.0,0.0,0.0,0.0,0.0,0.0,0.0,0.0,0.0,0.0,0.0,0.0,0.0,0.0,0.0,0.0,0.0,0.0,0.0,0.0,0.0,0.0,0.0,0.0,0.0,0.0,0.0,0.0,0.0,0.0,0.0,0.0,0.0,0.0,0.0,0.0,0.0,0.0,0.0,0.0,0.0,0.0,0.0,0.0,0.0,0.0,0.0,0.0,0.0,0.0,0.0,0.0,0.0,0.0,0.0,0.0,0.0,0.0,0.0,0.0,0.0,0.0,0.0,0.0,0.0,0.0,0.0,0.0,0.0,0.0,0.0,0.0,0.0,0.0,0.0,0.0,0.0,0.0,0.0,0.0,0.0,0.0,0.0,0.0,0.0,0.0,0.0,0.0,0.0,0.0,0.0,0.0,0.0,0.0,0.0,0.0,0.0,0.0,0.0,0.0,0.0,0.0,0.0,0.0,0.0,0.0,0.0,0.0,0.0,0.0,0.0,0.0,0.0,0.0,0.0,0.0,0.0,0.0,0.0,0.0,0.0,0.0,0.0,0.0,0.0,0.0,0.0,0.0,0.0,0.0,0.0,0.0,0.0,0.0,0.0,0.0,0.0,0.0,0.0,0.0,0.0,0.0,0.0,0.0,0.0,0.0,0.0,0.0,0.0,0.0,0.0,0.0,0.0,0.0,0.0,0.0,0.0,0.0,0.0,0.0,0.0,0.0,0.0,0.0,0.0,0.0,0.0,0.0,0.0,0.0,0.0,0.0,0.0,0.0,0.0,0.0,0.0,0.0,0.0,0.0,0.0,0.0,0.0,0.0,0.0,0.0,0.0,0.0,0.0,0.0,0.0,0.0,0.0,0.0,0.0,0.0,0.0,0.0,0.0,0.0,0.0,0.0,0.0,0.0,0.0,0.0,0.0,0.0,0.0,0.0,0.0,0.0,0.0,0.0,0.0,0.0,0.0,0.0,0.0,0.0,0.0,0.0,0.0,0.0,0.0,0.0,0.0,0.0,0.0,0.0,0.0,0.0,0.0,0.0,0.0,0.0,0.0,0.0,0.0,0.0,0.0,0.0,0.0,0.0,0.0,0.0,0.0,0.0,0.0,0.0,0.0,0.0,0.0,0.0,0.0,0.0,0.0,0.0,0.0,0.0,0.0,0.0,0.0,0.0,0.0,0.0,0.0,0.0,0.0,0.0,0.0,0.0,0.0,0.0,0.0,0.0,0.0,0.0,0.0,0.0,0.0,0.0,0.0,0.0,0.0,0.0,0.0,0.0,0.0,0.0,0.0,0.0,0.0,0.0,0.0,0.0,0.0,0.0,0.0,0.0,0.0,0.0,0.0,0.0,0.0,0.0,0.0,0.0,0.0,0.0,0.0,0.0,0.0,0.0,0.0,0.0,0.0,0.0,0.0,0.0,0.0,0.0,0.0,0.0,0.0,0.0,0.0,0.0,0.0,0.0,0.0,0.0,0.0,0.0,0.0,0.0,0.0,0.0,0.0,0.0,0.0,0.0,0.0,0.0,0.0,0.0,0.0,0.0,0.0,0.0,0.0,0.0,0.0,0.0,0.0,0.0,0.0,0.0,0.0,0.0,0.0,0.0,0.0,0.0,0.0,0.0,0.0,0.0,0.0,0.0,0.0,0.0,0.0,0.0,0.0,0.0,0.0,0.0,0.0,0.0,0.0,0.0,0.0,0.0,0.0,0.0,0.0,0.0,0.0,0.0,0.0,0.0,0.0,0.0,0.0,0.0,0.0,0.0,0.0,0.0,0.0,0.0,0.0,0.0,0.0,0.0,0.0,0.0,0.0,0.0,0.0,0.0,0.0,0.0,0.0,0.0,0.0,0.0,0.0,0.0,0.0,0.0,0.0,0.0,0.0,0.0,0.0,0.0,0.0,0.0,0.0,0.0,0.0,0.0,0.0,0.0,0.0,0.0,0.0,0.0,0.0,0.0,0.0,0.0,0.0,0.0,0.0,0.0,0.0,0.0,0.0,0.0,0.0,0.0,0.0,0.0,0.0,0.0,0.0,0.0,0.0,0.0,0.0,0.0,0.0,0.0,0.0,0.0,0.0,0.0,0.0,0.0,0.0,0.0,0.0,0.0,0.0,0.0,0.0,0.0,0.0,0.0,0.0,0.0,0.0,0.0,0.0,0.0,0.0,0.0,0.0,0.0,0.0,0.0,0.0,0.0,0.0,0.0,0.0,0.0,0.0,0.0,0.0,0.0,0.0,0.0,0.0,0.0,0.0,0.0,0.0,0.0,0.0,0.0,0.0,0.0,0.0,0.0,0.0,0.0,0.0,0.0,0.0,0.0,0.0,0.0,0.0,0.0,0.0,0.0,0.0,0.0,0.0,0.0,0.0,0.0,0.0,0.0,0.0,0.0,0.0,0.0,0.0,0.0,0.0,0.0,0.0,0.0,0.0,0.0,0.0,0.0,0.0,0.0,0.0,0.0,0.0,0.0,0.0,0.0,0.0,0.0,0.0,0.0,0.0,0.0,0.0,0.0,0.0,0.0,0.0,0.0,0.0,0.0,0.0,0.0,0.0,0.0,0.0,0.0,0.0,0.0,0.0,0.0,0.0,0.0,0.0,0.0,0.0,0.0,0.0,0.0,0.0,0.0,0.0,0.0,0.0,0.0,0.0,0.0,0.0,0.0,0.0,0.0,0.0,0.0,0.0,0.0,0.0,0.0,0.0,0.0,0.0,0.0,0.0,0.0,0.0,0.0,0.0,0.0,0.0,0.0,0.0,0.0,0.0,0.0,0.0,0.0,0.0,0.0,0.0,0.0,0.0,0.0,0.0,0.0,0.0,0.0,0.0,0.0,0.0,0.0,0.0,0.0,0.0,0.0,0.0,0.0,0.0,0.0,0.0,0.0,0.0,0.0,0.0,0.0,0.0,0.0,0.0,0.0,0.0,0.0,0.0,0.0,0.0,0.0,0.0,0.0,0.0,0.0,0.0,0.0,0.0,0.0,0.0,0.0,0.0,0.0,0.0,0.0,0.0,0.0,0.0,0.0,0.0,0.0,0.0,0.0,0.0,0.0,0.0,0.0,0.0,0.0,0.0,0.0,0.0,0.0,0.0,0.0,0.0,0.0,0.0,0.0,0.0,0.0,0.0,0.0,0.0,0.0,0.0,0.0,0.0,0.0,0.0,0.0,0.0,0.0,0.0,0.0,0.0,0.0,0.0,0.0,0.0,0.0,0.0,0.0,0.0,0.0,0.0,0.0,0.0,0.0,0.0,0.0,0.0,0.0,0.0,0.0,0.0,0.0,0.0,0.0,0.0,0.0,0.0,0.0,0.0,0.0,0.0,0.0,0.0,0.0,0.0,0.0,0.0,0.0,0.0,0.0,0.0,0.0,0.0,0.0,0.0,0.0,0.0,0.0,0.0,0.0,0.0,0.0,0.0,0.0,0.0,0.0,0.0,0.0,0.0,0.0,0.0,0.0,0.0,0.0,0.0,0.0,0.0,0.0,0.0,0.0,0.0,0.0,0.0,0.0,0.0,0.0,0.0,0.0,0.0,0.0,0.0,0.0,0.0,0.0,0.0,0.0,0.0,0.0,0.0,0.0,0.0,0.0,0.0,0.0,0.0,0.0,0.0,0.0,0.0,0.0,0.0,0.0,0.0,0.0,0.0,0.0,0.0,0.0,0.0,0.0,0.0,0.0,0.0,0.0,0.0,0.0,0.0,0.0,0.0,0.0,0.0,0.0,0.0,0.0,0.0,0.0,0.0,0.0,0.0,0.0,0.0,0.0,0.0,0.0,0.0,0.0,0.0,0.0,0.0,0.0,0.0,0.0,0.0,0.0,0.0,0.0,0.0,0.0,0.0,0.0,0.0,0.0,0.0,0.0,0.0,0.0,0.0,0.0,0.0,0.0,0.0,0.0,0.0,0.0,0.0,0.0,0.0,0.0,0.0,0.0,0.0,0.0,0.0,0.0,0.0,0.0,0.0,0.0,0.0,0.0,0.0,0.0,0.0,0.0,0.0,0.0,0.0,0.0,0.0,0.0,0.0,0.0,0.0,0.0,0.0,0.0,0.0,0.0,0.0,0.0,0.0,0.0,0.0,0.0,0.0,0.0,0.0,0.0,0.0,0.0,0.0,0.0,0.0,0.0,0.0,0.0,0.0,0.0,0.0,0.0,0.0,0.0,0.0,0.0,0.0,0.0,0.0,0.0,0.0,0.0,0.0,0.0,0.0,0.0,0.0,0.0,0.0,0.0,0.0,0.0,0.0,0.0,0.0,0.0,0.0,0.0,0.0,0.0,0.0,0.0,0.0,0.0,0.0,0.0,0.0,0.0,0.0,0.0,0.0,0.0,0.0,0.0,0.0,0.0,0.0,0.0,0.0,0.0,0.0,0.0,0.0,0.0,0.0,0.0,0.0,0.0,0.0,0.0,0.0,0.0,0.0,0.0,0.0,0.0,0.0,0.0,0.0,0.0,0.0,0.0,0.0,0.0,0.0,0.0,0.0,0.0,0.0,0.0,0.0,0.0,0.0,0.0,0.0,0.0,0.0,0.0,0.0,0.0,0.0,0.0,0.0,0.0,0.0,0.0,0.0,0.0,0.0,0.0,0.0,0.0,0.0,0.0,0.0,0.0,0.0,0.0,0.0,0.0,0.0,0.0,0.0,0.0,0.0,0.0,0.0,0.0,0.0,0.0,0.0,0.0,0.0,0.0,0.0,0.0,0.0,0.0,0.0,0.0,0.0,0.0,0.0,0.0,0.0,0.0,0.0,0.0,0.0,0.0,0.0,0.0,0.0,0.0,0.0,0.0,0.0,0.0,0.0,0.0,0.0,0.0,0.0,0.0,0.0,0.0,0.0,0.0,0.0,0.0,0.0,0.0,0.0,0.0,0.0,0.0,0.0,0.0,0.0,0.0,0.0,0.0,0.0,0.0,0.0,0.0,0.0,0.0,0.0,0.0,0.0,0.0,0.0,0.0,0.0,0.0,0.0,0.0,0.0,0.0,0.0,0.0,0.0,0.0,0.0,0.0,0.0,0.0,0.0,0.0,0.0,0.0,0.0,0.0,0.0,0.0,0.0,0.0,0.0,0.0,0.0,0.0,0.0,0.0,0.0,0.0,0.0,0.0,0.0,0.0,0.0,0.0,0.0,0.0,0.0,0.0,0.0,0.0,0.0,0.0,0.0,0.0,0.0,0.0,0.0,0.0,0.0,0.0,0.0,0.0,0.0,0.0,0.0,0.0,0.0,0.0,0.0,0.0,0.0,0.0,0.0,0.0,0.0,0.0,0.0,0.0,0.0,0.0,0.0,0.0,0.0,0.0,0.0,0.0,0.0,0.0,0.0,0.0,0.0,0.0,0.0,0.0,0.0,0.0,0.0,0.0,0.0,0.0,0.0,0.0,0.0,0.0,1.3017,1.2761,0.0,0.0,0.0,0.0,0.0,0.0,0.0,0.0,0.0,0.0,0.0,0.0,0.0,0.0,0.0,0.0,0.0,0.0,0.0,0.0,0.0,0.0,0.0,0.0,0.0,0.0,0.0,0.0,0.0,0.0,0.0,0.0,0.0,0.0,0.0,0.0,0.0,1.1844,1.175,1.1685,1.1638,1.1904,1.1828,1.1478,0.0,0.0,0.0,0.0,0.0,0.0,0.0,0.0,0.0,0.0,0.0,0.0,0.0,0.0,0.0,0.0,0.0,0.0,0.0,0.0,0.0,0.0,0.0,0.0,0.0,0.0,0.0,0.0,0.0,0.0,0.0,0.0,0.0,0.0,0.0,0.0,0.0,0.0,0.0,0.0,0.0,0.0,0.0,0.0,0.0,0.0,0.0,0.0,0.0,0.0,0.0,0.0,0.0,0.0,0.0,0.0,0.0,0.0,0.0,0.0,0.0,0.0,0.0,0.0,0.0,0.0,0.0,0.0,0.0,0.0,1.4065,1.3438,0.0,0.0,0.0,0.0,0.0,0.0,0.0,0.0,0.0,0.0,0.0,0.0,0.0,0.0,0.0,0.0,0.0,0.0,0.0,0.0,0.0,0.0,0.0,1.1973,1.1888,1.1717,1.1662,1.1651,1.1695,0.0,0.0,0.0,0.0,0.0,1.1952,1.1952,1.191,1.189,1.1682,1.1782,1.2133,1.2375,1.219,1.1662,1.1772,0.0,0.0,0.0,0.0,0.0,0.0,0.0,0.0,0.0,0.0,0.0,0.0,0.0,0.0,0.0,0.0,0.0,0.0,0.0,0.0,0.0,0.0,0.0,0.0,0.0,0.0,0.0,0.0,0.0,0.0,0.0,0.0,0.0,0.0,0.0,0.0,0.0,0.0,0.0,0.0,0.0,0.0,0.0,0.0,0.0,0.0,0.0,0.0,0.0,0.0,0.0,0.0,0.0,0.0,0.0,0.0,0.0,0.0,0.0,0.0,0.0,0.0,0.0,1.5455,1.5604,1.5706,1.6231,1.656,1.6724,1.542,1.4511,1.39,1.3859,0.0,0.0,0.0,0.0,0.0,0.0,0.0,0.0,0.0,0.0,0.0,0.0,0.0,0.0,0.0,0.0,0.0,0.0,0.0,1.196,1.1995,1.1844,1.1717,1.1706,1.1489,1.1456,1.1683,0.0,0.0,0.0,0.0,1.1499,1.1736,1.1736,1.163,1.1384,1.1261,1.1657,1.2592,1.1676,1.1318,1.1466,1.2042,1.2201,1.2054,0.0,0.0,0.0,0.0,0.0,0.0,0.0,0.0,0.0,0.0,0.0,0.0,0.0,0.0,0.0,0.0,0.0,0.0,0.0,0.0,0.0,0.0,0.0,0.0,0.0,0.0,0.0,0.0,0.0,0.0,0.0,0.0,0.0,0.0,0.0,0.0,0.0,0.0,0.0,0.0,0.0,1.2846,1.271,0.0,0.0,0.0,0.0,0.0,0.0,0.0,0.0,0.0,0.0,0.0,0.0,0.0,1.5192,1.5509,1.5871,1.6348,1.6919,1.6921,1.72,1.773,1.7796,1.7871,1.7871,1.7671,0.0,1.5467,1.5266,0.0,0.0,0.0,0.0,0.0,0.0,0.0,0.0,0.0,0.0,0.0,0.0,0.0,0.0,0.0,0.0,0.0,0.0,0.0,0.0,0.0,1.1915,1.1927,1.2079,1.1711,1.1524,1.1682,1.1309,0.0,0.0,1.1305,1.1435,1.1693,1.1663,1.1958,1.2589,1.2124,1.2467,1.3574,1.2736,1.2319,1.2319,1.2439,1.2307,1.1986,1.2088,0.0,0.0,0.0,0.0,0.0,0.0,0.0,0.0,0.0,0.0,0.0,0.0,0.0,0.0,0.0,0.0,0.0,0.0,0.0,0.0,0.0,0.0,0.0,0.0,0.0,0.0,0.0,0.0,0.0,0.0,0.0,0.0,0.0,0.0,0.0,0.0,0.0,0.0,0.0,1.3189,1.3692,1.3641,1.3286,1.3013,0.0,0.0,0.0,0.0,0.0,0.0,0.0,0.0,0.0,1.5806,1.6285,1.6892,1.7636,1.7848,1.8182,1.8552,1.8404,1.8471,1.8706,1.88,1.8829,1.8829,1.9038,1.8536,1.7541,1.6811,1.5953,1.5064,0.0,0.0,0.0,0.0,1.4282,1.4288,0.0,0.0,0.0,0.0,0.0,0.0,0.0,0.0,0.0,0.0,0.0,0.0,1.207,1.1945,1.1995,1.2319,1.1786,1.1497,1.1641,1.1154,1.0937,1.1064,1.1056,1.123,1.1598,1.1663,1.2324,1.3635,1.2847,1.3044,1.4197,1.3472,1.3036,1.2902,1.2582,1.2273,1.1972,1.2032,1.1916,1.1678,0.0,0.0,0.0,0.0,0.0,0.0,0.0,0.0,0.0,0.0,0.0,0.0,0.0,0.0,0.0,0.0,0.0,0.0,0.0,0.0,0.0,0.0,0.0,0.0,0.0,0.0,0.0,0.0,0.0,0.0,0.0,0.0,0.0,0.0,0.0,0.0,0.0,1.3739,1.4358,1.4519,1.4191,1.3954,0.0,0.0,0.0,0.0,0.0,0.0,1.5671,1.6011,1.6688,1.7748,1.807,1.8631,1.9496,1.9599,1.9761,1.9946,1.9727,1.9704,1.9808,1.9896,1.9938,1.9938,2.0189,1.9999,1.9442,1.8302,1.7349,1.6696,1.6696,1.6312,1.5779,1.5779,1.5609,1.5394,0.0,0.0,0.0,0.0,0.0,0.0,0.0,0.0,0.0,0.0,0.0,1.2081,1.2347,1.1882,1.1716,1.2173,1.1496,1.1175,1.1483,1.1069,1.0964,1.127,1.0691,1.0649,1.1316,1.1688,1.2501,1.3797,1.2793,1.2851,1.3909,1.2851,1.2478,1.27,1.2229,1.2092,1.2167,1.1861,1.1647,1.1516,1.1548,0.0,0.0,0.0,0.0,0.0,0.0,0.0,0.0,0.0,0.0,0.0,0.0,0.0,0.0,0.0,0.0,0.0,0.0,0.0,0.0,0.0,0.0,0.0,0.0,0.0,0.0,0.0,0.0,0.0,0.0,0.0,0.0,0.0,0.0,0.0,0.0,0.0,0.0,1.5095,1.4748,0.0,0.0,0.0,0.0,1.5785,1.6064,1.6674,1.7794,1.7861,1.8418,1.9531,1.976,2.0035,2.0357,2.0514,2.0696,2.0838,2.0826,2.1006,2.1378,2.1402,2.1402,2.1402,2.1402,2.1281,2.0895,1.9478,1.8454,1.7736,1.7736,1.7357,1.6823,1.6823,1.6719,1.6602,0.0,0.0,0.0,0.0,0.0,0.0,0.0,0.0,1.2035,1.2473,1.236,1.2276,1.2339,1.2304,1.2253,1.2191,1.1786,1.1532,1.1551,1.1081,1.082,1.0847,1.0613,1.1175,1.2611,1.3222,1.4633,1.6932,1.5991,1.5674,1.5918,1.4818,1.3909,1.3203,1.2852,1.273,1.2725,1.2194,1.1769,1.1443,1.1666,1.1675,0.0,0.0,0.0,0.0,0.0,0.0,0.0,0.0,0.0,0.0,0.0,0.0,0.0,0.0,0.0,0.0,0.0,0.0,0.0,0.0,0.0,0.0,0.0,0.0,0.0,0.0,0.0,0.0,0.0,0.0,0.0,0.0,0.0,0.0,0.0,0.0,0.0,1.6381,1.6229,0.0,1.6571,1.6466,1.6625,1.7235,1.7796,1.8462,1.9255,1.963,2.011,2.0863,2.1177,2.1464,2.1682,2.208,2.2269,2.2325,2.2157,2.2111,2.2272,2.2091,2.2018,2.2018,2.2018,2.1958,2.1837,2.1318,2.0541,1.9663,1.9663,1.9224,1.8552,1.8426,1.8039,1.7594,0.0,0.0,0.0,0.0,0.0,0.0,0.0,1.2176,1.2237,1.249,1.2428,1.2382,1.2389,1.2527,1.2571,1.2513,1.2092,1.178,1.1639,1.1179,1.0846,1.0697,1.0915,1.1833,1.3558,1.4447,1.6061,1.8492,1.7394,1.6879,1.6872,1.5499,1.4515,1.3857,1.3423,1.3279,1.3337,1.2709,1.2096,1.1603,1.1802,1.188,1.1816,0.0,0.0,0.0,0.0,0.0,0.0,0.0,0.0,0.0,0.0,0.0,0.0,0.0,0.0,0.0,0.0,0.0,0.0,0.0,0.0,0.0,0.0,0.0,0.0,0.0,0.0,0.0,0.0,0.0,0.0,0.0,0.0,0.0,0.0,1.6124,1.7057,1.7707,1.7873,1.8069,1.8369,1.8491,1.8672,1.9025,1.9577,2.0186,2.0791,2.1126,2.1595,2.2102,2.2383,2.2621,2.2748,2.3059,2.3179,2.3121,2.2901,2.2816,2.2816,2.2647,2.2562,2.2562,2.2562,2.2562,2.2562,2.2562,2.2065,2.127,2.1233,2.0674,1.9895,1.977,1.9176,1.8387,0.0,0.0,0.0,0.0,0.0,0.0,1.2016,1.2231,1.2323,1.2082,1.2238,1.2439,1.2638,1.253,1.2653,1.3089,1.2401,1.187,1.1728,1.1353,1.1061,1.0929,1.1603,1.2669,1.4083,1.5324,1.6736,1.826,1.6868,1.6313,1.6537,1.4725,1.4133,1.459,1.3867,1.3683,1.3888,1.3365,1.2709,1.1982,1.1936,1.1889,1.1801,0.0,0.0,0.0,0.0,0.0,0.0,0.0,0.0,0.0,0.0,0.0,0.0,0.0,0.0,0.0,0.0,0.0,0.0,0.0,0.0,0.0,0.0,0.0,0.0,0.0,0.0,0.0,0.0,0.0,0.0,0.0,0.0,0.0,1.6564,1.7064,1.7903,1.9006,1.96,2.0047,2.0411,2.0713,2.0943,2.1146,2.141,2.1816,2.2435,2.2459,2.2783,2.3399,2.3451,2.3451,2.3451,2.3411,2.3318,2.3169,2.313,2.313,2.3169,2.3169,2.3169,2.3169,2.3169,2.3169,2.3169,2.313,2.2859,2.2451,2.2337,2.1643,2.0706,2.0694,2.0032,1.914,0.0,0.0,0.0,0.0,0.0,0.0,1.2454,1.2598,1.286,1.333,1.3593,1.383,1.4028,1.3957,1.3813,1.3497,1.2909,1.245,1.2208,1.1982,1.1812,1.1777,1.3191,1.4886,1.6709,1.8568,2.0348,2.2083,2.0664,1.9468,1.8428,1.666,1.5442,1.4734,1.4545,1.4495,1.4544,1.4393,1.4061,1.3574,1.2633,1.2459,1.2681,0.0,0.0,0.0,0.0,0.0,0.0,0.0,0.0,0.0,0.0,0.0,0.0,0.0,0.0,0.0,0.0,0.0,0.0,0.0,0.0,0.0,0.0,0.0,0.0,0.0,0.0,0.0,0.0,0.0,0.0,0.0,1.8138,1.8384,1.7467,1.8749,1.9946,2.037,2.1139,2.1695,2.1967,2.2047,2.2234,2.2607,2.2852,2.3227,2.37,2.3879,2.4064,2.4258,2.4258,2.4258,2.4258,2.3984,2.3937,2.419,2.3906,2.3906,2.419,2.419,2.419,2.419,2.419,2.419,2.415,2.3865,2.3662,2.3498,2.267,2.1858,2.1049,2.0832,2.0318,1.972,0.0,0.0,0.0,0.0,0.0,0.0,1.2519,1.2679,1.2911,1.3345,1.3832,1.4153,1.4228,1.447,1.4471,1.4042,1.346,1.3113,1.311,1.3197,1.3306,1.3348,1.5099,1.6968,1.8908,1.9768,2.1012,2.2751,2.056,1.9424,1.9356,1.6828,1.5722,1.5825,1.4964,1.4661,1.4786,1.4661,1.4464,1.4229,1.3476,1.3294,1.3413,1.2796,1.2681,1.2935,1.3412,1.3226,1.2936,1.3656,0.0,0.0,0.0,0.0,0.0,0.0,0.0,0.0,0.0,0.0,0.0,0.0,0.0,0.0,0.0,0.0,0.0,0.0,0.0,0.0,0.0,0.0,0.0,0.0,2.1173,2.1654,2.1133,2.1323,2.1951,2.3197,2.3239,2.3318,2.3751,2.3774,2.381,2.395,2.4122,2.424,2.4366,2.4499,2.4501,2.4335,2.4335,2.4395,2.4514,2.4187,2.427,2.4764,2.4436,2.4377,2.4583,2.4583,2.4501,2.4377,2.4542,2.4501,2.4335,2.4087,2.388,2.3655,0.0,0.0,0.0,0.0,2.0582,2.0205,0.0,0.0,0.0,0.0,0.0,0.0,1.239,1.2637,1.2789,1.284,1.3532,1.3996,1.3899,1.4479,1.4794,1.4647,1.4011,1.3833,1.4384,1.4907,1.5337,1.566,1.7363,1.9092,2.0759,2.0197,2.0571,2.207,1.8859,1.822,1.9949,1.636,1.5658,1.7261,1.5322,1.4607,1.4869,1.4576,1.4449,1.4449,1.4449,1.4257,1.3932,1.3523,1.3418,1.3605,1.4654,1.4707,1.4431,1.5255,0.0,0.0,0.0,0.0,0.0,0.0,0.0,0.0,0.0,0.0,0.0,0.0,0.0,0.0,0.0,0.0,0.0,0.0,0.0,0.0,0.0,0.0,0.0,0.0,2.5106,2.6121,2.6303,2.477,2.4373,2.6311,2.5573,2.5095,2.5463,2.5689,2.5635,2.515,2.5349,2.524,2.4735,2.4764,0.0,0.0,0.0,2.434,2.4503,2.4298,2.4466,2.5053,2.4801,2.4681,2.4681,2.4686,2.4466,2.4133,2.4443,2.4389,2.4056,2.3973,2.3682,2.3211,2.3166,2.28,2.2184,2.134,2.0899,2.0755,0.0,0.0,0.0,0.0,0.0,0.0,1.2583,1.3033,1.3422,1.3647,1.4368,1.4922,1.5048,1.5148,1.5119,1.4849,1.4509,1.4905,1.6339,1.6726,1.7569,1.9079,2.0676,2.189,2.2645,2.352,2.4239,2.4839,2.2552,2.1651,2.1974,1.8661,1.7322,1.762,1.6045,1.5386,1.5453,1.5386,1.5352,1.5352,1.5352,1.4721,1.3898,1.4337,1.4277,1.4115,1.5343,1.565,1.5562,1.6175,1.6184,1.5812,1.5244,1.4928,0.0,0.0,0.0,0.0,0.0,0.0,0.0,0.0,0.0,0.0,0.0,0.0,0.0,0.0,0.0,0.0,0.0,0.0,0.0,2.7719,2.8539,2.9136,3.0064,3.0141,2.8956,2.5848,2.7104,2.7641,2.6192,2.7444,2.7723,2.6076,2.7411,2.7429,2.5449,2.5699,2.5699,2.5231,2.5568,2.5635,2.5313,2.5243,2.5286,2.5401,2.533,0.0,2.5307,2.5094,2.4945,2.4847,2.4392,2.4341,2.4512,2.383,2.3232,2.276,2.241,2.2152,2.2056,2.1834,2.1739,2.1685,0.0,0.0,0.0,0.0,0.0,0.0,1.2975,1.3221,1.3403,1.3656,1.4398,1.4866,1.481,1.5122,1.5175,1.4747,1.485,1.55,1.6803,1.8323,1.9965,2.1624,2.3369,2.4086,2.361,2.352,2.3131,2.2382,2.057,2.0088,2.0842,1.8373,1.7701,1.8429,1.6631,1.5861,1.5861,1.5771,1.574,1.575,1.5863,1.5351,1.4644,1.5437,1.5838,1.607,1.7064,1.7202,1.6982,1.7457,1.7385,1.6977,1.6316,1.5939,1.5689,0.0,0.0,0.0,0.0,0.0,0.0,0.0,0.0,0.0,0.0,0.0,0.0,0.0,0.0,2.3572,2.5108,0.0,2.7715,3.1022,3.0907,3.0685,3.1579,3.368,3.3155,2.7898,2.8469,2.8613,2.6783,2.8371,2.9057,2.7945,2.8767,2.8715,2.736,2.6614,2.5998,2.5525,2.5734,2.5805,2.568,2.5583,2.5583,2.568,2.5539,2.5392,2.5127,2.5,2.4799,2.4579,2.4497,2.444,2.4353,2.3917,2.3533,2.3173,2.2933,2.2565,2.2148,2.2148,2.2251,2.2341,0.0,0.0,0.0,0.0,0.0,0.0,1.3279,1.3286,1.326,1.3535,1.4141,1.4447,1.4163,1.4724,1.4944,1.4571,1.5087,1.6092,1.7633,2.0012,2.2212,2.4161,2.5831,2.6136,2.4974,2.3742,2.2295,2.0501,1.9002,1.88,1.9814,1.8164,1.8118,1.9321,1.732,1.6481,1.6456,1.6355,1.6327,1.6301,1.6484,1.6339,1.6132,1.6821,1.7297,1.7689,1.8541,1.8566,1.8231,1.8583,1.8483,1.81,1.7357,1.6993,1.678,1.6687,1.6074,0.0,0.0,0.0,0.0,0.0,0.0,0.0,0.0,1.8898,2.0472,2.2544,2.5236,2.7638,2.9147,2.9425,3.0574,3.4097,3.3444,3.255,3.2806,3.5613,3.5605,2.9966,2.9801,2.9486,2.7789,2.9054,2.9694,2.9076,2.9361,2.9211,2.8458,2.7009,2.5973,2.5469,2.5513,2.5595,2.5668,2.5595,2.5618,2.5749,2.563,2.5403,2.499,2.4943,2.4719,2.4486,2.4796,2.4773,2.4507,2.4419,2.4427,2.4442,2.431,2.3832,2.3174,2.28,2.2785,2.2944,0.0,0.0,0.0,0.0,0.0,0.0,0.0,0.0,1.3555,1.3824,1.3931,1.3967,1.3946,1.4012,1.4242,1.4639,1.5167,1.7086,2.0814,2.2021,2.4117,2.7495,2.8203,2.8441,2.8282,2.7813,2.6772,2.5145,2.429,2.329,2.2119,2.052,1.9921,2.0017,1.8466,1.7798,1.7798,1.7782,1.7755,1.7765,1.7786,1.8139,1.8657,1.8578,1.7785,1.6915,1.8448,1.8893,1.8832,1.8996,1.9161,1.9192,1.8579,1.8166,1.7828,1.736,1.6591,1.6183,1.731,1.8042,1.8399,1.805,1.8631,1.9484,0.0,2.2129,2.4078,2.5118,2.8384,3.141,3.2478,3.4033,3.5733,3.753,3.728,3.6551,3.562,3.5416,3.3871,2.9768,3.1104,3.1699,3.0098,3.0138,2.9456,2.7434,2.8892,2.8682,2.6037,2.6142,2.5958,2.5269,2.5638,2.5536,2.4922,2.5536,2.5649,2.5267,2.5649,2.5822,2.5765,2.5354,2.5328,2.5686,2.5486,2.5678,2.603,2.5601,2.615,2.7172,2.6457,2.6364,2.6449,2.4559,2.3921,2.3907,0.0,0.0,0.0,0.0,0.0,0.0,0.0,0.0,1.3491,1.345,1.3713,1.377,1.3481,1.3431,1.3634,1.4133,1.4701,1.6756,2.0797,2.2182,2.4557,2.8383,2.9106,2.9027,2.819,2.8022,2.653,2.3684,2.337,2.2291,2.053,1.984,1.9569,1.9533,1.8706,1.8341,1.8352,1.8475,1.839,1.8215,1.857,1.8688,1.868,1.9152,1.8496,1.7548,1.8925,1.9243,0.0,1.9257,1.918,1.893,1.8587,1.8392,1.8216,1.8022,1.7352,1.6816,1.7404,1.8184,1.8942,1.9262,2.005,2.0898,2.1386,2.3827,2.6315,2.758,3.0539,3.3479,3.5306,3.5195,3.5553,3.7748,3.5788,3.3903,3.3733,3.3385,3.2131,2.9284,3.0325,3.0628,2.8993,3.0371,3.0732,2.9217,3.0393,3.0116,2.7729,2.6771,2.6174,2.5838,2.5889,2.6029,2.6328,2.6939,2.7275,2.7355,2.802,2.81,2.7631,2.7445,2.7341,2.7374,2.7251,2.7335,2.7514,2.7291,2.7681,2.831,2.7975,2.8008,2.8074,2.6338,2.5835,2.5993,0.0,0.0,0.0,0.0,0.0,0.0,0.0,0.0,0.0,0.0,1.3645,1.3586,1.3056,1.3007,1.32,1.3685,1.4327,1.6413,2.0446,2.197,2.4572,2.8608,2.9513,2.9488,2.8622,2.8622,2.7054,2.3901,2.3356,2.2125,2.0281,1.9742,1.9528,1.9556,1.9213,1.907,1.917,1.9302,1.9145,1.8878,1.9308,1.9128,1.8715,1.9348,1.8916,1.8138,1.9231,1.9217,1.8721,1.8936,1.8788,1.847,1.8277,1.8216,1.8184,1.8177,1.7891,1.7608,1.7737,1.856,1.9526,2.0307,2.1659,2.2763,2.2598,2.5982,2.9129,2.9198,3.2221,3.517,3.6335,3.5602,3.5459,3.7642,3.5195,3.3016,3.3005,3.2315,3.1099,2.9223,2.9093,2.8964,2.8364,2.9904,3.0505,2.9479,3.0365,3.0259,2.8825,2.7734,2.7193,2.7263,2.7075,2.727,2.7937,2.8427,2.8821,2.9144,2.9752,2.9798,2.9315,2.9299,2.9112,2.8796,2.8796,2.8976,2.9201,2.9066,2.9351,2.9862,2.9649,2.9764,2.9854,2.8636,2.8066,2.784,0.0,0.0,0.0,0.0,0.0,0.0,0.0,0.0,0.0,0.0,0.0,1.3339,1.2867,1.2794,1.2988,1.3474,1.4228,1.6413,2.0446,2.1786,2.4331,2.8608,2.9497,3.0206,3.089,3.089,3.0083,2.8398,2.6508,2.4779,2.3251,2.134,2.0547,2.0714,2.0331,2.0307,2.0522,2.0561,2.0404,2.0161,2.0161,1.9881,1.9445,1.9343,1.8857,1.8328,1.9196,1.8694,1.7677,1.7808,1.8066,1.8237,1.7842,1.7722,1.7716,1.7646,1.8073,1.8591,1.8722,1.973,2.083,2.117,2.3593,2.5536,2.4314,2.9308,3.3131,2.9475,3.3323,3.6783,3.4837,3.5792,3.715,3.7876,3.7501,3.6693,3.5496,3.3173,3.1133,2.9824,2.7925,2.7463,2.946,2.8612,2.7499,2.6528,2.7382,2.79,2.784,2.8752,2.944,2.9695,2.967,2.9589,2.9322,2.9624,2.9764,2.9764,2.9824,3.0011,3.0454,3.0365,3.0167,2.9842,2.9842,3.0379,3.1182,3.0705,3.1374,3.2587,3.1799,3.1801,3.2135,3.1799,3.055,2.8995,0.0,0.0,0.0,0.0,0.0,0.0,0.0,0.0,0.0,0.0,0.0,0.0,0.0,0.0,0.0,0.0,1.4829,1.6265,1.8878,2.0928,2.3419,2.6412,2.8208,2.9409,2.9931,3.0154,2.883,2.5963,2.5274,2.3643,2.1063,2.0409,2.0151,2.0201,2.0049,2.0054,2.0168,2.0424,2.0217,1.9774,2.0036,1.9667,1.9008,1.8885,1.8247,1.7435,0.0,1.7445,1.6944,1.7003,1.692,1.6857,1.6883,1.7013,1.7187,1.7672,1.909,2.0632,2.1111,2.2938,2.4704,2.453,2.5683,2.6482,2.506,2.8935,3.1926,2.8787,3.3285,3.7091,3.4883,3.651,3.8046,3.7667,3.7261,3.6214,3.3886,3.2404,3.1242,3.0392,3.0776,3.0909,3.0366,3.0132,2.9721,2.8907,2.9733,2.9733,2.8392,2.868,2.9074,2.95,2.9372,2.9704,3.0583,3.1049,3.157,3.2282,3.2562,3.2696,3.2637,3.2289,3.2112,3.21,3.1997,3.2195,3.2534,3.2055,3.2017,3.2218,3.1616,3.1706,3.2059,3.1636,3.1285,3.0995,0.0,0.0,0.0,0.0,0.0,0.0,0.0,0.0,0.0,0.0,0.0,0.0,0.0,0.0,0.0,0.0,0.0,1.6254,1.8615,2.0203,2.2288,2.5152,2.6939,2.7948,2.8135,2.9261,2.8568,2.5935,2.5375,2.3973,2.18,2.0626,2.0036,1.9988,1.9838,1.9806,1.9919,2.0058,1.9846,1.9359,1.9479,1.9046,1.8371,1.8193,1.75,0.0,1.6489,1.6179,1.5883,1.6168,1.6207,1.6127,1.6271,1.6631,1.7149,1.7873,1.9888,2.2072,2.2865,2.527,2.7418,2.6735,2.7826,2.8531,2.6201,2.9509,3.2098,2.8743,3.2265,3.5363,3.3322,3.4977,3.6652,3.6611,3.658,3.5741,3.3403,3.2195,3.149,3.1318,3.1765,3.2038,3.1891,3.1481,3.0765,2.9673,3.0496,3.0592,2.9494,2.9733,3.021,3.0734,3.06,3.0986,3.2035,3.2412,3.2882,3.3553,3.3848,3.3865,3.363,3.3309,3.3136,3.312,3.3187,3.3203,3.3091,3.2674,3.2367,3.2123,3.1549,3.1463,3.1685,3.1418,3.1507,3.1703,0.0,0.0,0.0,0.0,0.0,0.0,0.0,0.0,0.0,0.0,0.0,0.0,0.0,0.0,0.0,0.0,0.0,0.0,1.9406,1.9556,2.1089,2.4551,2.5594,2.5992,2.5818,2.8212,2.901,2.8081,2.6546,2.5577,2.4987,2.1833,2.022,2.0029,1.9587,1.9531,1.9763,1.9499,1.9262,1.8968,1.8506,1.8033,1.7584,1.7246,1.6642,1.5896,1.5512,1.4992,1.4628,1.5407,1.5923,1.6244,1.6213,1.6911,1.785,1.8432,2.0691,2.3179,2.4101,2.6846,2.9156,2.804,3.0037,3.1329,2.7665,3.0889,3.3392,2.9158,3.0567,3.2118,3.0651,3.1784,3.3442,3.5072,3.5661,3.5455,3.4237,3.2738,3.2002,3.2594,3.1129,3.1156,3.3966,3.2571,3.0737,2.8956,2.9675,3.0427,3.0951,3.188,3.2652,3.3172,3.3219,3.3359,3.3591,3.3653,3.3639,3.3625,3.3625,3.3601,3.3486,3.35,3.3329,3.3074,3.3499,3.3454,3.3014,3.2594,3.2451,3.2363,3.1544,3.1226,3.1271,3.124,3.1226,3.1229,0.0,0.0,0.0,0.0,0.0,0.0,0.0,0.0,0.0,0.0,0.0,0.0,0.0,0.0,0.0,0.0,0.0,0.0,1.6841,1.9059,2.0454,2.0616,2.3164,2.4542,2.4478,2.5414,2.5577,2.4951,2.3949,2.2953,2.1904,2.0016,1.9118,1.9026,1.8417,1.8207,1.8261,1.8196,1.7927,1.7506,1.7421,1.698,1.6386,1.6122,1.5658,1.5156,1.5069,1.4796,1.4551,1.4965,1.6521,1.836,1.9,2.0551,2.206,2.1547,2.462,2.8158,2.7948,3.0113,3.2523,3.2938,3.1679,3.0062,2.914,2.9878,3.0267,2.8571,3.1067,3.3394,3.2975,3.3921,3.5292,3.6946,3.6573,3.5718,3.4864,3.4429,3.4163,3.4035,3.4348,3.4583,3.4697,3.4824,3.3996,3.1772,3.1575,3.1648,3.1792,3.2294,3.2754,3.3271,3.3271,3.3519,3.3941,3.3941,3.3863,3.3625,3.4021,3.3946,3.3486,3.3701,3.383,3.3879,3.3493,3.3558,3.379,3.2359,3.1819,3.1853,3.0694,3.0482,3.075,3.0392,3.0482,3.0736,0.0,0.0,0.0,0.0,0.0,0.0,0.0,0.0,0.0,0.0,0.0,0.0,0.0,0.0,0.0,0.0,0.0,0.0,0.0,1.8777,1.9613,1.9638,2.1956,2.2871,2.202,2.3772,2.3909,2.2292,2.23,2.1623,2.0347,1.8957,1.8195,1.7964,1.7471,1.7258,1.7226,1.6925,1.6635,0.0,0.0,1.5838,1.548,1.5225,1.4966,1.4729,1.4729,1.5052,1.5636,1.6788,1.8384,2.0105,2.1178,2.3272,2.5281,2.5069,2.8072,3.1371,3.1278,3.3487,3.5787,3.5602,3.4345,3.2696,3.0903,3.0585,3.0438,2.9601,3.0615,3.1974,3.3048,3.3875,3.4728,3.5737,3.5812,3.547,3.4788,3.4379,3.4397,3.5012,3.4994,3.4986,3.5148,3.4813,3.4059,3.2692,3.2433,3.2291,3.2291,3.25,3.274,3.2984,3.297,3.3198,3.3627,3.3961,3.3942,3.3484,3.4027,3.405,3.3672,3.361,3.3642,3.3733,3.3375,3.3267,3.3303,3.202,3.156,3.1536,3.0344,3.0048,3.0272,3.0003,3.0048,3.0272,0.0,0.0,0.0,0.0,0.0,0.0,0.0,0.0,0.0,0.0,0.0,0.0,0.0,0.0,0.0,0.0,0.0,0.0,0.0,0.0,1.9051,2.012,2.1445,2.1346,1.9573,2.2553,2.2886,2.0348,2.1112,2.0852,1.9639,1.8298,1.7444,1.7041,1.6719,1.6574,1.6533,1.5877,1.5602,1.5536,1.5172,1.4969,1.4858,0.0,1.4669,1.4685,1.5049,1.6068,1.7607,1.963,2.0914,2.1913,2.3267,2.5742,2.8257,2.8944,3.1306,3.3797,3.4169,3.6418,3.8391,3.7249,3.7142,3.6363,3.2703,3.1973,3.1752,3.0807,2.9615,2.9463,3.1772,3.2452,3.2849,3.3322,3.4007,3.4424,3.4367,3.3524,3.3543,3.5258,3.4264,3.3907,3.5091,3.3761,3.2763,3.2714,3.2714,3.2688,3.2648,3.2688,3.2714,3.2714,3.2763,3.2933,3.3175,3.3828,3.3913,3.3311,3.3748,3.3909,3.3681,3.3351,3.3224,3.3224,3.3116,3.288,3.2461,3.1759,3.1481,3.1473,3.0388,2.998,2.9967,2.9927,2.9913,2.9913,0.0,0.0,0.0,0.0,0.0,0.0,0.0,0.0,0.0,0.0,1.7754,1.8496,0.0,0.0,0.0,0.0,0.0,0.0,0.0,0.0,0.0,1.9407,2.0723,2.0915,1.9762,2.0353,2.0475,2.0086,1.9588,1.9203,1.8941,1.7543,1.6843,1.6732,1.613,1.5865,1.5853,1.5736,1.5584,1.545,1.5594,1.5256,1.4722,1.539,0.0,0.0,1.7849,1.9402,2.054,2.1267,2.2911,2.4924,2.6442,2.9683,3.298,3.3011,3.489,3.6797,3.6403,3.7127,3.8379,4.0016,3.7866,3.5057,3.4093,3.1651,2.9333,2.8733,2.8542,2.8883,3.0185,3.0447,3.108,3.2949,3.1778,3.1553,3.4185,3.3536,3.3065,3.3685,3.3918,3.395,3.3801,3.3851,3.3751,3.3303,3.3253,3.316,3.2919,3.3133,3.3253,3.3253,3.3701,3.3928,3.3982,3.4136,3.3913,3.3311,3.3408,3.3188,3.2644,3.3022,3.3224,3.3177,3.2752,3.2738,3.2947,3.1758,3.1516,3.1833,3.0743,3.0333,3.0293,3.0007,2.9913,2.9913,0.0,0.0,0.0,0.0,0.0,0.0,0.0,1.7659,1.8465,1.8496,1.914,1.953,1.9392,1.9445,1.9735,0.0,0.0,0.0,0.0,0.0,0.0,1.98,2.0888,2.0991,1.9884,2.0462,2.0205,1.9012,0.0,1.8483,1.7843,1.6742,1.6248,1.6223,1.5745,1.5526,1.5538,1.5427,1.5337,1.5267,1.5545,1.5398,1.5155,1.5839,0.0,0.0,1.9698,2.0884,2.1429,2.398,2.6056,2.7723,2.8554,3.2161,3.6049,3.5531,3.7607,3.9705,3.8102,3.9009,4.0483,4.1191,3.9676,3.7271,3.4579,3.213,2.9882,2.8109,2.803,2.866,2.9772,3.0904,3.16,3.1496,3.1467,3.17,3.2452,3.2929,3.3223,3.3283,3.3844,3.4014,3.3464,3.3614,3.3664,3.3414,3.3414,3.3347,3.3213,3.3334,3.3414,3.3414,3.3664,3.3764,3.3764,3.4064,3.3913,3.3311,3.3602,3.3381,3.2833,3.2786,3.28,3.2752,3.2232,3.2185,3.2347,3.1531,3.1363,3.1496,3.0719,3.04,3.0373,3.002,2.9913,2.9913,0.0,0.0,0.0,0.0,0.0,0.0,0.0,1.7819,1.8488,1.9392,2.032,2.0696,2.0207,1.9666,1.9917,0.0,0.0,0.0,0.0,0.0,0.0,0.0,0.0,0.0,2.0008,0.0,0.0,1.8234,1.8611,0.0,0.0,0.0,0.0,0.0,1.559,1.5498,1.5487,1.5382,1.5369,0.0,0.0,1.5785,1.5742,0.0,0.0,0.0,0.0,2.2214,2.2677,2.6178,2.8579,3.0086,3.0041,3.3481,3.7591,3.743,3.9461,4.1416,3.973,4.0949,4.255,4.1728,4.0963,3.9195,3.4686,3.2277,3.0224,2.7422,2.7261,2.7878,2.8632,3.0552,3.1371,2.9532,3.0866,3.185,3.0815,3.2269,3.3376,3.3126,3.3806,3.4005,3.337,3.3474,3.3514,3.3414,3.3414,3.3414,3.3414,3.3414,3.3414,3.3414,3.3514,3.3564,3.3564,3.4014,3.394,3.3406,3.3643,3.347,3.2944,3.2496,3.228,3.2232,3.1853,3.1711,3.1698,3.1423,3.1316,3.1263,3.0755,3.056,3.0467,3.0114,2.9967,2.9913,0.0,0.0,0.0,0.0,0.0,0.0,0.0,1.7387,1.835,1.8272,2.0168,2.1359,2.0942,2.106,2.097,0.0,0.0,0.0,0.0,0.0,0.0,0.0,0.0,0.0,0.0,0.0,0.0,1.875,1.8796,0.0,0.0,0.0,0.0,0.0,0.0,1.5753,1.5766,1.6071,0.0,0.0,0.0,0.0,0.0,0.0,0.0,0.0,0.0,2.4574,2.6141,2.6498,2.8905,3.1629,3.0857,3.3422,3.7078,3.8956,3.9954,4.0678,4.154,4.2263,4.2658,4.2154,4.034,3.7802,3.4604,3.1058,2.7775,2.5436,2.5365,2.5587,2.5025,2.6622,2.7795,2.7098,2.8428,2.9766,3.0421,3.1954,3.2835,3.253,3.3658,3.4099,3.3112,3.3701,3.3914,3.3464,3.3414,3.3414,3.3414,3.3414,3.3414,3.3414,3.3864,3.4114,3.4114,3.4164,3.4049,3.377,3.3057,3.2566,3.2195,3.1879,3.1758,3.1758,3.1711,3.1711,3.1711,3.1684,3.1623,3.1644,3.1276,3.0982,3.0715,3.048,3.0154,2.9913,0.0,0.0,0.0,0.0,0.0,0.0,1.6843,1.7438,1.8231,1.9078,2.0275,2.1147,2.1392,2.1414,2.1347,2.1154,0.0,0.0,0.0,0.0,0.0,0.0,0.0,0.0,0.0,0.0,2.0614,1.9934,1.9621,0.0,0.0,0.0,0.0,0.0,0.0,1.5901,1.6112,1.6406,0.0,0.0,0.0,0.0,0.0,0.0,0.0,0.0,0.0,0.0,2.6139,2.7787,2.9208,3.0391,3.1203,3.2756,3.4668,3.674,3.9002,4.0798,4.0499,4.1842,4.2854,4.0967,3.9348,3.7047,3.2858,2.9967,2.7467,2.4953,2.5011,2.5212,2.4289,2.5786,2.6877,2.5931,2.7367,2.8762,2.9174,3.0548,3.1613,3.1852,3.2572,3.2889,3.25,3.3076,3.3475,3.34,3.3414,3.3414,3.3414,3.3414,3.3414,3.3414,3.3614,3.3714,3.3714,3.3714,3.3566,3.3318,3.2826,3.2433,3.2091,3.1797,3.1711,3.1711,3.1711,3.1711,3.1711,3.1711,3.1711,3.1684,3.1343,3.1156,3.0996,3.0574,3.0333,3.0154,0.0,0.0,0.0,0.0,0.0,1.7132,1.7212,1.7499,1.8089,1.9099,2.0241,2.1071,2.1369,2.1437,2.1496,2.1593,2.0659,0.0,0.0,0.0,0.0,0.0,0.0,0.0,0.0,0.0,2.1195,2.0992,2.0569,1.9712,0.0,0.0,1.6927,1.5808,0.0,0.0,0.0,0.0,0.0,0.0,0.0,0.0,0.0,0.0,0.0,0.0,0.0,0.0,0.0,0.0,0.0,2.9173,2.9768,3.0975,3.2595,3.4956,3.7863,4.0139,3.9596,4.111,4.2309,4.0152,3.8133,3.5684,3.1666,2.8896,2.656,2.4599,2.4543,2.4689,2.406,2.527,2.6113,2.5341,2.6732,2.795,2.818,2.9482,3.0568,3.0995,3.1631,3.2068,3.1971,3.2585,3.3093,3.3387,3.3414,3.3414,3.3414,3.3414,3.3414,3.3414,3.3414,3.3414,3.3414,3.3414,3.3307,3.3106,3.2781,3.2487,3.2225,3.1885,3.1711,3.1711,3.1711,3.1711,3.1711,3.1711,3.1711,3.1698,3.1436,3.1303,3.1122,3.0768,3.056,3.0373,0.0,0.0,0.0,0.0,0.0,0.0,1.6836,1.7492,1.7906,1.7651,1.9943,2.1366,2.0757,2.1255,2.1532,2.1406,2.1392,0.0,0.0,0.0,0.0,0.0,0.0,0.0,0.0,0.0,2.1221,2.1687,2.1482,2.0501,1.8796,1.8796,1.7707,1.5821,0.0,0.0,0.0,0.0,0.0,0.0,0.0,0.0,0.0,0.0,0.0,0.0,0.0,0.0,0.0,0.0,0.0,0.0,0.0,2.7809,3.1451,3.4661,3.675,3.831,3.9538,4.0497,4.0919,4.0011,3.6757,3.3291,3.1602,2.7791,2.4492,2.4014,2.366,2.3543,2.3932,2.4505,2.4979,2.5167,2.6319,2.7345,2.7659,2.9018,2.9962,2.9909,3.1161,3.1906,3.1745,3.2465,3.3093,3.3387,3.3414,3.3414,3.3414,3.3414,3.3414,3.3414,3.3414,3.3414,3.3414,3.3414,3.3414,3.34,3.2875,3.2594,3.2567,3.1979,3.1711,3.1711,3.1711,3.1711,3.1711,3.1711,3.1711,3.1711,3.1711,3.149,3.1176,3.1176,3.0849,3.04,0.0,0.0,0.0,0.0,0.0,0.0,0.0,1.6384,1.7355,1.7633,1.9237,2.0531,2.0941,2.1023,2.1189,2.1575,2.1307,0.0,0.0,0.0,0.0,0.0,0.0,0.0,0.0,0.0,2.032,2.1015,2.0591,1.9845,1.8879,1.8879,1.8004,1.6433,1.6526,1.6712,0.0,0.0,0.0,0.0,0.0,0.0,1.9085,0.0,0.0,0.0,0.0,0.0,0.0,0.0,0.0,0.0,0.0,0.0,0.0,2.8774,3.1529,3.4077,3.4635,3.5274,3.5455,3.3944,3.2145,3.0191,2.8171,2.5982,2.4295,2.3967,2.3612,2.3372,2.327,2.354,2.3966,2.443,2.5215,2.6182,2.7391,2.807,2.8776,2.9686,3.0591,3.1463,3.2233,3.2567,3.2929,3.3374,3.3414,3.3414,3.3414,3.3414,3.3414,3.3414,3.3414,3.3414,3.3414,3.3414,3.3414,3.34,3.2875,3.2594,3.2581,3.1979,3.1711,3.1711,3.1711,3.1711,3.1711,3.1711,3.1711,3.1711,3.1711,3.1657,3.1503,3.1303,3.1116,3.0889,0.0,0.0,0.0,0.0,0.0,0.0,0.0,1.6305,1.7265,1.7835,1.9169,2.0189,2.0569,2.0797,2.1022,2.132,2.1306,0.0,0.0,0.0,0.0,0.0,0.0,0.0,0.0,1.9843,1.9727,2.0388,2.0113,1.9458,1.8478,1.8887,1.8233,1.6714,1.682,1.7006,0.0,0.0,0.0,0.0,0.0,0.0,1.8557,0.0,0.0,0.0,0.0,0.0,0.0,0.0,0.0,0.0,0.0,0.0,0.0,0.0,2.6382,2.9072,3.0782,3.201,3.2391,3.0717,2.9252,2.7814,2.6322,2.4729,2.3554,2.3385,2.3161,2.2998,2.2914,2.3113,2.3492,2.4102,2.4703,2.5606,2.7026,2.7499,2.8276,2.9775,3.0563,3.137,3.2487,3.2594,3.2835,3.3374,3.3414,3.3414,3.3414,3.3414,3.3414,3.3414,3.3414,3.3414,3.3414,3.3307,3.3253,3.324,3.2652,3.2433,3.2407,3.1938,3.1711,3.1711,3.1711,3.1711,0.0,3.1711,3.1711,3.1711,3.1711,3.1711,3.165,3.1463,3.1249,3.1009,0.0,0.0,0.0,0.0,0.0,0.0,0.0,1.7072,1.7574,1.8175,1.9486,2.0238,1.983,2.0469,2.0898,2.0844,0.0,0.0,0.0,0.0,0.0,0.0,0.0,0.0,2.0677,1.966,1.9381,1.9846,1.9973,1.9247,1.7835,1.8931,1.8479,1.678,1.7086,1.7233,0.0,0.0,0.0,0.0,1.825,1.849,0.0,0.0,0.0,0.0,0.0,0.0,0.0,0.0,0.0,0.0,0.0,0.0,0.0,0.0,0.0,0.0,0.0,2.9849,3.0828,2.9554,2.7669,2.6007,2.5672,2.3916,0.0,2.2418,2.2385,2.2512,2.284,2.31,2.3487,2.4102,2.4676,2.5464,2.6653,2.7388,2.843,3.0199,3.0849,3.1543,3.2474,3.2581,3.2822,3.3334,3.34,3.3414,3.3414,3.3414,3.3414,3.3414,3.3414,3.34,3.3387,3.3156,3.3022,3.2946,3.242,3.2152,3.2091,3.1797,3.1711,3.1711,3.1711,3.1711,3.1711,3.1711,3.1711,3.1711,3.1711,3.1711,3.1711,3.1711,3.1316,3.0822,0.0,0.0,0.0,0.0,0.0,0.0,0.0,0.0,0.0,0.0,1.8725,1.943,1.9634,1.9424,1.9752,0.0,0.0,0.0,0.0,0.0,0.0,0.0,0.0,0.0,2.0405,1.9225,1.8831,1.9351,1.928,1.8753,1.7834,1.9155,1.8911,1.7382,1.7474,1.7501,0.0,0.0,0.0,0.0,1.825,1.849,0.0,0.0,0.0,0.0,1.9401,1.9562,0.0,0.0,0.0,0.0,0.0,0.0,0.0,0.0,2.1152,2.2401,2.235,0.0,2.4633,2.4784,2.4053,2.3365,0.0,2.2802,2.2151,2.2378,2.2385,2.2512,2.284,2.296,2.3281,2.4075,2.4502,2.5224,2.6587,2.7881,2.9125,3.0279,3.0675,3.1236,3.2118,3.246,3.2741,3.3053,3.328,3.3414,3.3414,3.3414,3.3414,3.3414,3.3414,3.3307,3.308,3.3372,3.3273,3.2688,3.2713,3.2489,3.2091,3.1797,3.1711,3.1711,3.1711,3.1711,3.1711,3.1711,3.1711,3.1711,3.1711,3.1711,3.1711,3.1711,3.1436,3.1089,0.0,0.0,0.0,0.0,0.0,0.0,0.0,0.0,0.0,0.0,0.0,0.0,0.0,0.0,0.0,0.0,0.0,0.0,0.0,0.0,0.0,0.0,0.0,2.007,1.9934,1.8496,1.8206,1.9111,1.874,1.8449,1.8285,1.9041,1.8758,1.7608,1.7608,1.7608,0.0,0.0,0.0,0.0,1.825,0.0,0.0,0.0,0.0,0.0,1.9241,1.9281,0.0,1.9212,1.9281,1.9401,0.0,0.0,0.0,0.0,2.0237,2.0816,2.0342,2.1333,2.2457,2.2324,2.2058,2.1897,2.2224,2.1943,2.171,2.2138,2.2218,2.2392,2.2966,2.3073,2.3367,2.4262,2.4719,2.5613,2.7388,2.8641,2.9713,3.0474,3.0942,3.1436,3.2038,3.242,3.2714,3.2959,3.3253,3.3414,3.3414,3.3414,3.3347,3.3213,3.3412,3.3494,3.3332,3.3443,3.3274,3.2719,3.2948,3.2763,3.2225,3.2063,3.2043,3.1995,3.1806,3.1711,3.1711,3.1711,3.1711,3.1711,3.1711,3.1711,3.1711,3.1711,3.1537,3.132,0.0,0.0,0.0,0.0,0.0,0.0,0.0,0.0,0.0,0.0,0.0,0.0,0.0,0.0,0.0,0.0,0.0,0.0,0.0,0.0,0.0,0.0,1.9962,1.9461,1.9278,1.78,1.7609,1.8754,1.8267,1.82,1.8565,1.8722,1.8356,1.7608,1.7608,1.7608,0.0,0.0,0.0,1.7662,1.825,0.0,0.0,0.0,0.0,0.0,0.0,0.0,0.0,1.9025,1.9092,1.9321,1.9281,0.0,0.0,0.0,0.0,0.0,1.9983,2.1152,2.2055,2.1407,2.1176,2.1203,2.1569,2.1349,2.1283,2.1871,2.1991,2.2258,2.3132,2.3332,2.3639,2.4519,2.5344,2.6507,2.8404,2.9392,3.014,3.0728,3.1276,3.1717,3.2011,3.2393,3.2701,3.2942,3.3227,3.3414,3.3414,3.3374,3.3227,3.2986,3.3439,3.3645,3.3688,3.3525,3.3285,3.2934,3.3208,3.3022,3.2502,3.2502,3.2502,3.2502,3.209,3.1948,3.1901,3.1853,3.1806,3.1806,3.1766,3.1739,3.1739,3.1793,3.1696,3.1528,0.0,0.0,0.0,0.0,0.0,0.0,0.0,0.0,0.0,0.0,0.0,0.0,0.0,0.0,0.0,0.0,0.0,0.0,0.0,0.0,0.0,1.914,1.9598,1.9347,1.8342,1.7606,1.7371,1.7658,1.7871,1.782,1.7463,1.8356,1.8356,1.7608,1.7608,1.7608,1.7608,0.0,0.0,1.7662,1.825,0.0,0.0,0.0,0.0,0.0,0.0,0.0,0.0,1.9025,1.893,1.8945,1.8704,0.0,0.0,0.0,0.0,0.0,1.9773,2.0217,2.0794,2.1655,2.1483,2.1256,2.179,2.1496,2.1283,2.1871,2.1991,2.2258,2.3132,2.3527,2.4031,2.4863,2.6333,2.7736,2.8775,2.9468,3.014,3.0728,3.1089,3.141,3.1704,3.2273,3.2607,3.2661,3.3106,3.3414,3.3414,3.3173,3.3026,3.2973,3.3222,3.345,3.3621,3.4024,3.3841,3.3152,3.3615,3.354,3.3083,3.3083,3.3083,3.3083,3.2988,3.2988,3.2941,3.2469,3.228,3.2252,3.1994,3.1885,3.1904,3.2043,3.194,3.1774,0.0,0.0,0.0,0.0,0.0,0.0,0.0,0.0,0.0,0.0,0.0,0.0,0.0,0.0,0.0,0.0,0.0,0.0,0.0,0.0,1.8565,1.801,1.8311,1.8241,1.7691,1.7075,1.7147,1.7931,1.7691,1.7904,1.8554,1.8435,1.8087,1.7608,1.7608,1.7608,1.7608,1.7608,1.7608,1.7662,0.0,0.0,0.0,0.0,0.0,0.0,0.0,0.0,0.0,0.0,1.8691,1.8664,1.8531,0.0,0.0,0.0,0.0,0.0,1.9837,2.0104,2.045,2.1529,2.1582,2.1448,2.1716,2.167,2.175,2.2372,2.2492,2.2779,2.3799,2.4275,2.5007,2.6533,2.7682,2.8738,2.9633,3.0127,3.0541,3.0982,3.1289,3.1583,3.1877,3.2144,3.2517,3.297,3.2982,3.3094,3.3327,3.3009,3.2812,3.2943,3.3292,3.3551,3.3752,3.4301,3.4229,3.3587,3.4071,3.4071,3.3587,3.3587,3.3587,3.354,3.3304,3.3224,3.3177,3.2927,3.2736,3.2523,3.2384,3.2232,3.2112,3.2264,3.2294,3.22,0.0,0.0,0.0,0.0,0.0,0.0,0.0,0.0,0.0,0.0,0.0,0.0,0.0,0.0,0.0,0.0,0.0,0.0,0.0,0.0,1.7754,1.6974,1.6951,1.6994,1.7065,1.6563,1.6914,1.812,1.7561,1.7987,1.9272,1.8414,1.7849,1.7608,1.7608,1.7608,1.7608,1.7608,1.7648,1.7742,0.0,0.0,0.0,0.0,0.0,0.0,0.0,0.0,0.0,0.0,0.0,0.0,0.0,0.0,0.0,1.8758,1.8918,1.9185,1.9903,2.0157,2.0384,2.1194,2.1521,2.1622,2.1756,2.201,2.2385,2.2987,2.3161,2.35,2.4543,2.5211,2.6238,2.8098,2.8858,2.9526,3.0386,3.0715,3.1029,3.1336,3.1679,3.2022,3.2414,3.2489,3.2755,3.3429,3.313,3.313,3.347,3.3062,3.2912,3.3065,3.346,3.3733,3.3916,3.4414,3.4508,3.4103,3.4508,3.4461,3.4103,3.4103,3.4103,3.4056,3.3695,3.3554,3.3554,3.3328,3.3112,3.2887,3.2686,3.2538,3.2347,3.2513,3.2561,3.2608,0.0,0.0,0.0,0.0,0.0,0.0,0.0,0.0,0.0,0.0,0.0,0.0,0.0,0.0,0.0,0.0,0.0,0.0,0.0,0.0,1.5984,1.5903,1.5903,1.6048,1.6378,1.6308,1.6628,1.7294,1.7486,1.7769,1.8117,1.805,1.7849,1.7608,1.7608,1.7608,1.7608,1.7608,1.7756,1.8009,1.8357,0.0,0.0,0.0,0.0,0.0,0.0,0.0,0.0,0.0,0.0,0.0,0.0,0.0,1.849,1.8517,1.8933,1.9441,1.9746,1.9997,2.0277,2.0686,2.1181,2.1729,2.2231,2.2592,2.3,2.3616,2.3915,2.4302,2.4967,2.6212,2.7563,2.8735,2.9428,3.006,3.0675,3.1009,3.1336,3.1877,3.2183,3.2673,3.3501,3.3529,3.3655,3.401,3.4004,3.4018,3.4018,3.3725,3.3557,3.3529,3.3771,3.3883,3.3916,3.4414,3.4695,3.4648,3.4695,3.4663,3.4648,3.4648,3.4648,3.4663,3.4616,3.4616,3.454,3.3769,3.3454,3.3383,3.2737,3.2622,3.2748,3.2763,3.2763,3.2763,0.0,0.0,0.0,0.0,0.0,0.0,0.0,0.0,0.0,0.0,0.0,0.0,0.0,0.0,0.0,0.0,0.0,0.0,0.0,1.6021,1.5808,1.5808,1.5808,1.6021,1.6526,1.654,1.6765,1.7206,1.7635,1.7902,1.7995,1.7995,1.7849,1.7608,1.7608,1.7608,1.7608,1.7608,1.7649,1.7782,1.8063,1.8249,0.0,0.0,0.0,0.0,0.0,0.0,0.0,0.0,1.8237,1.7916,1.7675,1.7876,1.8223,1.8437,1.8771,1.9199,1.9666,2.0013,2.0277,2.0632,2.139,2.2191,2.2639,2.322,2.3915,2.469,2.509,2.5569,2.6332,2.7348,2.843,2.9375,3.0074,3.0753,3.167,3.1893,3.215,3.2667,3.3038,3.3392,3.3891,3.3785,3.3895,3.4556,3.3929,3.367,3.3955,3.3591,3.3487,3.3757,3.3879,3.4056,3.4414,3.4601,3.471,3.471,3.471,3.471,3.471,3.471,3.4592,3.4402,3.4402,3.4285,3.4049,3.3734,3.3483,3.3251,3.2861,3.2747,3.2822,3.2822,3.2822,3.2822,0.0,0.0,0.0,0.0,0.0,0.0,0.0,0.0,0.0,0.0,0.0,0.0,0.0,0.0,0.0,0.0,0.0,0.0,1.5855,1.5808,1.5808,1.5808,1.5808,1.6075,1.6687,1.67,1.6926,1.734,1.7769,1.7995,1.7995,1.7995,1.7849,1.7608,1.7608,1.7608,1.7608,1.7608,1.7635,1.7742,1.7929,1.8049,0.0,0.0,0.0,0.0,0.0,0.0,0.0,0.0,1.8357,1.7983,1.7903,1.8076,1.8343,1.8571,1.8838,1.9158,1.9559,1.9947,2.0277,2.0632,2.155,2.2565,2.3153,2.4084,2.4983,2.5758,2.6306,2.6894,2.7603,2.8337,2.9138,2.9927,3.0555,3.1289,3.2245,3.2408,3.2685,3.3492,3.3784,3.4129,3.4684,3.4392,3.4436,3.5087,3.424,3.3789,3.4165,3.3836,3.3836,3.4165,3.4064,3.4161,3.4549,3.4446,3.4402,3.4402,3.4402,3.4446,3.4549,3.4446,3.4271,3.402,3.402,3.3888,3.3684,3.3581,3.3348,3.3071,3.2851,3.2822,3.2822,3.2822,3.2822,3.2822,0.0,0.0,0.0,0.0,0.0,0.0,0.0,0.0,0.0,0.0,0.0,0.0,0.0,0.0,0.0,0.0,0.0,0.0,1.5808,1.5808,1.5808,1.5808,1.5808,1.6075,1.6687,1.67,1.6994,1.7608,1.7862,1.7995,1.7995,1.7995,1.7849,1.7608,1.7608,1.7608,1.7608,1.7608,1.7756,1.7995,1.7995,1.8196,1.8477,0.0,0.0,0.0,0.0,0.0,0.0,0.0,1.889,1.8836,1.8584,1.8691,1.889,1.889,1.9132,1.9401,1.9401,1.9786,2.0277,2.0601,2.1563,2.2739,2.3941,2.5155,2.6172,2.672,2.759,2.8286,2.8564,2.9098,2.9731,3.0319,3.0849,3.147,3.2272,3.2421,3.2896,3.425,3.4388,3.4823,3.5993,3.5529,3.5343,3.5665,3.5061,3.471,3.471,3.471,3.471,3.4695,3.4388,3.4212,3.4212,3.3844,3.3684,3.3684,3.3684,3.3844,3.4197,3.383,3.3684,3.3684,3.3684,3.3684,3.3654,3.3333,3.3056,3.2822,3.2822,3.2822,3.2822,3.2763,3.2763,3.2763,0.0,0.0,0.0,0.0,0.0,0.0,0.0,0.0,0.0,0.0,0.0,0.0,0.0,0.0,0.0,0.0,0.0,0.0,1.5808,1.5808,1.5808,1.5808,1.5808,1.5981,1.6417,1.6832,1.7315,1.7876,1.7782,1.7836,1.7995,1.7822,1.7675,1.7608,1.7608,1.7608,1.7608,1.7608,1.7662,1.7716,1.7716,1.7769,0.0,0.0,0.0,0.0,0.0,0.0,0.0,0.0,0.0,0.0,1.8517,1.8691,1.889,1.889,1.9132,1.9401,1.9401,1.9977,2.0615,2.0909,2.2191,2.3621,2.4596,2.5571,2.672,2.8364,2.8898,2.9222,2.9472,2.9833,3.0266,3.0595,3.1307,3.2033,3.2838,3.3257,3.3723,3.4544,3.4828,3.5094,3.5427,3.5313,3.524,3.5343,3.4929,3.471,3.471,3.471,3.4592,3.4373,3.4271,3.411,3.383,3.3727,3.3684,3.3684,3.345,3.3508,3.383,3.3727,3.3567,3.3348,3.3348,3.3261,3.3041,3.2954,3.2851,3.2822,3.2822,3.2822,3.2778,3.2365,3.2232,3.2188,0.0,0.0,0.0,0.0,0.0,0.0,0.0,0.0,0.0,0.0,1.5808,1.5808,0.0,0.0,0.0,0.0,0.0,0.0,0.0,1.5808,1.5808,1.5808,1.5808,1.5995,1.6458,1.7046,1.7528,1.7836,1.7675,1.7675,1.7836,1.7675,1.7608,1.7608,1.7608,1.7608,1.7608,1.7608,1.7608,1.7608,1.7608,1.7608,1.7635,0.0,0.0,0.0,0.0,0.0,0.0,0.0,0.0,0.0,1.8866,1.8958,1.9118,1.9239,1.9399,1.9559,1.9679,2.0361,2.1127,2.139,2.2712,2.4289,2.5677,2.664,2.7762,2.9517,2.9878,2.9927,3.0207,3.0501,3.0861,3.1207,3.177,3.2484,3.3323,3.3728,3.4161,3.4823,3.5093,3.5255,3.5386,3.5167,3.502,3.502,3.4563,3.4314,3.4314,3.4314,3.4227,3.4036,3.3844,3.3684,3.3494,3.3422,3.3349,3.3349,3.3158,3.3024,3.3033,3.3259,3.3246,3.3011,3.2833,3.2627,3.2454,3.2276,3.2188,3.2188,3.2188,3.2188,3.2173,3.1818,3.1729,3.1685,0.0,0.0,0.0,0.0,0.0,0.0,0.0,0.0,0.0,0.0,1.5808,1.5808,0.0,0.0,0.0,0.0,0.0,0.0,0.0,0.0,1.5808,1.5808,1.5835,1.6115,1.6727,1.7275,1.7582,1.7608,1.7608,1.7608,1.7608,1.7608,1.7608,1.7608,1.7608,1.7608,1.7608,1.7608,1.7608,1.7608,1.7608,1.7608,1.7608,1.7608,0.0,0.0,0.0,0.0,0.0,0.0,0.0,0.0,1.9388,1.9401,1.9441,1.9679,1.9773,1.9867,2.0117,2.0895,2.1703,2.205,2.3287,2.4957,2.6948,2.8016,2.8965,3.0132,3.0386,3.0493,3.0742,3.1009,3.1323,3.1882,3.2208,3.2703,3.3689,3.383,3.4179,3.4988,3.5079,3.5196,3.5489,3.4958,3.4622,3.4622,3.402,3.3684,3.3684,3.3684,3.3669,3.364,3.3348,3.3142,3.3113,3.2865,3.2719,3.2675,3.2675,3.2409,3.1966,3.2498,3.2675,3.2631,3.2143,3.1921,3.1921,3.1463,3.1315,3.1315,3.1315,3.1315,3.1271,3.1226,3.124,3.1226,0.0,0.0,0.0,0.0,0.0,0.0,0.0,0.0,0.0,0.0,0.0,0.0,0.0,0.0,0.0,0.0,0.0,0.0,0.0,0.0,1.5808,1.5808,1.6046,1.6484,1.7073,1.7233,1.7381,1.7608,1.7608,1.7608,1.7608,1.7608,1.7608,1.7608,1.7608,1.7608,1.7608,1.7608,1.7608,1.7608,1.7608,1.7608,1.7608,1.7608,1.7769,0.0,0.0,0.0,0.0,0.0,0.0,0.0,1.9321,1.9401,1.9401,1.9468,1.9655,1.9867,2.0117,2.1042,2.2071,2.2846,2.4626,2.656,2.7737,2.847,2.9108,2.986,3.0194,3.0493,3.0742,3.0849,3.1027,3.1522,3.1992,3.2541,3.3108,3.3521,3.3826,3.399,3.4036,3.4066,3.4139,3.4022,3.3949,3.3949,3.3771,3.3684,3.3684,3.3684,3.3567,3.3318,3.3231,3.2905,3.2244,3.2172,3.201,3.164,3.164,3.1552,3.1463,3.1966,3.1966,3.164,3.1507,3.1463,3.1463,3.1315,3.1315,3.1315,3.1315,3.1315,3.1271,3.0884,3.075,3.0705,0.0,0.0,0.0,0.0,0.0,0.0,0.0,0.0,0.0,0.0,0.0,0.0,0.0,0.0,0.0,0.0,0.0,0.0,0.0,0.0,1.5861,1.6032,1.6326,1.6712,1.7192,1.734,1.7461,1.7608,1.7608,1.7608,1.7608,1.7608,1.7608,1.7608,1.7608,1.7608,1.7608,1.7608,1.7608,1.7608,1.7608,1.7608,1.7608,1.7608,1.7702,1.7809,1.7822,0.0,0.0,0.0,0.0,0.0,0.0,0.0,1.9212,1.9522,1.9773,2.0107,2.0504,2.151,2.2786,2.4222,2.5718,2.7014,2.7804,2.8404,2.8925,2.9219,2.986,3.0493,3.0742,3.0966,3.1289,3.1794,3.2299,3.2817,3.3273,3.3547,3.3684,3.3684,3.3684,3.3684,3.3684,3.3537,3.3359,3.3133,3.2988,3.2766,3.2586,3.2541,3.2384,3.2128,3.2113,3.1823,3.129,3.129,3.1229,3.1105,3.1105,3.1056,3.0973,3.1463,3.1552,3.1285,3.1062,3.0973,3.0973,3.0705,3.0616,3.0616,3.0616,3.0616,3.0616,3.0348,3.0272,3.0227,0.0,0.0,0.0,0.0,0.0,0.0,0.0,0.0,0.0,0.0,0.0,0.0,0.0,0.0,0.0,0.0,0.0,0.0,0.0,0.0,0.0,1.6364,1.658,1.6874,1.7273,1.7488,1.7608,1.7608,1.7662,1.7689,1.7742,1.7689,1.7662,1.7662,1.7662,1.7635,1.7608,1.7608,1.7608,1.7608,1.7608,1.7608,1.7608,1.7608,1.7608,1.7608,1.7608,1.7742,1.7942,1.7969,0.0,0.0,0.0,0.0,1.8958,1.9492,1.9823,2.0197,2.0922,2.2111,2.3669,2.5596,2.6466,2.7054,2.7642,2.8203,2.8604,2.8604,2.9547,3.041,3.0652,3.1098,3.1629,3.2145,3.2512,3.2892,3.339,3.3391,3.3348,3.3348,3.3406,3.3451,3.3407,3.3216,3.2965,3.2504,3.2169,3.1832,3.1463,3.1318,3.1133,3.0925,3.0869,3.0671,3.0376,3.0376,3.0415,3.0578,3.0578,3.0483,3.0332,3.0787,3.1006,3.1062,3.066,3.0482,3.0437,3.0048,2.9913,2.9913,2.9913,2.9913,2.9913,2.9913,2.9913,2.9913,0.0,0.0,0.0,0.0,0.0,0.0,0.0,0.0,0.0,0.0,1.5808,0.0,0.0,0.0,0.0,0.0,0.0,0.0,1.5808,0.0,0.0,1.662,1.6687,1.6967,1.7541,1.7595,1.7608,1.7608,1.7822,1.8089,1.8357,1.8076,1.7956,1.7956,1.7956,1.7809,1.7608,1.7608,1.7608,1.7608,1.7608,1.7608,1.7608,1.7608,1.7608,1.7608,1.7608,1.7609,1.7689,1.7929,1.8022,0.0,0.0,0.0,1.8611,1.8945,1.9252,1.9749,2.0815,2.2692,2.4679,2.6012,2.6774,2.7403,2.7991,2.8393,2.8604,2.8604,2.9474,3.0226,3.0254,3.0828,3.1486,3.196,3.191,3.1958,3.2441,3.2237,3.2061,3.2061,3.231,3.2368,3.209,3.2529,3.2719,3.2339,3.2102,3.1966,3.1921,3.1298,3.0953,3.0911,3.0659,3.0317,2.9813,2.9813,2.961,2.9273,2.9273,2.9243,2.9253,2.9595,2.9851,3.0093,3.0003,3.0003,3.0003,2.9913,2.9913,2.9913,2.9913,2.9913,2.9913,2.9913,2.9913,2.9913,0.0,0.0,0.0,0.0,0.0,0.0,0.0,0.0,0.0,0.0,0.0,1.5808,0.0,0.0,0.0,1.5795,1.5661,1.5635,1.5795,1.5808,1.5995,1.6471,1.662,1.6901,1.738,1.7528,1.7608,1.7608,1.7862,1.8249,1.8731,1.8771,1.8579,1.8225,1.8419,1.826,1.7832,1.8035,1.7996,1.7809,1.7809,1.7742,1.7608,1.7608,1.7689,1.7809,1.7809,1.7809,1.7836,1.7969,1.7902,1.7836,1.8116,0.0,0.0,0.0,1.9132,1.9722,2.1189,2.2846,2.4436,2.5598,2.6346,2.6974,2.7563,2.7883,2.8096,2.8096,2.8949,2.9727,2.9891,3.0407,3.0942,3.1437,3.1628,3.1801,3.2017,3.1885,3.1798,3.1798,3.1929,3.1959,3.1812,3.2061,3.2077,3.1685,3.154,3.1263,3.0738,2.9666,2.885,2.843,2.7605,2.7292,2.7667,2.7667,2.8059,2.8804,2.8921,2.9001,2.9001,2.9135,2.9392,2.9686,2.9847,2.982,2.9673,2.9673,2.9579,2.9388,2.9388,2.9388,2.9402,2.9606,2.9673,2.97,0.0,0.0,0.0,0.0,0.0,0.0,0.0,0.0,0.0,0.0,0.0,0.0,0.0,0.0,0.0,0.0,1.5631,1.5605,1.5795,1.5875,1.6072,1.6391,1.666,1.6979,1.7274,1.7501,1.7608,1.7608,1.7942,1.8396,1.8903,1.9372,1.9291,1.8777,1.8949,1.8723,1.8236,1.8434,1.8357,1.8129,1.8022,1.7929,1.7836,1.7729,1.7889,1.8129,1.8129,1.8129,1.8116,1.8022,1.7862,1.7729,1.7849,1.7902,0.0,0.0,0.0,1.9907,2.1363,2.2632,2.3843,2.4903,2.5678,2.6319,2.6948,2.7268,2.7495,2.7575,2.8242,2.8902,2.9287,2.995,3.0578,3.1023,3.1296,3.1552,3.1681,3.1607,3.1549,3.1549,3.1622,3.1637,3.1563,3.1695,3.141,3.0508,3.0406,2.9886,2.87,2.7477,2.6568,2.6024,2.4956,2.4741,2.5537,2.5452,2.5976,2.7088,2.7292,2.735,2.7393,2.7961,2.8334,2.86,2.9344,2.9566,2.9366,2.9366,2.9245,2.9001,2.9001,2.9001,2.9028,2.9285,2.9366,2.9406,0.0,0.0,0.0,0.0,0.0,0.0,0.0,0.0,0.0,0.0,0.0,0.0,1.5808,1.5795,1.5781,1.5808,1.5795,1.5795,1.5808,1.6086,1.6404,1.6673,1.6993,0.0,1.7582,1.7595,1.7608,1.7608,1.8183,1.8624,1.8916,1.9757,2.0006,1.9737,1.9482,1.9172,1.885,1.8611,1.8477,1.8437,1.8129,1.8183,1.841,1.8103,1.8183,1.8464,1.8464,1.8464,1.8424,1.8116,1.7982,1.7942,1.7689,1.7609,1.7729,0.0,0.0,0.0,2.0975,2.2017,2.3161,2.4048,2.4917,2.5718,2.6306,2.6653,2.6947,2.7269,2.7349,2.7634,2.8358,2.9577,3.0635,3.1023,3.0866,3.0836,3.1245,3.1066,3.0834,3.0834,3.1154,3.1212,3.0863,3.1432,3.0966,2.889,2.8615,2.7728,2.593,2.508,2.4635,2.4624,2.4221,2.4041,2.4115,2.3686,2.3245,2.2901,2.2912,2.2923,2.3009,2.5028,2.5969,2.6092,2.8156,2.9028,2.9015,2.9015,2.9015,2.9001,2.9001,2.9001,2.9001,2.9015,2.9015,2.9028,0.0,0.0,0.0,0.0,0.0,0.0,0.0,0.0,0.0,0.0,0.0,0.0,0.0,1.5808,1.5808,1.5808,1.5808,1.5808,1.5808,1.6112,1.6351,1.6444,1.6913,1.7246,1.7353,1.7515,1.7608,1.7608,1.7996,1.8329,1.8664,1.9359,1.9714,1.9824,2.0104,1.983,1.914,1.9277,1.9081,1.8682,1.8619,1.8418,1.82,1.8487,1.8644,1.8808,1.9208,1.9212,1.904,1.8676,1.8329,1.7942,1.7675,1.7608,1.7689,1.8063,1.8743,1.949,2.0107,2.0855,2.1756,2.2792,2.3581,2.4262,2.485,2.5504,2.6012,2.6119,2.6587,2.7055,2.7324,2.8331,2.9425,3.0353,3.0155,2.9705,2.9119,2.8689,2.804,2.7053,2.7048,2.7074,2.6957,2.7182,2.7009,2.6238,2.6884,2.6516,2.4745,2.4477,2.3872,2.2729,2.1856,2.1599,2.2076,2.2502,2.2554,2.2296,2.2296,2.2296,2.2307,2.3195,2.3605,2.3659,2.4511,2.6346,2.8721,2.8721,2.8644,2.8513,2.8513,2.7761,2.6874,2.8254,2.7961,2.7139,0.0,0.0,0.0,0.0,0.0,0.0,0.0,0.0,0.0,0.0,0.0,0.0,0.0,0.0,1.5808,1.5808,1.5808,1.5848,1.5955,1.6259,1.6484,1.6616,1.706,1.7314,1.7314,1.7515,1.7608,1.7608,1.7862,1.8116,1.8357,1.8945,1.9372,1.9679,2.016,2.0107,1.9594,1.9635,1.9452,1.9128,1.8964,1.8723,1.8516,1.8913,1.9137,1.9269,1.9751,1.9826,1.9599,1.9212,1.8716,1.8249,1.7836,1.7742,1.7782,1.7956,1.8369,1.885,1.9372,1.9933,2.0588,2.147,2.2251,2.3006,2.3487,2.4289,2.4983,2.517,2.5838,2.644,2.664,2.7324,2.8249,2.941,2.8994,2.8285,2.7654,2.683,2.5943,2.4943,2.4795,2.4795,2.4795,2.4795,2.4547,2.3927,2.463,2.4341,2.258,2.2556,2.2011,2.071,1.9885,1.9542,1.9765,2.0393,2.0535,2.0259,2.0259,2.0259,2.0259,2.0999,2.1367,2.142,2.2193,2.4072,2.6578,2.6578,2.6453,2.6333,2.6333,2.5543,2.4629,2.6062,2.578,2.5016,0.0,0.0,0.0,0.0,0.0,0.0,0.0,0.0,0.0,1.5808,0.0,0.0,0.0,0.0,0.0,1.5835,1.5835,1.5955,1.6284,1.6553,1.6872,1.7192,1.7448,1.7608,1.7608,1.7608,1.7608,1.7608,1.7862,1.7982,1.7995,1.8596,1.9052,1.9374,1.9626,1.992,2.013,1.9642,1.9546,1.973,1.9156,1.9132,1.9399,1.9428,1.9586,1.9867,2.0117,2.0224,2.0144,1.9615,1.9199,1.881,1.8209,1.7982,0.0,0.0,1.8209,1.8531,0.0,0.0,0.0,2.009,2.1069,2.1991,2.2251,2.3073,2.3924,2.4412,2.5026,2.5626,2.6187,2.652,2.7082,2.8071,2.7254,2.6588,2.6895,2.5645,2.4659,2.4647,2.4606,2.4606,2.4606,2.4606,2.3862,2.2047,2.1922,2.1181,1.9362,1.9288,1.9077,1.8603,1.8603,1.818,1.7281,1.7281,1.7027,1.6568,1.6568,1.6568,1.6645,1.8406,1.9198,1.9334,2.1367,2.2321,2.2439,2.2536,2.2579,2.2579,2.2579,2.2579,2.2536,2.2579,2.2579,2.2794,0.0,0.0,0.0,0.0,0.0,0.0,1.5808,1.5808,1.5808,0.0,0.0,0.0,1.615,1.6339,1.6435,1.6435,1.6435,1.65,1.658,1.6886,1.7086,1.7192,1.7448,1.7608,1.7608,1.7608,1.7608,1.7608,1.7662,1.7716,1.7716,1.8076,1.8303,1.8396,1.8718,1.9011,1.9276,1.9573,1.9542,1.9374,1.9499,1.9467,1.9412,2.0076,2.0239,2.0174,2.0668,2.0837,2.0744,2.0187,1.98,1.9386,1.8343,0.0,0.0,0.0,0.0,0.0,1.8183,0.0,0.0,0.0,0.0,0.0,2.0744,2.1811,2.2832,2.2972,2.3986,2.4618,2.3934,2.453,2.4949,2.4373,2.5042,2.5062,2.3404,2.2542,2.1631,2.0529,2.0385,2.0385,2.0385,2.0385,2.018,1.9657,2.0467,2.0385,1.8926,1.8985,1.8918,1.8603,1.8273,1.778,1.7103,1.6759,1.6442,1.6153,1.6153,1.6153,1.6202,1.686,1.712,1.7179,1.7875,1.8281,1.864,2.1439,2.2579,2.2579,2.2579,2.1803,2.0819,2.2105,2.176,2.0905,0.0,0.0,0.0,0.0,0.0,1.6095,1.5877,1.5954,1.5963,0.0,0.0,0.0,1.642,1.6607,1.67,1.67,1.67,1.6754,1.6913,1.7073,1.7259,1.7354,1.7515,1.7608,1.7608,1.7608,1.7608,1.7608,1.7608,1.7608,1.7608,1.7769,1.7889,1.7995,1.8196,1.8464,1.8743,1.9081,1.9312,1.9456,1.9555,1.971,1.9937,2.0491,2.0735,2.0816,2.1166,2.1376,2.139,2.0802,2.005,1.9265,1.8316,1.7836,0.0,0.0,0.0,0.0,0.0,0.0,1.8075,1.8449,0.0,0.0,1.98,2.0815,2.1764,2.2004,2.314,2.3911,2.3312,2.392,2.4017,2.2356,2.298,2.3102,2.1627,2.0611,1.9699,1.8815,1.8714,1.8714,1.8714,1.8714,1.8714,1.8714,1.9398,1.9479,1.8755,1.8622,1.8445,1.8106,1.7577,1.7059,1.6576,1.6245,1.6073,1.6007,1.6007,1.6007,1.6007,1.6112,1.6153,1.6211,1.6389,1.6527,1.6769,1.9198,2.0221,2.0298,2.0298,1.9656,1.8837,1.9917,1.9656,1.9012,0.0,0.0,1.5809,1.5809,1.6186,1.6349,1.5884,1.5991,1.6086,0.0,1.6141,1.6424,1.6727,1.673,1.6731,1.6782,1.6807,1.6939,1.7233,1.7246,1.7341,1.7595,1.7608,1.7608,1.7608,1.7608,1.7608,1.7608,1.7608,1.7608,1.7608,1.7608,1.7729,1.7969,1.7969,1.8116,1.841,1.8381,1.8911,1.973,1.9483,1.9937,2.0744,2.0815,2.1181,2.1636,2.1636,2.1823,2.1951,2.1363,2.0197,1.893,1.8316,1.7876,1.7622,1.7622,1.7608,0.0,0.0,0.0,0.0,1.7969,1.8383,0.0,1.9227,1.9977,2.0766,2.1328,2.2325,2.3172,2.3333,2.3805,2.3508,2.1415,2.114,2.1112,2.0904,1.9569,1.8698,1.8839,1.8758,1.8686,1.8686,1.8705,1.8705,1.8686,1.8705,1.8705,1.8686,1.8228,1.776,1.7343,1.6721,1.6243,1.5975,1.5853,1.5861,1.6007,1.6007,1.6007,1.6007,1.6007,1.6007,1.6015,1.6211,1.6284,1.6324,1.6615,1.6866,1.7088,1.7104,1.7112,1.7112,1.7112,1.7112,1.7323,0.0,1.5065,1.5177,1.5177,1.5253,1.5303,1.5202,1.5229,1.5419,1.5846,1.6126,1.6509,1.7035,1.686,1.6912,1.7382,1.7408,1.7461,1.7528,1.7528,1.7555,1.7608,1.7608,1.7608,1.7608,1.7608,1.7608,1.7608,1.7608,1.7608,1.7608,1.7608,1.7635,1.7675,1.7675,1.7702,1.7796,1.8,1.8608,1.9506,1.9893,2.0386,2.0985,2.1546,2.1836,2.193,2.193,2.2084,2.2245,2.1689,2.0802,1.9797,1.8983,1.8356,1.7876,1.7662,1.7608,1.7608,0.0,0.0,1.7675,1.7675,1.7916,0.0,1.8597,1.9345,2.0067,2.0384,2.1243,2.1648,2.0742,2.1133,2.1166,1.9777,2.0081,2.0405,2.008,1.8937,1.8588,1.9754,1.9052,1.8458,1.8458,1.861,1.8648,1.8468,1.8619,1.8638,1.8468,1.8015,1.7499,1.6946,1.6495,1.6123,1.5821,1.5829,1.5861,1.6007,1.6007,1.6007,1.6007,1.6007,1.6007,1.6007,1.6039,1.6137,1.6308,1.6381,1.6566,1.6874,1.7055,1.7112,1.7112,1.7112,1.7112,1.7156,1.4525,1.4729,1.5004,1.5004,1.5253,1.5343,1.5056,1.512,1.5265,1.5423,1.6217,1.6893,1.7315,1.7512,1.7711,1.8009,1.7903,1.7782,1.7782,1.7662,1.7608,1.7608,1.7608,1.7608,1.7608,1.7608,1.7608,1.7608,1.7608,1.7608,1.7608,1.7608,1.7608,1.7622,1.7742,1.7782,1.7822,1.8105,1.8739,1.9639,1.9893,2.0611,2.1503,2.1698,2.2077,2.2439,2.2258,2.2205,2.2138,2.1729,2.09,1.992,1.9332,1.8609,1.7955,1.7836,1.7702,1.7608,1.7608,1.7608,1.7608,1.7608,1.7702,0.0,0.0,1.8731,1.9225,1.949,2.0174,2.0526,1.9892,2.0227,2.0263,1.9342,1.9689,2.0075,2.0193,1.934,1.8779,1.9085,1.8559,1.8201,1.8201,1.8295,1.8314,1.821,1.8305,1.8234,1.7922,1.7483,1.7,1.6506,1.5976,1.5701,1.5642,1.5553,1.5642,1.591,1.591,1.5959,1.6007,1.6007,1.6007,1.6007,1.6007,1.6056,1.6137,1.6267,1.6414,1.6558,1.6779,1.6844,1.6844,1.6844,1.6844,1.6904,1.4074,1.4398,1.4853,1.4853,1.5256,1.5416,1.4934,1.5029,1.5141,1.5075,1.6133,1.7032,1.7387,1.7888,1.829,1.8455,1.8273,1.8155,1.8155,1.7876,1.7662,1.7675,1.7635,1.7608,1.7608,1.7608,1.7608,1.7608,1.7608,1.7608,1.7608,1.7608,1.7608,1.7622,1.7876,1.7995,1.8035,1.8409,1.9074,1.9797,1.9915,2.0773,2.1917,2.1796,2.2198,2.2786,2.2565,2.2311,2.2031,2.177,2.0967,1.9987,1.9669,1.8971,1.8249,1.8143,1.7916,1.7662,1.7595,1.7648,1.7662,1.7622,1.7622,1.7729,0.0,0.0,0.0,1.8784,1.9172,1.9466,1.9466,1.9663,1.9723,1.9224,1.9567,1.9951,2.0248,1.9819,1.93,1.8803,1.8572,1.8485,1.8485,1.829,1.8075,1.7888,1.7847,1.765,1.729,1.6862,1.6476,1.6117,1.5489,1.5286,1.5512,1.5359,1.5504,1.5829,1.5829,1.5902,1.6007,1.6007,1.6007,1.6007,1.6007,1.6007,1.6015,1.6194,1.6293,1.6401,1.6537,1.6661,1.6704,1.6619,1.6712,1.6898,1.4175,1.4223,1.4299,1.4299,1.4353,1.438,1.4299,1.4331,1.4586,1.5283,1.5661,1.6168,1.6979,1.7187,1.7543,1.8271,1.8614,1.8796,1.8796,1.8263,1.7942,1.7942,1.7729,1.7608,1.7608,1.7608,1.7608,1.7608,1.7608,1.7608,1.7608,1.7608,1.7608,1.7622,1.7876,1.7995,1.8049,1.893,1.9506,1.9853,2.037,2.1015,2.1689,2.2138,2.2378,2.2498,2.276,2.2619,2.2325,2.2031,2.1496,2.0869,2.0277,1.9706,1.9147,1.8597,1.8196,1.7902,1.7662,1.7782,1.7902,1.7649,1.7796,1.7955,1.7982,0.0,1.8156,1.8477,0.0,1.8195,1.8195,0.0,0.0,1.8602,1.9473,1.991,1.9185,1.9475,2.0165,2.1234,2.0686,2.0229,2.0229,1.9298,1.8378,1.7521,1.7323,1.7109,1.6879,1.6315,1.5905,1.5697,1.5357,1.5286,1.5512,1.565,1.5813,1.5975,1.5975,1.5983,1.6007,1.6007,1.6007,1.6007,1.6007,1.6007,1.6007,1.6023,1.6279,1.6633,1.6615,1.6831,1.7078,1.6746,1.7086,1.768,1.4191,1.4191,1.4191,1.4191,1.4191,1.4191,1.4191,1.4309,1.458,1.5202,1.58,1.6482,1.7244,1.7695,1.821,1.8939,1.92,1.9235,1.9073,1.8924,0.0,1.7792,1.7674,1.7436,1.708,1.7279,1.7384,1.7384,1.7529,1.7608,1.7608,1.7608,1.7608,1.7635,1.809,1.8369,1.8569,1.9319,1.9987,2.0588,2.0828,2.1283,2.1863,2.2071,2.2378,2.2733,2.2853,2.2672,2.2378,2.2084,2.1743,2.1269,2.0668,2.0201,1.976,1.9201,1.8784,1.8463,1.8196,1.821,1.8277,1.8143,1.8049,1.7995,1.8009,1.7889,1.7756,1.7742,0.0,0.0,0.0,0.0,0.0,0.0,1.8503,1.8931,1.8909,1.9434,1.9801,1.9804,1.9621,1.9342,1.8914,1.8997,1.868,1.7663,1.7441,1.7243,1.7011,1.6074,1.5472,1.5275,1.5157,1.5171,1.531,1.5423,1.561,1.5886,1.5886,1.5902,1.6007,1.6007,1.6007,1.6007,1.6007,1.6007,1.6007,1.6287,1.6369,1.6345,1.6875,1.7185,1.7268,1.681,1.6893,1.7235,1.4191,0.0,1.4191,1.4191,1.4191,1.4213,1.4277,1.4508,1.4873,1.5346,1.6086,1.6825,1.7545,1.8381,1.91,1.9625,1.9975,2.0023,1.966,1.9614,1.9127,1.8084,1.7984,1.7628,1.6957,1.7263,1.7331,1.7199,1.7463,1.7608,1.7608,1.7608,1.7622,1.7729,1.8263,1.8651,1.8943,1.9639,2.0334,2.1002,2.1162,2.1577,2.2111,2.2111,2.2452,2.2893,2.2893,2.2672,2.2392,2.2178,2.1943,2.1622,2.1208,2.0828,2.0481,1.9923,1.9519,1.917,1.8838,1.8784,1.8811,1.8651,1.8423,1.8209,1.8036,1.7796,1.7541,1.7341,1.7259,0.0,0.0,0.0,1.6874,1.7408,0.0,1.8036,1.8463,1.8985,1.9188,1.8823,1.8866,1.8721,1.8231,1.8629,1.8628,1.7903,1.7428,1.7114,1.6957,1.5833,1.5123,1.4925,1.5031,1.513,1.5278,1.5327,1.5545,1.5845,1.5845,1.5918,1.6007,1.6007,1.6007,1.6007,1.6007,1.6089,1.6205,1.6575,1.6657,1.6616,1.7199,1.7568,1.7691,1.7108,1.7026,1.729,1.4191,1.4191,1.4191,1.4191,1.4191,1.4266,1.4465,1.4866,1.5368,1.589,1.6396,1.6969,1.7604,1.8987,1.9937,2.005,2.108,2.1463,2.077,2.0348,1.9811,1.9166,1.8968,1.8456,1.7603,1.7834,1.7728,1.7199,1.7463,1.7608,1.7608,1.7608,1.7742,1.7995,1.8357,1.8651,1.8956,1.9823,2.0401,2.0766,2.1341,2.1917,2.2405,2.2405,2.2592,2.2893,2.2893,2.2672,2.2385,2.2371,2.2218,2.1964,2.1951,2.177,2.1435,2.0833,2.0428,2.0037,1.9522,1.9575,1.9626,1.9023,1.8876,1.8716,1.8115,1.7782,1.7608,1.7595,1.7367,1.7192,1.7192,0.0,0.0,0.0,0.0,0.0,0.0,1.7876,1.8489,1.9601,1.9474,1.9311,1.9328,1.8562,1.8073,1.818,1.7091,1.6466,1.6503,1.5558,1.4902,1.4708,1.5011,1.5278,1.5504,1.5675,1.5853,1.5999,1.5999,1.5999,1.6007,1.6007,1.6007,1.6007,1.6007,1.6246,1.6698,1.6689,1.7191,1.7887,1.7527,1.7937,1.8551,1.7691,1.7896,1.8551,0.0,1.4299,1.4191,1.4191,1.4191,1.4266,1.4476,1.5045,1.5709,1.6375,1.7001,1.7636,1.8347,1.9122,1.9643,1.9806,2.0923,2.1239,2.0395,2.0435,2.0124,1.9287,1.8966,1.8391,1.7616,1.808,1.8061,1.7446,1.7965,1.821,1.821,1.821,1.8237,1.8357,1.8623,1.8945,1.9265,1.9917,2.0628,2.1355,2.2144,2.2572,2.2733,2.2485,2.2605,2.2893,2.2893,2.284,2.2719,2.2485,2.2485,2.2532,2.2144,2.2044,2.2004,2.1462,2.1221,2.1047,2.0628,2.0454,2.0365,2.0134,1.9653,1.9187,1.8971,1.8544,1.813,1.7902,1.7649,1.7408,1.7233,0.0,0.0,0.0,0.0,0.0,0.0,1.7088,1.7368,1.7996,1.8491,1.867,1.8371,1.8704,1.8738,1.8291,1.7941,1.7969,1.8529,1.673,1.5822,1.6169,1.5307,1.4994,1.5294,1.5512,1.5691,1.5869,1.595,1.6007,1.6007,1.6007,1.6007,1.6007,1.6007,1.6287,1.6739,1.7026,1.7355,1.7641,1.8101,1.8265,1.8174,1.7609,1.7773,1.8174,1.454,1.4482,1.4385,1.4223,1.4266,1.4482,1.4966,1.5569,1.6322,1.7173,1.7977,1.8674,1.9256,2.0053,2.0557,2.0437,2.1601,2.1837,2.0733,2.1252,2.1099,2.0003,1.989,1.9458,1.8576,1.8901,1.873,1.7909,1.8414,1.8597,1.849,1.849,1.8544,1.8651,1.881,1.9092,1.9441,1.9957,2.0628,2.1355,2.2345,2.2699,2.2699,2.2605,2.2699,2.2893,2.2893,2.2893,2.2867,2.2645,2.2699,2.2853,2.2539,2.2592,2.2638,2.2298,2.2144,2.1984,2.1657,2.1363,2.1127,2.0913,2.0351,1.9654,1.8972,1.8413,1.7886,1.7163,1.6808,1.67,1.6892,0.0,0.0,0.0,0.0,0.0,0.0,1.646,1.65,1.6832,1.7358,1.7723,1.7849,1.8287,1.8554,1.8529,1.8305,1.8491,1.9134,1.7117,1.6143,1.658,1.5342,1.4846,1.5139,1.5286,1.5536,1.5812,1.5894,1.5942,1.6007,1.6007,1.6007,1.6007,1.6007,1.6287,1.6731,1.7199,1.7486,1.7691,1.8224,1.8387,1.8214,1.7978,1.7928,1.7928,1.4637,1.474,1.4779,1.4331,1.4439,1.4873,1.5888,1.6419,1.7174,1.828,1.9244,1.9937,2.0194,2.1678,2.2422,2.1818,2.2981,2.3179,2.1796,2.2615,2.2525,2.121,2.1667,2.1468,2.0375,0.0,0.0,1.857,1.8842,1.8838,1.8557,1.8544,1.8677,1.8916,1.8916,1.9118,1.9455,1.9987,2.0428,2.0873,2.1964,2.2432,2.2472,2.2786,2.2893,2.2893,2.2893,2.2893,2.2893,2.2893,2.2893,2.2947,2.3233,2.3292,2.3292,2.3305,2.3126,2.2819,2.2437,2.2145,2.1739,2.1086,2.0716,2.0037,1.8107,1.7464,1.689,1.5545,1.5106,1.5239,1.6186,1.5797,0.0,0.0,0.0,0.0,0.0,1.6005,1.5915,1.6244,1.6228,1.6654,1.7808,1.7429,1.7558,1.8753,1.8215,1.7982,1.8354,1.6822,1.5952,1.5981,1.5268,1.4908,1.499,1.5169,1.5477,1.5788,1.5796,1.5853,1.5991,1.5991,1.5999,1.6007,1.6007,1.6287,1.6739,1.7191,1.76,1.801,1.7969,1.8255,1.8632,1.8673,1.8337,1.7796,1.507,1.4966,1.4955,1.5192,1.5289,1.5526,1.6129,1.6915,1.7819,1.8796,1.9738,2.0356,2.0492,2.175,2.2237,2.1413,2.256,2.2877,2.1759,2.2043,2.2159,2.1915,2.1786,2.1535,2.1215,2.1415,2.0951,1.9772,1.982,1.9717,1.9452,1.9267,1.9214,1.9281,1.9281,1.9412,1.972,2.005,2.0775,2.1697,2.2218,2.2552,2.2786,2.2867,2.2893,2.2893,2.2893,2.2893,2.2893,2.2893,2.2893,2.2947,2.3233,2.3292,2.3332,2.3594,2.3447,2.2937,2.1767,2.108,2.0334,1.9035,1.8381,1.79,1.7378,1.7009,1.6677,1.6329,1.5908,1.5671,1.5848,1.5857,1.5827,0.0,0.0,0.0,0.0,1.5848,1.5835,1.5915,1.6143,1.6476,1.697,1.6883,1.7108,1.7889,1.7937,1.796,1.8028,1.7819,1.7161,1.5965,1.6828,1.6496,1.4811,1.6045,1.6224,1.5374,1.552,1.5675,1.5845,1.5845,1.5918,1.6007,1.6007,1.6287,1.6698,1.6821,1.7314,1.7969,1.7682,1.765,1.7773,1.8051,1.7682,1.6977,1.5623,1.5469,1.5534,1.6009,1.6323,1.6657,1.7033,1.7775,1.8656,1.9639,2.0615,2.1268,2.1333,2.2202,2.2653,2.2282,2.3057,2.3153,2.2254,2.2827,2.3129,2.2851,2.254,2.2495,2.2691,2.2328,0.0,2.0816,2.0668,2.0304,1.98,1.9669,1.9522,1.9401,1.9401,1.9562,1.984,2.0388,2.1069,2.1863,2.2245,2.2512,0.0,2.2853,2.2893,2.2893,2.2893,2.2893,2.292,2.3054,2.306,2.314,2.3567,2.3203,2.2706,2.2987,2.2403,2.1401,2.0483,1.991,1.9277,1.8181,1.7661,1.7269,1.6506,1.6218,1.5896,1.531,1.4846,1.4626,1.4908,1.5173,1.5433,0.0,0.0,0.0,1.5821,1.5508,1.5453,1.5947,1.5857,1.5992,1.6637,1.67,1.6847,1.7168,1.7595,1.7908,1.8138,1.7546,1.7207,1.7216,1.7214,1.6899,1.6241,1.7505,1.7474,1.6082,1.6351,1.6236,1.5812,1.5812,1.5869,1.6007,1.6007,1.6172,1.641,1.6616,1.6977,1.7437,1.7404,1.7281,1.7108,1.7355,1.71,1.6657,1.6117,1.6113,1.6275,1.6656,1.7357,1.7985,1.8298,1.8821,1.9548,2.0572,2.1535,2.2179,2.2236,2.2802,2.3259,2.3482,2.3744,2.3626,2.2902,2.4055,2.4431,2.3739,2.3505,2.3672,2.4153,2.306,2.2206,0.0,2.1336,2.0722,1.9853,1.9813,1.9639,1.9401,1.9401,1.9575,1.992,2.0788,2.1336,2.1689,2.2245,2.2498,2.2565,2.2819,2.296,2.296,2.296,2.296,2.3,2.3233,2.3319,2.3452,2.4035,2.3092,2.1848,2.2101,2.088,1.9313,1.8942,1.8625,1.8258,1.7569,1.741,1.6993,1.5547,1.5201,1.4859,1.3717,1.3173,1.3128,1.383,1.4311,1.4977,0.0,1.6306,1.6257,1.5901,1.5155,1.5023,1.6175,1.5519,0.0,1.66,1.6673,1.666,1.67,1.7181,1.7676,1.811,1.6856,1.6867,1.8482,1.7103,1.6847,1.79,1.8887,1.8526,1.6866,1.7414,1.6988,1.578,1.578,1.5853,1.6007,1.6007,1.6007,1.6048,1.6451,1.6616,1.6657,1.7108,1.7026,1.6616,1.6616,1.6616,1.6534,1.6301,1.6648,1.6992,1.6958,1.797,1.8977,1.9664,1.978,2.0108,2.1068,2.1633,2.1963,2.2045,2.2613,2.2957,2.3003,2.3317,2.3454,2.3296,2.3616,2.3765,2.3611,2.3562,2.3694,2.4016,2.3588,2.3021,2.2271,2.177,2.1047,2.0117,1.9907,1.9639,1.9401,1.9401,1.9666,2.0184,2.1127,2.1676,2.1997,2.2586,2.2939,2.3145,2.322,2.3247,2.3247,2.3247,2.3247,2.326,2.3278,2.3487,2.379,2.4102,2.3092,2.1848,2.2101,2.088,1.9123,1.781,1.7148,1.6479,1.5165,1.4704,1.4513,1.4231,1.4161,1.409,1.3842,1.3609,1.3495,1.3653,1.4592,1.5428,1.576,1.6279,1.6526,1.6257,1.5268,1.5023,1.6175,1.5519,1.5456,1.66,1.6486,1.6446,1.6687,1.6807,1.6652,1.6196,1.7565,1.7811,1.6626,1.7963,1.7957,1.6388,1.8223,1.7812,1.5165,1.6713,1.679,1.5561,1.5561,1.574,1.6007,1.6007,1.6007,1.6007,1.6081,1.6122,1.6163,1.6657,1.6534,1.6122,1.6122,1.6122,1.613,1.7193,1.7465,1.7905,1.8284,1.8806,1.9506,2.0336,2.0516,2.0862,2.1716,2.2181,2.2453,2.2494,2.2541,2.2815,2.3434,2.3357,2.3381,2.358,2.3881,2.4083,2.4083,2.3947,2.4059,2.445,2.402,2.3484,2.2852,2.2298,2.155,2.065,2.0197,1.9947,1.9826,2.0003,2.0281,2.0704,2.147,2.2064,2.2505,2.2926,2.3287,2.3554,2.3554,2.3554,2.3554,2.3554,2.3115,2.2647,2.3496,2.3875,2.3904,2.3329,2.2066,2.0642,1.993,1.8494,1.6926,1.611,1.5611,1.5184,1.4379,1.4034,1.3904,1.3904,1.3904,1.3904,1.3904,1.3731,1.3681,1.3906,1.4325,1.4688,1.49,1.5635,1.6048,1.5669,1.5281,1.5264,1.5896,1.521,1.5126,1.6271,1.6162,1.6125,1.6475,1.6792,1.6817,1.6495,1.7254,1.7456,1.6949,1.771,1.7752,1.6982,1.8406,1.801,1.585,1.6886,1.6736,1.5512,1.5512,1.5667,1.6007,1.6007,1.6007,1.6007,1.6007,1.6007,1.6007,1.6246,1.6205,1.6007,1.6007,1.6007,1.6007,1.7907,1.8239,1.8766,1.9368,1.9635,2.0042,2.0843,2.1223,2.1602,2.2143,2.252,2.2793,2.2905,2.2574,2.2737,2.3755,2.3429,2.3378,2.3932,2.4212,2.4412,2.4492,2.4308,2.4412,2.4842,2.4347,2.3865,2.342,2.2806,2.2031,2.1096,2.0597,2.0357,2.0304,2.0641,2.0935,2.1243,2.1897,2.2479,2.2934,2.334,2.3647,2.3897,2.3897,2.3897,2.3897,2.3897,2.2972,2.1983,2.3338,2.3546,2.3072,2.2001,2.0601,1.9019,1.7778,1.6262,1.4974,1.4797,1.4627,1.4411,1.4278,1.4091,1.3953,1.3912,1.3904,1.3904,1.3904,1.3801,1.3794,1.4048,1.411,1.4215,1.4489,1.5303,1.5853,1.5661,1.5603,1.5625,1.5761,1.5204,1.5164,1.6014,1.6099,1.6223,1.6464,1.6938,1.709,1.6832,1.6942,1.7208,1.7655,1.7494,1.7555,1.7887,1.871,1.8214,1.6504,1.7132,1.6799,1.5569,1.5569,1.5707,1.6007,1.6007,1.6007,1.6007,1.6007,1.6007,1.6007,1.6007,1.6007,1.6007,1.6007,1.6246,1.6575,1.7791,1.8628,1.931,1.9076,2.0111,2.1071,2.1391,2.1809,2.207,2.2034,2.2068,2.2242,2.2686,2.246,2.2571,2.3302,2.31,2.3364,2.4384,2.4092,2.4052,2.4492,2.4467,2.4556,2.4698,2.4481,2.4153,2.3763,2.3148,2.2231,2.1109,2.1056,2.0882,2.0672,2.0935,2.1261,2.1596,2.2452,2.284,2.2974,2.3781,2.4142,2.4168,2.4168,2.4168,2.4168,2.4168,2.3139,2.186,2.225,2.1429,2.0204,2.0075,1.8905,1.7588,1.7445,1.6262,1.4998,1.4982,1.4814,1.4635,1.4419,1.4278,1.4107,1.3937,1.3904,1.3904,1.3904,1.404,1.4015,1.3575,1.4416,1.5248,1.552,1.6197,1.6935,1.7618,1.6852,1.6187,1.606,1.6099,1.6123,1.6096,1.6889,1.733,1.7113,1.7166,1.6729,1.5619,1.7307,1.811,1.7625,1.8318,1.842,1.7829,1.8674,1.7778,1.5212,1.6884,1.6996,1.5788,1.5788,1.5853,1.6007,1.6007,1.6007,1.6007,1.6007,1.6007,1.6007,1.6007,1.6007,1.6007,1.6007,1.7009,1.845,1.8589,1.9468,2.0258,2.0048,2.0621,2.1159,2.1288,2.1733,2.2029,2.2005,2.2195,2.2453,2.2675,2.2471,2.2456,2.2844,2.2669,2.2871,2.3664,2.3532,2.364,2.4052,2.4572,2.4792,2.4697,2.4931,2.4809,2.4289,2.3514,2.2806,2.2184,2.1649,2.1341,2.1261,2.1683,2.2058,2.2412,2.2913,2.334,2.3701,2.4062,2.4302,2.4426,2.4426,2.4426,2.4316,2.3334,2.1955,2.0478,1.9591,1.951,1.9623,1.864,1.793,1.7217,1.6224,1.5497,1.5006,1.5006,1.4838,1.4692,1.4619,1.4383,1.4192,1.4083,1.3985,1.3904,1.3904,1.3946,1.3918,1.3563,1.3773,1.4211,1.4925,1.5034,1.5368,1.6414,1.5932,1.5233,1.4609,1.5022,1.5032,1.4316,1.5728,1.661,1.644,1.7056,1.7226,1.6742,1.7125,1.7069,1.6481,1.7314,1.7025,1.5466,1.6916,1.6787,1.513,1.5858,1.6047,1.5812,1.5812,1.5869,1.6007,1.6007,1.6007,1.6089,1.7132,1.7574,1.7656,1.8717,1.9115,1.9115,1.9115,1.9724,2.0575,1.9096,1.9989,2.0752,2.0677,2.0978,2.1286,2.148,2.1672,2.1892,2.2152,2.2386,2.2583,2.2686,2.2535,2.2554,2.2914,2.2807,2.3047,2.377,2.3677,2.3843,2.4282,2.4884,2.5157,2.5021,2.5437,2.5358,2.477,2.4026,2.346,2.2979,2.2305,2.2024,2.2131,2.2498,2.2846,2.3188,2.3447,2.3821,2.4209,2.4302,2.4412,2.4599,2.4599,2.4304,2.3735,2.2595,2.0864,1.8905,1.7778,1.7854,1.8186,1.7055,1.6683,1.6492,1.5344,1.5006,1.5006,1.5006,1.4917,1.4773,1.4724,1.4521,1.431,1.4241,1.4075,1.3969,1.3912,1.3904,1.3863,1.3706,1.3465,1.3587,1.4637,1.4388,1.4485,1.5671,1.5453,1.4892,1.4163,1.4764,1.4791,1.3601,1.5077,1.6102,1.6103,1.6858,1.7288,1.7224,1.7247,1.7038,1.6547,1.7693,1.7329,1.5275,1.6667,1.6664,1.5278,1.5278,1.5504,1.5894,1.6373,1.6408,1.6048,1.71,1.7264,1.6895,1.8667,1.9349,1.9471,2.0727,2.1222,2.1222,2.1343,2.1896,2.2631,1.9107,1.9844,2.0511,2.0511,2.1057,2.1664,2.2111,2.1845,2.183,2.2496,2.2444,2.2417,2.2654,2.2675,2.2965,2.3625,2.3687,2.4119,2.5186,2.4831,2.4833,2.5468,2.5496,2.5611,2.5792,2.5897,2.5703,2.5077,2.4733,2.4132,2.3278,2.2993,2.3041,2.3265,2.3278,2.3487,2.3817,2.4075,2.4195,2.4222,2.4479,2.4599,2.4599,2.4599,2.3624,2.2223,2.2223,2.015,1.7445,1.7407,1.6377,1.5045,1.5045,1.5045,1.5045,1.5006,1.5006,1.5006,1.5006,1.4998,1.4958,1.4749,1.4708,1.4611,1.4298,1.4217,1.4123,1.3937,1.3904,1.3904,1.3896,1.3723,1.3954,1.5121,1.4935,1.51,1.6223,1.604,1.5696,1.5402,1.6086,1.607,1.4809,1.5548,1.6231,1.6578,1.6602,1.6537,1.6314,1.7929,1.8755,1.8472,2.0468,2.0555,1.8474,1.8744,1.7743,1.5512,1.5512,1.5659,1.604,1.7778,1.7615,1.6205,1.9643,2.016,1.8708,2.0443,2.1182,2.1182,2.1182,2.1222,2.1251,2.1655,2.29,2.4547,2.0415,2.0819,2.109,2.099,2.129,2.1532,2.1578,2.1761,2.1985,2.236,2.2513,2.26,2.2675,2.2686,2.2718,2.2735,2.3337,2.3783,2.3933,2.4377,2.4889,2.5338,2.5435,2.566,2.6039,2.6003,2.5904,2.5717,2.5184,2.4596,2.3915,2.3656,2.3576,2.3634,2.3834,2.3981,2.4088,2.4382,2.4466,2.4466,2.4559,2.4599,2.4599,2.4599,2.429,2.3537,2.1351,1.9924,1.8716,1.6483,1.542,1.5006,1.5006,1.5006,1.5006,1.5006,1.5006,1.5006,1.5006,1.5006,1.499,1.4933,1.4797,1.4643,1.4408,1.4164,1.3977,1.3912,1.3904,1.3904,1.3904,1.3723,1.4039,1.5349,1.4565,1.4225,1.5429,1.5201,1.4817,1.4602,1.5159,1.516,1.4123,1.4772,1.5457,1.5874,1.6623,1.705,1.6994,1.6792,1.6478,1.5925,1.7067,1.7005,1.5569,1.6876,1.6829,1.5512,1.5512,1.6294,1.7778,1.8341,1.8952,1.9602,2.0737,2.0888,2.0535,2.2229,2.2963,2.3084,2.4283,2.4734,2.4813,2.5211,2.5885,2.6689,2.106,2.1193,2.1174,2.1094,2.1322,2.1556,2.1668,2.1928,2.2201,2.2521,2.2621,2.2686,2.2686,2.2686,2.2708,2.2695,2.3398,2.3828,2.3848,2.4717,2.5391,2.5708,2.5956,2.616,2.6425,2.6347,2.6212,2.5998,2.5516,2.505,2.469,2.4396,2.4298,2.4298,2.4329,2.4369,2.4382,2.4519,2.4599,2.4599,2.4599,2.4599,2.4599,2.4599,2.4216,2.3351,2.0752,1.9397,1.8489,1.588,1.5006,1.5006,1.5006,1.5006,1.5006,1.5006,1.5006,1.5006,1.5006,1.5006,1.5006,1.5006,1.4925,1.4757,1.4578,1.4261,1.4002,1.4002,1.3953,1.392,1.3993,1.392,1.4123,1.5,1.4281,1.3827,1.4432,1.452,1.4398,1.4151,1.4842,1.4927,1.3912,1.4328,1.4842,1.5217,1.6464,1.7012,1.6573,1.6737,1.6519,1.5889,1.654,1.6335,1.5205,1.635,1.6445,1.552,1.561,1.6704,1.8626,1.9277,2.016,2.1262,2.2591,2.2791,2.2309,2.4056,2.4866,2.5104,2.6188,2.6702,2.69,2.7333,2.7647,2.7922,2.1196,2.1114,2.091,2.1022,2.1359,2.1754,2.224,2.2302,2.2469,2.2916,2.2803,2.2686,2.2686,2.2686,2.2902,2.3333,2.3849,2.4321,2.4664,2.5592,2.6246,2.6414,2.6806,2.6961,2.6813,2.68,2.6547,2.6024,2.5692,2.5545,2.5531,2.5224,2.5115,2.5101,2.4733,2.4599,2.4599,2.4599,2.4599,2.4599,2.4599,2.4599,2.4599,2.4599,2.3661,2.2148,2.0414,1.883,1.7283,1.5573,1.5006,1.5006,1.5006,1.5006,1.5006,1.5023,1.5023,1.5023,1.5023,1.5023,1.5023,1.5006,1.4998,1.4941,1.4749,1.444,1.4196,1.4196,1.4058,1.3993,1.4164,1.4196,1.4196,1.4217,1.4026,1.3809,1.3554,1.4095,1.4426,1.4229,1.5052,1.5207,1.4198,1.418,1.4406,1.4772,1.6133,1.6458,1.5413,1.7411,1.827,1.7582,1.7997,1.7792,1.6768,1.6795,1.6383,1.5536,1.5959,1.7091,1.883,2.0575,2.1464,2.1746,2.4972,2.5462,2.4096,2.574,2.6623,2.6953,2.6992,2.7215,2.7633,2.8118,2.8289,2.8368,2.2631,2.1817,2.1217,2.2236,2.1954,2.1739,2.2231,2.2298,2.2395,2.275,2.2729,2.2686,2.2686,2.2686,2.2729,2.2859,2.3892,2.4621,2.4707,2.589,2.6673,2.6694,2.6868,2.6978,2.6972,2.6851,2.664,2.6332,2.6038,2.5891,2.5877,2.5355,2.5115,2.5101,2.4733,2.4599,2.4599,2.4599,2.4599,2.4599,2.4599,2.4599,2.4599,2.4599,2.4377,2.3648,2.0827,1.9547,1.8792,1.5948,1.5006,1.5006,1.5006,1.5006,1.5031,1.513,1.5132,1.5132,1.5132,1.5132,1.5139,1.5039,1.4871,1.4757,1.4716,1.4538,1.4338,1.4338,1.4298,1.4282,1.433,1.4338,1.4326,1.4233,1.4026,1.4127,1.4841,1.4765,1.5035,1.6007,1.5443,1.4957,1.4981,1.4256,1.4311,1.5596,1.6021,1.618,1.5986,1.6803,1.6629,1.525,1.5624,1.5747,1.5601,1.5752,1.5804,1.5755,1.7263,1.8911,2.0646,2.239,2.3924,2.5211,2.6017,2.6188,2.5832,2.6228,2.6465,2.6584,2.6874,2.7071,2.7254,2.8015,2.8289,2.8368,2.2833,2.2241,2.1713,2.2222,2.2259,2.2239,2.2299,2.2385,2.2546,2.2665,2.2686,2.2686,2.2686,2.2686,2.2772,2.2988,2.3677,2.4192,2.4407,2.5933,2.6923,2.7093,2.757,2.7772,2.7639,2.7347,2.7014,2.6587,2.6293,2.6198,2.6185,2.573,2.5449,2.5264,2.497,2.4719,2.4599,2.4599,2.4599,2.4599,2.4599,2.4599,2.4599,2.4599,2.4142,2.3166,2.0677,1.9321,1.8299,1.5842,1.5006,1.5006,1.5006,1.5006,1.5055,1.5285,1.5262,1.5221,1.5302,1.5327,1.5121,1.4236,1.3837,1.3671,1.3671,1.4118,1.4554,1.4554,1.4452,1.4419,1.4508,1.4554,1.446,1.4318,1.4647,1.5062,1.5363,1.5643,1.5896,1.6128,1.5495,1.4989,1.4815,1.4288,1.4322,1.5209,1.5976,1.6186,1.5666,1.6596,1.6375,1.4721,1.5025,1.5268,1.5327,1.5545,1.5683,1.5812,1.7679,1.9511,2.1262,2.3003,2.4746,2.6386,2.6584,2.6584,2.6386,2.6584,2.6781,2.7018,2.7215,2.753,2.7922,2.8392,2.8588,2.8627,2.2688,2.25,2.2135,2.1965,2.2439,2.2766,2.2427,2.2557,2.2686,2.2686,2.2772,2.2816,2.2816,2.2859,2.3106,2.3666,2.3709,2.3935,2.4492,2.5933,2.705,2.7558,2.8318,2.8575,2.8288,2.7848,2.7362,2.6787,2.6533,2.6386,2.6386,2.6131,2.5837,2.5504,2.5211,2.4917,2.4599,2.4599,2.4599,2.4599,2.4599,2.4599,2.4599,2.4599,2.3611,2.1999,2.0376,1.8754,1.714,1.5535,1.5006,1.5006,1.5039,1.5047,1.512,1.5447,1.5408,1.5318,1.5512,1.5313,1.4678,1.2824,1.244,1.2526,1.2554,1.3701,1.4797,1.4822,1.4662,1.4606,1.4806,1.4806,1.4792,1.4794,1.5603,1.6112,1.582,1.6422,1.657,1.564,1.5424,1.5097,1.4412,1.4497,1.4557,1.4557,1.5885,1.6203,1.5118,1.6458,1.6601,1.5167,1.539,1.5569,1.5593,1.574,1.5813,1.5853,1.7982,1.9775,2.1357,2.3307,2.501,2.6493,2.6848,2.6821,2.6505,2.69,2.7333,2.7687,2.7765,2.8197,2.8808,2.8886,2.8886,2.8886,2.3591,2.2735,2.208,2.3168,2.2838,2.2449,2.26,2.2665,2.2686,2.2686,2.3074,2.329,2.329,2.3634,2.4224,2.5025,2.5068,2.5452,2.6316,2.6656,2.7165,2.7968,2.8179,2.8081,2.7675,2.7465,2.7161,2.6787,2.6533,2.6386,2.6386,2.6131,2.5837,2.5504,2.5211,2.4917,2.4599,2.4599,2.4599,2.4599,2.4599,2.4599,2.4599,2.4599,2.3611,2.1999,2.0376,1.8754,1.714,1.5535,1.5006,1.5031,1.5147,1.5156,1.5268,1.5626,1.5715,1.5699,1.5723,1.4508,1.2785,1.0972,1.1537,1.2554,1.2729,1.3994,1.5164,1.5358,1.5366,1.5358,1.5382,1.5221,1.5427,1.6375,1.6452,1.6648,1.7392,1.6682,1.6094,1.6095,1.5354,1.4864,1.5041,1.5236,1.535,1.535,1.5571,1.5635,1.5431,1.5833,1.5956,1.569,1.5739,1.5804,1.5918,1.595,1.5966,1.6008,1.9267,2.1075,2.1717,2.4674,2.6281,2.6747,2.6929,2.6953,2.6953,2.7333,2.7555,2.7633,2.804,2.8289,2.8431,2.8769,2.8886,2.8886,2.34,2.3315,2.3162,2.3315,2.3291,2.2814,2.1391,2.2071,2.2417,2.1671,2.2632,2.3505,2.3763,2.3978,2.4535,2.5665,2.5793,2.6346,2.7799,2.763,2.7799,2.8431,2.8529,2.8318,2.7897,2.7639,2.7428,2.7295,2.6841,2.6627,2.6613,2.6319,2.5945,2.5504,2.5371,2.5064,2.4599,2.4599,2.4599,2.4599,2.4599,2.4599,2.4599,2.4599,2.3054,2.0789,2.0075,1.8224,1.5995,1.5237,1.5006,1.5039,1.514,1.5197,1.527,1.5666,1.5845,1.5714,1.4765,1.3071,1.1177,0.9401,0.9442,0.9932,1.003,1.1311,1.2807,1.384,1.4054,1.4341,1.5313,1.5408,1.5464,1.5802,1.6284,1.6678,1.6935,1.6548,1.6309,1.6508,1.5833,1.5446,1.5712,1.6018,1.6188,1.6188,1.6321,1.626,1.602,1.6186,1.6163,1.5918,1.5918,1.6008,1.6145,1.6145,1.6235,1.6374,1.9878,2.1663,2.1926,2.5316,2.6975,2.7189,2.7478,2.7582,2.7622,2.8058,2.8355,2.8457,2.8711,2.895,2.9159,2.9183,2.9149,2.912,2.3475,2.3883,2.3921,2.296,2.3157,2.2578,1.996,2.0795,2.1325,2.0264,2.1834,2.3279,2.3837,2.4395,2.5293,2.677,2.6897,2.7545,2.9034,2.8684,2.8558,2.8782,2.8697,2.8529,2.8234,2.7856,2.7669,2.7602,2.7081,2.6787,2.672,2.6493,2.6079,2.5518,2.5518,2.5146,2.4599,2.4599,2.4599,2.4599,2.4599,2.4599,2.4599,2.4599,2.2595,1.9811,1.9811,1.7769,1.5063,1.5063,1.5096,1.5122,1.5309,1.5327,1.5423,1.5748,1.5934,1.5546,1.3376,1.17,1.0081,0.7917,0.7526,0.771,0.777,0.9066,1.0648,1.2049,1.2298,1.2748,1.4132,1.4672,1.4947,1.5014,1.6113,1.6843,1.648,1.6601,1.6656,1.6527,1.622,1.6112,1.629,1.6675,1.6955,1.6955,1.7087,1.7013,1.6657,1.6785,1.6657,1.6163,1.6048,1.6088,1.63,1.63,1.6599,1.7247,2.0385,2.2174,2.276,2.5956,2.7554,2.7729,2.8099,2.8311,2.8408,2.8776,2.9094,2.9341,2.9341,2.9584,2.9862,2.954,2.9423,2.9364,2.4645,2.4266,2.3416,2.2256,2.1737,2.0838,1.8881,1.8715,1.875,1.8663,2.0665,2.2438,2.3277,2.5312,2.7334,2.9104,2.923,2.9495,3.0054,2.9663,2.923,2.8824,2.8445,2.8221,2.8179,2.7856,2.7562,2.7336,2.6974,2.668,2.6426,2.64,2.6079,2.5518,2.5518,2.5146,2.4599,2.4599,2.4599,2.4599,2.4599,2.4599,2.4599,2.4599,2.2595,1.9811,1.9811,1.7827,1.5181,1.5181,1.5294,1.5504,1.5683,1.5772,1.5772,1.5926,1.5991,1.5249,1.1831,1.0746,0.9794,0.6361,0.6591,0.7766,0.793,0.9216,1.047,1.0785,1.0848,1.089,1.1014,1.2279,1.3684,1.4884,1.6411,1.7356,1.717,1.7319,1.6991,1.5748,1.6067,1.6453,1.6639,1.7074,1.736,1.736,1.7378,1.7346,1.7346,1.7355,1.7108,1.6657,1.6246,1.6088,1.63,1.63,1.7221,1.9123,2.1013,2.293,2.4921,2.6923,2.803,2.8359,2.8643,2.8879,2.9122,2.9301,2.9533,2.9866,2.9866,2.9866,2.9862,2.954,2.9423,2.9364,2.2595,2.2567,2.2128,2.0558,2.01,1.9273,1.7088,1.7745,1.8182,1.7307,1.9482,2.1791,2.3524,2.5056,2.6897,2.9272,2.9481,2.9565,2.9747,2.9607,2.9188,2.8445,2.8263,2.8179,2.8179,2.8072,2.7871,2.7535,2.7241,2.7109,2.7066,2.6876,2.643,2.5862,2.5862,2.541,2.4599,2.4599,2.4599,2.4599,2.4599,2.4599,2.4613,2.4836,2.3542,2.1493,2.0572,1.8825,1.6839,1.5762,1.5455,1.5545,1.5764,1.5812,1.5829,1.6121,1.6284,1.5566,1.1956,1.0791,0.9833,0.6317,0.5861,0.6324,0.6437,0.6916,0.7677,0.8842,0.9107,0.9493,1.0636,1.1323,1.2226,1.3684,1.4452,1.5249,1.6433,1.6516,1.6472,1.651,1.6811,1.7153,1.7469,1.7928,1.8224,1.8224,1.8224,1.8101,1.7805,1.7273,1.6862,1.6698,1.6246,1.6145,1.647,1.7601,1.8672,1.9723,2.2661,2.4498,2.5355,2.7216,2.8358,2.8758,2.8653,2.8984,2.965,2.9694,2.9906,3.0229,3.0378,3.0466,3.0393,2.9906,2.9716,2.9643,2.1392,2.1558,2.1228,1.8741,1.8436,1.7789,1.5601,1.6613,1.7271,1.6298,1.9134,2.1953,2.3781,2.5598,2.7575,2.9732,2.99,2.9774,2.9523,2.923,2.881,2.8221,2.8179,2.8179,2.8179,2.8179,2.7991,2.7562,2.7403,2.723,2.7133,2.6929,2.6508,2.59,2.59,2.541,2.4599,2.4599,2.4599,2.4599,2.4599,2.4599,2.4639,2.497,2.4122,2.2505,2.1046,1.9497,1.7918,1.6185,1.5634,1.5659,1.5821,1.5894,1.5999,1.63,1.6479,1.593,1.2833,1.1422,0.9961,0.6429,0.5514,0.5492,0.5536,0.5544,0.5928,0.7252,0.7553,0.8023,0.9396,0.9999,1.0635,1.1699,1.234,1.3403,1.5373,1.5607,1.604,1.7127,1.7527,1.7754,1.7969,1.8428,1.8714,1.8714,1.8714,1.851,1.8051,1.7314,1.6903,1.6903,1.6451,1.6394,1.6706,1.7891,1.9211,2.0775,2.3309,2.516,2.6321,2.7912,2.8826,2.9145,2.9025,2.9344,3.0038,2.9833,3.0009,3.0405,3.0583,3.0744,3.0759,3.0258,3.0053,2.998,2.1651,2.1651,2.0785,1.7036,1.6781,1.6481,1.4608,1.5094,1.5704,1.5704,1.9734,2.2912,2.3887,2.724,2.9816,3.0692,3.0776,3.0442,2.9565,2.8684,2.8179,2.8179,2.8179,2.8179,2.8179,2.8179,2.7898,2.7309,2.7309,2.7001,2.6386,2.6386,2.6079,2.5518,2.5518,2.5184,2.4599,2.4599,2.4599,2.4599,2.4599,2.4599,2.4639,2.497,2.4122,2.2543,2.1046,1.9609,1.8173,1.6419,1.5894,1.6007,1.6007,1.6128,1.6341,1.6527,1.6584,1.6193,1.4387,1.2539,1.0214,0.6552,0.5602,0.5602,0.5605,0.5605,0.5735,0.6215,0.6302,0.6432,0.6905,0.8023,0.8883,0.8883,1.0429,1.2227,1.4102,1.4842,1.5817,1.7495,1.8061,1.8229,1.8028,1.8428,1.8714,1.8714,1.8714,1.851,1.801,1.76,1.7404,1.7404,1.6944,1.6791,1.6977,1.6783,1.8657,2.2622,2.2622,2.4605,2.8221,2.9104,2.9481,2.9495,2.9777,3.0082,3.0331,2.9687,2.9804,3.039,3.039,3.0539,3.0746,3.0507,3.039,3.0346,1.9168,1.7903,1.6729,1.5601,1.5513,1.5785,1.6189,1.6497,1.6673,1.6673,1.8453,2.0308,2.1889,2.4764,2.7253,2.8783,3.0053,3.0442,2.9565,2.8684,2.8179,2.8179,2.8179,2.8179,2.8179,2.8179,2.7898,2.7309,2.7309,2.7136,2.6834,2.6834,2.6617,2.625,2.6033,2.5569,2.493,2.4693,2.4599,2.4599,2.4599,2.4599,2.4639,2.497,2.4933,2.4482,2.3059,2.1585,2.0108,1.8329,1.6966,1.6023,1.6186,1.6396,1.6655,1.6712,1.686,1.6558,1.4704,1.2772,1.0732,0.8253,0.6588,0.5613,0.5657,0.5931,0.6197,0.6329,0.6716,0.7036,0.7115,0.7506,0.8126,0.9267,0.9875,1.0913,1.2991,1.4202,1.5241,1.6394,1.7425,1.8197,1.8469,1.8337,1.8337,1.8673,1.8378,1.801,1.76,1.715,1.6903,1.6903,1.678,1.6791,1.6977,1.9626,2.1463,2.2481,2.5204,2.7109,2.8234,2.8473,2.8936,2.9509,2.935,2.9396,2.9552,2.9364,2.9232,2.9174,2.9401,2.963,2.9913,2.9889,2.9898,2.9895,1.7123,1.5946,1.5205,1.5036,1.5175,1.5704,1.6892,1.7419,1.7639,1.7639,1.9074,2.0535,2.164,2.3964,2.5841,2.6957,2.7704,2.8181,2.8418,2.7617,2.7405,2.8179,2.8179,2.8179,2.8179,2.8179,2.7563,2.6272,2.6969,2.6759,2.574,2.574,2.5583,2.5296,2.4341,2.359,2.314,2.3515,2.3661,2.3698,2.4327,2.4599,2.4639,2.497,2.5184,2.5156,2.3858,2.2819,2.1734,1.936,1.746,1.6031,1.6251,1.6454,1.6606,1.6679,1.682,1.6518,1.4696,1.2771,1.0867,0.8995,0.7061,0.564,0.5679,0.6086,0.6485,0.6665,0.7159,0.7624,0.7728,0.764,0.7877,0.8848,0.8917,0.961,1.1641,1.2748,1.402,1.5914,1.6824,1.7631,1.8346,1.8174,1.8051,1.8183,1.7937,1.756,1.715,1.7026,1.6985,1.6985,1.715,1.7284,1.7406,2.1024,2.2754,2.2527,2.5376,2.7109,2.7844,2.8132,2.8562,2.9049,2.9021,2.8974,2.8963,2.8809,2.8631,2.8458,2.8766,2.9075,2.9383,2.9741,2.9423,2.8841,1.5675,1.533,1.5425,1.5212,1.5572,1.6233,1.72,1.8077,1.8646,1.8646,2.0805,2.2352,2.2352,2.4018,2.516,2.516,2.4434,2.4691,2.6376,2.5811,2.6151,2.7883,2.7968,2.7968,2.7968,2.7941,2.6758,2.4435,2.6029,2.5707,2.3576,2.3576,2.3433,2.3103,2.1324,2.0343,2.0205,2.1467,2.2073,2.2334,2.3809,2.4488,2.4663,2.4943,2.5101,2.5031,2.3965,2.3499,2.2918,1.9674,1.7469,1.6056,1.6251,1.6316,1.6357,1.6527,1.6584,1.6275,1.4664,1.2742,1.0804,0.9229,0.7297,0.5786,0.5786,0.6186,0.6678,0.7129,0.7644,0.8133,0.8489,0.8234,0.7993,0.7945,0.7898,0.8448,1.0141,1.0821,1.2362,1.5607,1.6134,1.6659,1.7814,1.7969,1.7764,1.7322,1.7363,1.7199,1.6739,1.7158,1.7404,1.7404,1.7805,1.8083,1.8246,2.1418,2.2867,2.2649,2.4122,2.5631,2.7186,2.8043,2.8345,2.8248,2.8772,2.8796,2.8503,2.8223,2.8043,2.8004,2.8337,2.8644,2.9061,2.9647,2.8783,2.7392,1.5814,1.4764,1.4588,1.6349,1.7008,1.7805,1.9083,1.9485,1.9616,1.9616,2.0129,2.0477,2.0477,2.2093,2.3202,2.3202,2.3706,2.4006,2.4038,2.4904,2.5598,2.5981,2.6024,2.6024,2.6024,2.5868,2.4717,2.2516,2.2782,2.2522,2.1746,2.1746,2.1713,2.1647,2.0852,2.0468,2.0404,2.0363,2.1052,2.2223,2.2558,2.3648,2.5055,2.4777,2.5063,2.5507,2.5159,2.4326,2.2918,1.9674,1.7557,1.6251,1.6292,1.6405,1.6527,1.661,1.6584,1.6531,1.6278,1.3744,1.1111,1.0864,0.8542,0.632,0.632,0.6678,0.7084,0.7173,0.7687,0.8065,0.8049,0.8054,0.8152,0.8408,0.8293,0.8319,0.8748,0.9961,1.1455,1.3264,1.4709,1.6114,1.7404,1.7527,1.7199,1.6377,1.6994,1.7199,1.6739,1.7158,1.7404,1.7404,1.7805,1.8654,2.0018,2.2095,2.3051,2.2874,2.5776,2.6846,2.6313,2.7812,2.7934,2.6989,2.84,2.8646,2.8043,2.7974,2.7607,2.7108,2.7176,2.7527,2.7916,2.7374,2.7029,2.6842,1.494,1.4632,1.5205,1.7096,1.7805,1.8506,1.9703,1.9921,1.9921,1.9921,1.9703,1.9563,1.9563,2.0197,2.0621,2.0621,2.0882,2.1305,2.1953,2.2503,2.3137,2.4038,2.4038,2.3652,2.2794,2.2577,2.1927,2.0798,2.1493,2.1209,2.0089,2.0008,1.9957,1.9907,1.8775,1.8216,1.815,1.8598,1.9236,2.0075,2.18,2.3103,2.4116,2.4881,2.5285,2.549,2.5699,2.4843,2.3254,2.0926,1.911,1.7619,1.7007,1.6743,1.6701,1.691,1.6827,1.6499,1.5864,1.3544,1.1161,1.0278,0.8052,0.6186,0.6454,0.7036,0.7542,0.7581,0.805,0.8477,0.8383,0.8442,0.8507,0.8644,0.8437,0.8589,0.9448,1.024,1.1511,1.3749,1.4822,1.5859,1.6944,1.6871,1.6624,1.6369,1.678,1.7067,1.7026,1.7437,1.76,1.7404,1.8614,1.9663,2.0575,2.2923,2.4237,2.4548,2.6707,2.7403,2.6787,2.7821,2.7351,2.5779,2.6813,2.6803,2.6148,2.6148,2.6303,2.6627,2.7014,2.7378,2.7715,2.6924,2.5843,2.4617,1.419,1.5029,1.6349,1.7674,1.8383,1.8952,1.9659,1.979,1.9728,1.9603,1.9326,1.9065,1.9028,1.8706,1.8471,1.8383,1.8042,1.8427,1.9892,1.9926,2.0558,2.2062,2.2148,2.1414,1.9917,1.9411,1.9137,1.9109,2.0368,2.0108,1.845,1.8357,1.8133,1.7678,1.6454,1.5594,1.5138,1.6633,1.7317,1.7664,2.0729,2.2335,2.3091,2.4743,2.5387,2.5413,2.5937,2.5101,2.3656,2.2591,2.106,1.9419,1.8133,1.7387,1.7059,1.7322,1.7067,1.6435,1.5267,1.3314,1.1241,0.9577,0.7565,0.6069,0.6425,0.7101,0.7705,0.7876,0.8328,0.87,0.8714,0.8768,0.874,0.8664,0.8445,0.893,1.0747,1.0814,1.1884,1.5028,1.553,1.5859,1.6534,1.6246,1.6163,1.6534,1.6648,1.6862,1.7281,1.7682,1.7723,1.7404,1.9144,2.0312,2.0899,2.3204,2.496,2.6188,2.6715,2.6951,2.6965,2.7542,2.6627,2.4608,2.5442,2.5335,2.4649,2.4649,2.5225,2.6136,2.6733,2.7015,2.6983,2.6348,2.4406,2.192,1.5433,1.6217,1.7227,1.8243,1.9126,1.9606,1.9335,1.9292,1.9106,1.8493,1.8539,1.8531,1.8355,1.8409,1.8339,1.791,1.7822,1.7726,1.7586,1.9012,2.0004,2.0255,2.0264,2.0134,1.9917,1.8296,1.7347,1.719,1.7264,1.707,1.6676,1.7035,1.6095,1.4155,1.5642,1.5143,1.3274,1.4869,1.6246,1.7483,1.8299,2.0504,2.335,2.3622,2.4682,2.6047,2.6081,2.5101,2.3776,2.3616,2.2401,2.0737,1.945,1.8717,1.8228,1.76,1.7067,1.6781,1.7068,1.4732,1.2048,1.1493,0.921,0.7,0.6589,0.6589,0.6835,0.7364,0.7578,0.7778,0.8053,0.8179,0.8289,0.8502,0.8411,0.8908,1.0689,1.0808,1.1884,1.5028,1.6073,1.641,1.6122,1.6048,1.6048,1.6081,1.6451,1.6739,1.678,1.7232,1.7445,1.7404,1.7691,1.9256,2.2218,2.1545,2.2751,2.5793,2.4788,2.431,2.435,2.5872,2.535,2.3441,2.6438,2.7256,2.6452,2.6452,2.58,2.4786,2.4863,2.4396,2.3546,2.2726,2.1486,2.0216,1.6445,1.7447,1.841,1.8812,1.9214,1.9395,1.9059,1.8824,1.8493,1.8127,1.7922,1.7811,1.7828,1.7739,1.7639,1.7419,1.7419,1.7332,1.7112,1.7893,1.8322,1.8322,1.8322,1.8322,1.8322,1.7499,1.7071,1.6955,1.682,1.6125,1.5006,1.5076,1.3986,1.2029,1.3886,1.4006,1.2915,1.4623,1.5657,1.6186,1.7502,1.9629,2.2174,2.3313,2.4824,2.6288,2.614,2.5723,2.5144,2.4415,2.3696,2.2803,2.1515,2.0302,1.9318,1.9225,1.8369,1.7513,1.7883,1.595,1.3502,1.2123,0.9919,0.7689,0.6458,0.6155,0.6402,0.7257,0.7449,0.7575,0.8016,0.8065,0.8099,0.8478,0.9209,1.0369,1.2089,1.3131,1.4361,1.6279,1.641,1.6246,1.6007,1.6007,1.613,1.6369,1.6575,1.6821,1.7067,1.7281,1.7723,1.845,1.9419,2.1101,2.354,2.3952,2.4681,2.5674,2.4203,2.3592,2.382,2.4589,2.356,2.1413,2.388,2.4603,2.4094,2.5057,2.5193,2.4866,2.5092,2.3921,2.2124,2.1934,2.095,1.9741]},{"header":{"parameterUnit":"m.s-1","parameterCategory":1,"la1":30.6,"la2":28.766,"lo1":-90.7593,"lo2":-88.6598,"dy":0.0162,"dx":0.0183,"nx":116,"ny":114,"refTime":"2023-09-28T00:00:00:Z","depth":0,"parameterNumber":3,"parameterNumberName":"V-component_of_WINDS"},"data":[0.0,0.0,0.0,0.0,0.0,0.0,0.0,0.0,0.0,0.0,0.0,0.0,0.0,0.0,0.0,0.0,0.0,0.0,0.0,0.0,0.0,0.0,0.0,0.0,0.0,0.0,0.0,0.0,0.0,0.0,0.0,0.0,0.0,0.0,0.0,0.0,0.0,0.0,0.0,0.0,0.0,0.0,0.0,0.0,0.0,0.0,0.0,0.0,0.0,0.0,0.0,0.0,0.0,0.0,0.0,0.0,0.0,0.0,0.0,0.0,0.0,0.0,0.0,0.0,0.0,0.0,0.0,0.0,0.0,0.0,0.0,0.0,0.0,0.0,0.0,0.0,0.0,0.0,0.0,0.0,0.0,0.0,0.0,0.0,0.0,0.0,0.0,0.0,0.0,0.0,0.0,0.0,0.0,0.0,0.0,0.0,0.0,0.0,0.0,0.0,0.0,0.0,0.0,0.0,0.0,0.0,0.0,0.0,0.0,0.0,0.0,0.0,0.0,0.0,0.0,0.0,0.0,0.0,0.0,0.0,0.0,0.0,0.0,0.0,0.0,0.0,0.0,0.0,0.0,0.0,0.0,0.0,0.0,0.0,0.0,0.0,0.0,0.0,0.0,0.0,0.0,0.0,0.0,0.0,0.0,0.0,0.0,0.0,0.0,0.0,0.0,0.0,0.0,0.0,0.0,0.0,0.0,0.0,0.0,0.0,0.0,0.0,0.0,0.0,0.0,0.0,0.0,0.0,0.0,0.0,0.0,0.0,0.0,0.0,0.0,0.0,0.0,0.0,0.0,0.0,0.0,0.0,0.0,0.0,0.0,0.0,0.0,0.0,0.0,0.0,0.0,0.0,0.0,0.0,0.0,0.0,0.0,0.0,0.0,0.0,0.0,0.0,0.0,0.0,0.0,0.0,0.0,0.0,0.0,0.0,0.0,0.0,0.0,0.0,0.0,0.0,0.0,0.0,0.0,0.0,0.0,0.0,0.0,0.0,0.0,0.0,0.0,0.0,0.0,0.0,0.0,0.0,0.0,0.0,0.0,0.0,0.0,0.0,0.0,0.0,0.0,0.0,0.0,0.0,0.0,0.0,0.0,0.0,0.0,0.0,0.0,0.0,0.0,0.0,0.0,0.0,0.0,0.0,0.0,0.0,0.0,0.0,0.0,0.0,0.0,0.0,0.0,0.0,0.0,0.0,0.0,0.0,0.0,0.0,0.0,0.0,0.0,0.0,0.0,0.0,0.0,0.0,0.0,0.0,0.0,0.0,0.0,0.0,0.0,0.0,0.0,0.0,0.0,0.0,0.0,0.0,0.0,0.0,0.0,0.0,0.0,0.0,0.0,0.0,0.0,0.0,0.0,0.0,0.0,0.0,0.0,0.0,0.0,0.0,0.0,0.0,0.0,0.0,0.0,0.0,0.0,0.0,0.0,0.0,0.0,0.0,0.0,0.0,0.0,0.0,0.0,0.0,0.0,0.0,0.0,0.0,0.0,0.0,0.0,0.0,0.0,0.0,0.0,0.0,0.0,0.0,0.0,0.0,0.0,0.0,0.0,0.0,0.0,0.0,0.0,0.0,0.0,0.0,0.0,0.0,0.0,0.0,0.0,0.0,0.0,0.0,0.0,0.0,0.0,0.0,0.0,0.0,0.0,0.0,0.0,0.0,0.0,0.0,0.0,0.0,0.0,0.0,0.0,0.0,0.0,0.0,0.0,0.0,0.0,0.0,0.0,0.0,0.0,0.0,0.0,0.0,0.0,0.0,0.0,0.0,0.0,0.0,0.0,0.0,0.0,0.0,0.0,0.0,0.0,0.0,0.0,0.0,0.0,0.0,0.0,0.0,0.0,0.0,0.0,0.0,0.0,0.0,0.0,0.0,0.0,0.0,0.0,0.0,0.0,0.0,0.0,0.0,0.0,0.0,0.0,0.0,0.0,0.0,0.0,0.0,0.0,0.0,0.0,0.0,0.0,0.0,0.0,0.0,0.0,0.0,0.0,0.0,0.0,0.0,0.0,0.0,0.0,0.0,0.0,0.0,0.0,0.0,0.0,0.0,0.0,0.0,0.0,0.0,0.0,0.0,0.0,0.0,0.0,0.0,0.0,0.0,0.0,0.0,0.0,0.0,0.0,0.0,0.0,0.0,0.0,0.0,0.0,0.0,0.0,0.0,0.0,0.0,0.0,0.0,0.0,0.0,0.0,0.0,0.0,0.0,0.0,0.0,0.0,0.0,0.0,0.0,0.0,0.0,0.0,0.0,0.0,0.0,0.0,0.0,0.0,0.0,0.0,0.0,0.0,0.0,0.0,0.0,0.0,0.0,0.0,0.0,0.0,0.0,0.0,0.0,0.0,0.0,0.0,0.0,0.0,0.0,0.0,0.0,0.0,0.0,0.0,0.0,0.0,0.0,0.0,0.0,0.0,0.0,0.0,0.0,0.0,0.0,0.0,0.0,0.0,0.0,0.0,0.0,0.0,0.0,0.0,0.0,0.0,0.0,0.0,0.0,0.0,0.0,0.0,0.0,0.0,0.0,0.0,0.0,0.0,0.0,0.0,0.0,0.0,0.0,0.0,0.0,0.0,0.0,0.0,0.0,0.0,0.0,0.0,0.0,0.0,0.0,0.0,0.0,0.0,0.0,0.0,0.0,0.0,0.0,0.0,0.0,0.0,0.0,0.0,0.0,0.0,0.0,0.0,0.0,0.0,0.0,0.0,0.0,0.0,0.0,0.0,0.0,0.0,0.0,0.0,0.0,0.0,0.0,0.0,0.0,0.0,0.0,0.0,0.0,0.0,0.0,0.0,0.0,0.0,0.0,0.0,0.0,0.0,0.0,0.0,0.0,0.0,0.0,0.0,0.0,0.0,0.0,0.0,0.0,0.0,0.0,0.0,0.0,0.0,0.0,0.0,0.0,0.0,0.0,0.0,0.0,0.0,0.0,0.0,0.0,0.0,0.0,0.0,0.0,0.0,0.0,0.0,0.0,0.0,0.0,0.0,0.0,0.0,0.0,0.0,0.0,0.0,0.0,0.0,0.0,0.0,0.0,0.0,0.0,0.0,0.0,0.0,0.0,0.0,0.0,0.0,0.0,0.0,0.0,0.0,0.0,0.0,0.0,0.0,0.0,0.0,0.0,0.0,0.0,0.0,0.0,0.0,0.0,0.0,0.0,0.0,0.0,0.0,0.0,0.0,0.0,0.0,0.0,0.0,0.0,0.0,0.0,0.0,0.0,0.0,0.0,0.0,0.0,0.0,0.0,0.0,0.0,0.0,0.0,0.0,0.0,0.0,0.0,0.0,0.0,0.0,0.0,0.0,0.0,0.0,0.0,0.0,0.0,0.0,0.0,0.0,0.0,0.0,0.0,0.0,0.0,0.0,0.0,0.0,0.0,0.0,0.0,0.0,0.0,0.0,0.0,0.0,0.0,0.0,0.0,0.0,0.0,0.0,0.0,0.0,0.0,0.0,0.0,0.0,0.0,0.0,0.0,0.0,0.0,0.0,0.0,0.0,0.0,0.0,0.0,0.0,0.0,0.0,0.0,0.0,0.0,0.0,0.0,0.0,0.0,0.0,0.0,0.0,0.0,0.0,0.0,0.0,0.0,0.0,0.0,0.0,0.0,0.0,0.0,0.0,0.0,0.0,0.0,0.0,0.0,0.0,0.0,0.0,0.0,0.0,0.0,0.0,0.0,0.0,0.0,0.0,0.0,0.0,0.0,0.0,0.0,0.0,0.0,0.0,0.0,0.0,0.0,0.0,0.0,0.0,0.0,0.0,0.0,0.0,0.0,0.0,0.0,0.0,0.0,0.0,0.0,0.0,0.0,0.0,0.0,0.0,0.0,0.0,0.0,0.0,0.0,0.0,0.0,0.0,0.0,0.0,0.0,0.0,0.0,0.0,0.0,0.0,0.0,0.0,0.0,0.0,0.0,0.0,0.0,0.0,0.0,0.0,0.0,0.0,0.0,0.0,0.0,0.0,0.0,0.0,0.0,0.0,0.0,0.0,0.0,0.0,0.0,0.0,0.0,0.0,0.0,0.0,0.0,0.0,0.0,0.0,0.0,0.0,0.0,0.0,0.0,0.0,0.0,0.0,0.0,0.0,0.0,0.0,0.0,0.0,0.0,0.0,0.0,0.0,0.0,0.0,0.0,0.0,0.0,0.0,0.0,0.0,0.0,0.0,0.0,0.0,0.0,0.0,0.0,0.0,0.0,0.0,0.0,0.0,0.0,0.0,0.0,0.0,0.0,0.0,0.0,0.0,0.0,0.0,0.0,0.0,0.0,0.0,0.0,0.0,0.0,0.0,0.0,0.0,0.0,0.0,0.0,0.0,0.0,0.0,0.0,0.0,0.0,0.0,0.0,0.0,0.0,0.0,0.0,0.0,0.0,0.0,0.0,0.0,0.0,0.0,0.0,0.0,0.0,0.0,0.0,0.0,0.0,0.0,0.0,0.0,0.0,0.0,0.0,0.0,0.0,0.0,0.0,0.0,0.0,0.0,0.0,0.0,0.0,0.0,0.0,0.0,0.0,0.0,0.0,0.0,0.0,0.0,0.0,0.0,0.0,0.0,0.0,0.0,0.0,0.0,0.0,0.0,0.0,0.0,0.0,0.0,0.0,0.0,0.0,0.0,0.0,0.0,0.0,0.0,0.0,0.0,0.0,0.0,0.0,0.0,0.0,0.0,0.0,0.0,0.0,0.0,0.0,0.0,0.0,0.0,0.0,0.0,0.0,0.0,0.0,0.0,0.0,0.0,0.0,0.0,0.0,0.0,0.0,0.0,0.0,0.0,0.0,0.0,0.0,0.0,0.0,0.0,0.0,0.0,0.0,0.0,0.0,0.0,0.0,0.0,0.0,0.0,0.0,0.0,0.0,0.0,0.0,0.0,0.0,0.0,0.0,0.0,0.0,0.0,0.0,0.0,0.0,0.0,0.0,0.0,0.0,0.0,0.0,0.0,0.0,0.0,0.0,0.0,0.0,0.0,0.0,0.0,0.0,0.0,0.0,0.0,0.0,0.0,0.0,0.0,0.0,0.0,0.0,0.0,0.0,0.0,0.0,0.0,0.0,0.0,0.0,0.0,0.0,0.0,0.0,0.0,0.0,0.0,0.0,0.0,0.0,0.0,0.0,0.0,0.0,0.0,0.0,0.0,0.0,0.0,0.0,0.0,0.0,0.0,0.0,0.0,0.0,0.0,0.0,0.0,0.0,0.0,0.0,0.0,0.0,0.0,0.0,0.0,0.0,0.0,0.0,0.0,0.0,0.0,0.0,0.0,0.0,0.0,0.0,0.0,0.0,0.0,0.0,0.0,0.0,0.0,0.0,0.0,0.0,0.0,0.0,0.0,0.0,0.0,0.0,0.0,0.0,0.0,0.0,0.0,0.0,0.0,0.0,0.0,0.0,0.0,0.0,0.0,0.0,0.0,0.0,0.0,0.0,0.0,0.0,0.0,0.0,0.0,0.0,0.0,0.0,0.0,0.0,0.0,0.0,0.0,0.0,0.0,0.0,0.0,0.0,0.0,0.0,0.0,0.0,0.0,0.0,0.0,0.0,0.0,0.0,0.0,0.0,0.0,0.0,0.0,0.0,0.0,0.0,0.0,0.0,0.0,0.0,0.0,0.0,0.0,0.0,0.0,0.0,0.0,0.0,0.0,0.0,0.0,0.0,0.0,0.0,0.0,0.0,0.0,0.0,0.0,0.0,0.0,0.0,0.0,0.0,0.0,0.0,0.0,0.0,0.0,0.0,0.0,0.0,0.0,0.0,0.0,0.0,0.0,0.0,0.0,0.0,0.0,0.0,0.0,0.0,0.0,0.0,0.0,0.0,0.0,0.0,0.0,0.0,0.0,0.0,0.0,0.0,0.0,0.0,0.0,0.0,0.0,0.0,0.0,0.0,0.0,0.0,0.0,0.0,0.0,0.0,0.0,0.0,0.0,0.0,0.0,0.0,0.0,0.0,0.0,0.0,0.0,0.0,0.0,0.0,0.0,0.0,0.0,0.0,0.0,0.0,0.0,0.0,0.0,0.0,0.0,0.0,0.0,0.0,0.0,0.0,0.0,0.0,0.0,0.0,0.0,0.0,0.0,0.0,0.0,0.0,4.5397,4.4048,0.0,0.0,0.0,0.0,0.0,0.0,0.0,0.0,0.0,0.0,0.0,0.0,0.0,0.0,0.0,0.0,0.0,0.0,0.0,0.0,0.0,0.0,0.0,0.0,0.0,0.0,0.0,0.0,0.0,0.0,0.0,0.0,0.0,0.0,0.0,0.0,0.0,3.9431,3.9908,4.0334,4.0754,4.0677,4.0251,3.954,0.0,0.0,0.0,0.0,0.0,0.0,0.0,0.0,0.0,0.0,0.0,0.0,0.0,0.0,0.0,0.0,0.0,0.0,0.0,0.0,0.0,0.0,0.0,0.0,0.0,0.0,0.0,0.0,0.0,0.0,0.0,0.0,0.0,0.0,0.0,0.0,0.0,0.0,0.0,0.0,0.0,0.0,0.0,0.0,0.0,0.0,0.0,0.0,0.0,0.0,0.0,0.0,0.0,0.0,0.0,0.0,0.0,0.0,0.0,0.0,0.0,0.0,0.0,0.0,0.0,0.0,0.0,0.0,0.0,0.0,4.855,4.6577,0.0,0.0,0.0,0.0,0.0,0.0,0.0,0.0,0.0,0.0,0.0,0.0,0.0,0.0,0.0,0.0,0.0,0.0,0.0,0.0,0.0,0.0,0.0,3.9392,3.95,3.9714,3.9608,3.957,3.972,0.0,0.0,0.0,0.0,0.0,3.9399,3.9399,3.9493,3.9662,4.0741,4.1687,4.24,4.237,4.1651,4.0421,4.0064,0.0,0.0,0.0,0.0,0.0,0.0,0.0,0.0,0.0,0.0,0.0,0.0,0.0,0.0,0.0,0.0,0.0,0.0,0.0,0.0,0.0,0.0,0.0,0.0,0.0,0.0,0.0,0.0,0.0,0.0,0.0,0.0,0.0,0.0,0.0,0.0,0.0,0.0,0.0,0.0,0.0,0.0,0.0,0.0,0.0,0.0,0.0,0.0,0.0,0.0,0.0,0.0,0.0,0.0,0.0,0.0,0.0,0.0,0.0,0.0,0.0,0.0,0.0,5.3679,5.4083,5.4216,5.4795,5.5023,5.481,5.2265,4.9885,4.7785,4.7838,0.0,0.0,0.0,0.0,0.0,0.0,0.0,0.0,0.0,0.0,0.0,0.0,0.0,0.0,0.0,0.0,0.0,0.0,0.0,3.9274,3.9386,3.9431,3.9795,4.0572,3.9984,3.9871,4.0578,0.0,0.0,0.0,0.0,3.9452,3.9382,3.9382,3.9821,4.0704,4.2397,4.3504,4.4097,4.4348,4.436,4.4039,4.2344,4.1607,4.1609,0.0,0.0,0.0,0.0,0.0,0.0,0.0,0.0,0.0,0.0,0.0,0.0,0.0,0.0,0.0,0.0,0.0,0.0,0.0,0.0,0.0,0.0,0.0,0.0,0.0,0.0,0.0,0.0,0.0,0.0,0.0,0.0,0.0,0.0,0.0,0.0,0.0,0.0,0.0,0.0,0.0,4.3983,4.4144,0.0,0.0,0.0,0.0,0.0,0.0,0.0,0.0,0.0,0.0,0.0,0.0,0.0,5.2982,5.3866,5.5348,5.643,5.7117,5.7239,5.7604,5.8219,5.8322,5.834,5.834,5.7911,0.0,5.0987,5.1129,0.0,0.0,0.0,0.0,0.0,0.0,0.0,0.0,0.0,0.0,0.0,0.0,0.0,0.0,0.0,0.0,0.0,0.0,0.0,0.0,0.0,4.0144,4.0507,4.1358,4.118,4.0948,4.0822,4.0522,0.0,0.0,3.9508,3.9471,3.9395,3.9933,4.1027,4.2755,4.4187,4.5146,4.5641,4.5923,4.6077,4.6077,4.5235,4.4096,4.2766,4.2331,0.0,0.0,0.0,0.0,0.0,0.0,0.0,0.0,0.0,0.0,0.0,0.0,0.0,0.0,0.0,0.0,0.0,0.0,0.0,0.0,0.0,0.0,0.0,0.0,0.0,0.0,0.0,0.0,0.0,0.0,0.0,0.0,0.0,0.0,0.0,0.0,0.0,0.0,0.0,4.4615,4.6503,4.6518,4.662,4.6332,0.0,0.0,0.0,0.0,0.0,0.0,0.0,0.0,0.0,5.4228,5.5756,5.7369,5.9064,5.9775,6.0531,6.1277,6.0791,6.077,6.1066,6.0547,6.0292,6.0292,6.0267,5.8788,5.6275,5.4987,5.2799,5.0251,0.0,0.0,0.0,0.0,4.9098,4.9828,0.0,0.0,0.0,0.0,0.0,0.0,0.0,0.0,0.0,0.0,0.0,0.0,4.0913,4.1234,4.183,4.2874,4.2862,4.2536,4.1889,4.1536,4.0907,3.9982,3.97,3.9651,3.9789,4.1355,4.3157,4.5215,4.6622,4.754,4.8024,4.807,4.823,4.8468,4.8108,4.6615,4.439,4.4131,4.315,4.1757,0.0,0.0,0.0,0.0,0.0,0.0,0.0,0.0,0.0,0.0,0.0,0.0,0.0,0.0,0.0,0.0,0.0,0.0,0.0,0.0,0.0,0.0,0.0,0.0,0.0,0.0,0.0,0.0,0.0,0.0,0.0,0.0,0.0,0.0,0.0,0.0,0.0,4.657,4.8668,4.9313,4.949,4.9273,0.0,0.0,0.0,0.0,0.0,0.0,5.3982,5.5267,5.7022,5.9438,6.0279,6.1661,6.3643,6.3857,6.4134,6.4485,6.3899,6.3579,6.3547,6.2864,6.2523,6.2523,6.2483,6.2011,6.1082,5.8492,5.6089,5.4083,5.4083,5.3669,5.3055,5.3055,5.3227,5.3574,0.0,0.0,0.0,0.0,0.0,0.0,0.0,0.0,0.0,0.0,0.0,4.095,4.1768,4.2755,4.4014,4.5631,4.5161,4.4718,4.46,4.3093,4.1829,4.0897,4.0164,4.0094,4.0804,4.4102,4.6554,4.8018,5.0031,5.1305,5.1798,5.1305,5.1478,5.2148,5.0574,4.8838,4.7046,4.6278,4.5445,4.443,4.2725,0.0,0.0,0.0,0.0,0.0,0.0,0.0,0.0,0.0,0.0,0.0,0.0,0.0,0.0,0.0,0.0,0.0,0.0,0.0,0.0,0.0,0.0,0.0,0.0,0.0,0.0,0.0,0.0,0.0,0.0,0.0,0.0,0.0,0.0,0.0,0.0,0.0,0.0,5.2644,5.3067,0.0,0.0,0.0,0.0,5.5047,5.6023,5.7555,5.9832,6.0056,6.1195,6.351,6.4379,6.5276,6.6198,6.6967,6.6911,6.6089,6.6052,6.5995,6.5917,6.5868,6.5868,6.5868,6.5868,6.5373,6.4308,6.1193,5.8977,5.7564,5.7564,5.7108,5.6453,5.6453,5.7013,5.7779,0.0,0.0,0.0,0.0,0.0,0.0,0.0,0.0,3.921,4.0015,4.0908,4.2033,4.3478,4.4462,4.5528,4.6717,4.6619,4.6038,4.4865,4.4339,4.3398,4.194,4.1597,4.2258,4.3888,4.611,4.777,4.8827,5.0333,5.1169,5.1462,5.1464,5.1798,5.2345,5.1788,5.1175,5.0451,4.8571,4.6986,4.5578,4.431,4.2731,0.0,0.0,0.0,0.0,0.0,0.0,0.0,0.0,0.0,0.0,0.0,0.0,0.0,0.0,0.0,0.0,0.0,0.0,0.0,0.0,0.0,0.0,0.0,0.0,0.0,0.0,0.0,0.0,0.0,0.0,0.0,0.0,0.0,0.0,0.0,0.0,0.0,5.5972,5.683,0.0,5.791,5.8021,5.8219,5.8653,6.0442,6.2078,6.3349,6.446,6.5906,6.7841,6.8071,6.8595,6.9427,6.963,6.9569,6.9223,6.8703,6.843,6.8419,6.7862,6.7639,6.7639,6.7639,6.7453,6.7082,6.5977,6.3929,6.1544,6.1544,6.1437,6.1277,6.0743,6.09,6.1233,0.0,0.0,0.0,0.0,0.0,0.0,0.0,3.9289,3.9638,4.046,4.1622,4.3182,4.5248,4.6547,4.7748,4.8933,4.8838,4.8029,4.6253,4.5683,4.4639,4.2905,4.3374,4.4549,4.642,4.8193,4.9614,5.0635,5.1518,5.2141,5.2512,5.2323,5.2564,5.3104,5.2611,5.2527,5.2633,5.0737,4.9199,4.7871,4.6897,4.5425,4.3623,0.0,0.0,0.0,0.0,0.0,0.0,0.0,0.0,0.0,0.0,0.0,0.0,0.0,0.0,0.0,0.0,0.0,0.0,0.0,0.0,0.0,0.0,0.0,0.0,0.0,0.0,0.0,0.0,0.0,0.0,0.0,0.0,0.0,0.0,5.4216,5.7239,5.9776,6.1071,6.1991,6.2513,6.2803,6.3035,6.3215,6.5047,6.6414,6.7086,6.8168,6.9414,7.077,7.0722,7.0933,7.1467,7.1367,7.1205,7.0895,7.0351,7.0091,7.0091,6.9571,6.9311,6.9311,6.9311,6.9311,6.9311,6.9311,6.8035,6.6075,6.5471,6.5199,6.5073,6.454,6.4352,6.4257,0.0,0.0,0.0,0.0,0.0,0.0,3.9379,3.9313,3.9612,4.0624,4.2329,4.4383,4.6962,4.8889,5.063,5.2253,5.1778,5.0659,4.8967,4.7289,4.5632,4.3934,4.5376,4.6873,4.822,5.0418,5.2187,5.341,5.3907,5.4526,5.5274,5.4126,5.4042,5.4689,5.3142,5.2908,5.3581,5.2868,5.2185,5.1515,5.0443,4.9048,4.722,0.0,0.0,0.0,0.0,0.0,0.0,0.0,0.0,0.0,0.0,0.0,0.0,0.0,0.0,0.0,0.0,0.0,0.0,0.0,0.0,0.0,0.0,0.0,0.0,0.0,0.0,0.0,0.0,0.0,0.0,0.0,0.0,0.0,5.5919,5.8662,6.1673,6.4036,6.5774,6.6742,6.6631,6.7356,6.8102,6.8898,6.9757,7.0531,7.1156,7.1231,7.1579,7.2283,7.2308,7.2308,7.2308,7.2321,7.1899,7.1044,7.1056,7.1056,7.1044,7.1044,7.1044,7.1044,7.1044,7.1044,7.1044,7.1056,7.1144,7.1069,6.926,6.8252,6.7726,6.7688,6.7358,6.6886,0.0,0.0,0.0,0.0,0.0,0.0,3.9202,3.973,4.0631,4.2039,4.4289,4.6503,4.8521,5.0327,5.1662,5.2189,5.1654,5.0761,4.9654,4.8623,4.782,4.7346,4.8593,4.9856,5.1046,5.2434,5.3445,5.3978,5.4453,5.4975,5.5579,5.5686,5.6036,5.659,5.6114,5.6047,5.6236,5.6032,5.5875,5.5473,5.2244,5.0558,4.9817,0.0,0.0,0.0,0.0,0.0,0.0,0.0,0.0,0.0,0.0,0.0,0.0,0.0,0.0,0.0,0.0,0.0,0.0,0.0,0.0,0.0,0.0,0.0,0.0,0.0,0.0,0.0,0.0,0.0,0.0,0.0,5.9443,6.1816,6.0294,6.3297,6.6405,6.8357,6.9962,7.1099,7.1711,7.1972,7.216,7.2249,7.3032,7.3528,7.3623,7.4181,7.4614,7.4797,7.4797,7.4797,7.4797,7.4927,7.4778,7.445,7.4542,7.4542,7.445,7.445,7.445,7.445,7.445,7.445,7.4463,7.4555,7.4619,7.4384,7.1492,7.0395,7.0356,6.9769,6.9147,6.8629,0.0,0.0,0.0,0.0,0.0,0.0,3.9181,3.9909,4.1106,4.273,4.5155,4.7588,4.9723,5.1522,5.2738,5.3218,5.2279,5.128,5.0352,4.9036,4.8805,4.9926,5.0771,5.1742,5.2935,5.4037,5.4738,5.5097,5.5452,5.5818,5.6214,5.6696,5.6931,5.6943,5.7216,5.7335,5.7303,5.7335,5.7345,5.7202,5.4813,5.357,5.3057,5.1802,5.0744,4.9792,4.8775,4.7895,4.7245,4.7042,0.0,0.0,0.0,0.0,0.0,0.0,0.0,0.0,0.0,0.0,0.0,0.0,0.0,0.0,0.0,0.0,0.0,0.0,0.0,0.0,0.0,0.0,0.0,0.0,6.4093,6.7018,6.6898,6.8803,7.0694,7.2061,7.3565,7.4809,7.5615,7.569,7.5515,7.5102,7.5498,7.5583,7.5132,7.554,7.5827,7.5881,7.5881,7.6067,7.6439,7.6133,7.6106,7.6358,7.6053,7.5867,7.5801,7.5801,7.5827,7.5867,7.5814,7.5827,7.5881,7.596,7.6025,7.5891,0.0,0.0,0.0,0.0,7.0901,7.0319,0.0,0.0,0.0,0.0,0.0,0.0,3.9222,4.0004,4.1267,4.3088,4.5409,4.792,5.0546,5.2209,5.3459,5.4309,5.2983,5.1737,5.0897,4.9238,4.9392,5.1826,5.227,5.2994,5.4166,5.5211,5.5947,5.6297,5.6671,5.692,5.7125,5.7645,5.7556,5.7015,5.7687,5.7913,5.7886,5.7921,5.7952,5.7952,5.7952,5.7316,5.627,5.5525,5.4706,5.3815,5.2728,5.1821,5.1168,5.0888,0.0,0.0,0.0,0.0,0.0,0.0,0.0,0.0,0.0,0.0,0.0,0.0,0.0,0.0,0.0,0.0,0.0,0.0,0.0,0.0,0.0,0.0,0.0,0.0,6.8513,7.2135,7.402,7.43,7.4596,7.5343,7.6709,7.7811,7.8513,7.848,7.8169,7.7547,7.7441,7.7107,7.6409,7.6358,0.0,0.0,0.0,7.6904,7.7713,7.6917,7.6864,7.7537,7.6757,7.6385,7.6385,7.626,7.629,7.6396,7.6215,7.6191,7.6297,7.6323,7.6414,7.6518,7.6368,7.5907,7.5194,7.3813,7.2883,7.2233,0.0,0.0,0.0,0.0,0.0,0.0,3.9161,4.0411,4.2009,4.3782,4.6094,4.8335,5.0297,5.1449,5.219,5.243,5.1552,5.1032,5.1042,5.1287,5.2036,5.3413,5.3863,5.4435,5.5267,5.5919,5.6249,5.6201,5.7619,5.8297,5.8384,6.0099,6.0783,6.0697,6.1213,6.1423,6.1406,6.1423,6.1431,6.1431,6.1431,5.9736,5.7203,5.6974,5.6344,5.5579,5.5091,5.4354,5.3607,5.3425,5.2728,5.1821,5.1258,5.0496,0.0,0.0,0.0,0.0,0.0,0.0,0.0,0.0,0.0,0.0,0.0,0.0,0.0,0.0,0.0,0.0,0.0,0.0,0.0,6.8932,7.176,7.4086,7.6323,7.7133,7.7835,7.8675,7.8995,7.9429,8.0165,7.9704,7.9525,7.9957,7.9468,7.9379,7.9954,7.9833,7.9833,8.0023,7.9875,7.9935,8.0283,8.006,8.0046,8.0256,8.0032,0.0,7.9958,7.9287,7.8966,7.8956,7.8403,7.8091,7.8038,7.8249,7.8428,7.8404,7.7041,7.6465,7.629,7.5988,7.5812,7.5624,0.0,0.0,0.0,0.0,0.0,0.0,4.0307,4.1458,4.2753,4.4065,4.6371,4.8434,4.9797,5.105,5.1645,5.1322,5.0844,5.0895,5.1714,5.2562,5.3756,5.5339,5.5728,5.64,5.7531,5.8032,5.844,5.8689,5.9845,6.0255,5.9998,6.129,6.1731,6.1477,6.2068,6.231,6.231,6.2816,6.2985,6.3023,6.3477,6.2437,6.0559,5.9959,5.9369,5.8942,5.8662,5.7726,5.665,5.6546,5.5669,5.4569,5.4321,5.37,5.2755,0.0,0.0,0.0,0.0,0.0,0.0,0.0,0.0,0.0,0.0,0.0,0.0,0.0,0.0,6.091,6.4462,0.0,6.8597,7.2424,7.4846,7.6791,7.8284,7.851,7.8945,8.0167,8.0256,8.0661,8.1822,8.1243,8.0793,8.073,8.0399,8.0252,8.0311,8.0561,8.0762,8.0954,8.0847,8.107,8.1601,8.114,8.114,8.1601,8.1154,8.0996,8.1078,8.0668,8.0485,8.0552,8.0128,7.9941,7.9968,8.0099,7.9928,7.9504,7.8679,7.7891,7.7239,7.7239,7.6965,7.6492,0.0,0.0,0.0,0.0,0.0,0.0,4.1563,4.238,4.3288,4.4184,4.6164,4.7908,4.8888,5.0108,5.0654,5.0193,5.0326,5.1039,5.2509,5.3613,5.5064,5.7005,5.7426,5.8189,5.9375,5.9795,6.0433,6.127,6.1792,6.1977,6.1783,6.2573,6.2668,6.2225,6.2852,6.3158,6.3205,6.3958,6.4287,6.4334,6.5053,6.4929,6.4256,6.319,6.2372,6.1816,6.1361,6.0374,5.9169,5.8937,5.8067,5.7082,5.7108,5.6687,5.5976,5.4903,5.3619,0.0,0.0,0.0,0.0,0.0,0.0,0.0,0.0,6.1334,6.3007,6.3334,6.458,6.6518,6.9401,7.1147,7.2911,7.5253,7.7378,7.907,8.0063,7.9754,7.9971,8.1501,8.1188,8.1427,8.3052,8.2618,8.2141,8.1823,8.1638,8.136,8.0923,8.1459,8.1754,8.1708,8.1694,8.1955,8.2506,8.1955,8.203,8.2767,8.2067,8.1811,8.1897,8.1585,8.1489,8.1519,8.1262,8.1187,8.1268,8.1294,8.0843,8.0104,7.9981,7.9186,7.8079,7.8066,7.7542,7.6843,0.0,0.0,0.0,0.0,0.0,0.0,0.0,0.0,4.3237,4.4095,4.5125,4.6135,4.7079,4.7304,4.7603,4.8258,4.9608,5.125,5.3265,5.4762,5.6217,5.7645,5.8389,5.8882,5.9045,5.9224,6.0044,6.1462,6.1762,6.2605,6.3897,6.5207,6.58,6.573,6.6305,6.6568,6.6568,6.6653,6.6701,6.6738,6.6814,6.6678,6.6292,6.5462,6.3859,6.191,6.0696,6.0149,5.9841,5.901,5.908,5.9398,5.8815,5.8617,5.8312,5.678,5.5788,5.5298,5.5856,5.7551,5.9485,6.0693,6.215,6.3606,0.0,6.6739,6.8468,6.9839,7.0475,7.149,7.3922,7.4036,7.4706,7.77,7.8599,7.9629,8.1799,8.2186,8.2792,8.4355,8.237,8.1514,8.3117,8.3227,8.3761,8.5224,8.4659,8.4647,8.5498,8.5507,8.5236,8.4628,8.4517,8.4181,8.3631,8.4181,8.4554,8.4792,8.4554,8.4461,8.4438,8.2929,8.2202,8.2091,8.1294,8.0824,8.0711,8.0889,8.0631,8.0045,7.9502,7.908,7.8763,7.8637,7.8548,7.8348,0.0,0.0,0.0,0.0,0.0,0.0,0.0,0.0,4.3871,4.4251,4.5028,4.5664,4.6157,4.6172,4.6682,4.8002,4.9137,5.0907,5.3565,5.6043,5.794,5.9256,6.0512,6.1286,6.1589,6.1666,6.2407,6.3875,6.3991,6.4623,6.5736,6.6314,6.6598,6.6609,6.6886,6.6987,6.7025,6.7477,6.7743,6.7831,6.8261,6.8107,6.7502,6.6516,6.5038,6.3276,6.2021,6.0571,0.0,5.9377,5.9361,5.9359,5.9631,5.9692,5.9582,5.8947,5.7885,5.7229,5.8521,6.102,6.3566,6.4897,6.7149,6.93,7.0499,7.239,7.4182,7.5012,7.5587,7.6426,7.7921,7.8357,7.8924,8.0149,8.1214,8.223,8.3102,8.3284,8.3567,8.4152,8.3034,8.2881,8.45,8.4015,8.4008,8.5002,8.4505,8.4604,8.5499,8.5885,8.5946,8.5681,8.5176,8.4643,8.4141,8.4316,8.4414,8.4347,8.4663,8.4595,8.4257,8.3537,8.2913,8.2408,8.2038,8.1845,8.1785,8.186,8.1399,8.0644,8.0389,7.9922,7.9277,7.843,7.8062,7.7969,0.0,0.0,0.0,0.0,0.0,0.0,0.0,0.0,0.0,0.0,4.4804,4.523,4.5345,4.5359,4.6035,4.7725,4.8759,5.0608,5.37,5.6588,5.8866,6.0317,6.1876,6.2968,6.3538,6.3538,6.4222,6.5668,6.5615,6.6123,6.712,6.7321,6.7546,6.7782,6.784,6.8042,6.8257,6.887,6.9035,6.8947,6.9476,6.9121,6.806,6.6785,6.5161,6.3516,6.2294,6.0375,5.8483,5.8824,5.8584,5.8358,5.9318,5.9582,5.9592,5.9921,5.9681,5.9683,6.1477,6.4329,6.7262,6.9109,7.1682,7.4163,7.5682,7.7231,7.8562,7.9411,7.95,7.9694,8.0543,8.0912,8.1188,8.1535,8.2663,8.3683,8.4191,8.4458,8.4581,8.4421,8.4342,8.4717,8.5702,8.4887,8.4672,8.5614,8.5303,8.53,8.5836,8.6318,8.6408,8.614,8.5544,8.5031,8.4567,8.4651,8.46,8.449,8.4899,8.4882,8.4389,8.3898,8.3219,8.246,8.246,8.2397,8.2318,8.2365,8.1891,8.1082,8.091,8.041,7.9584,7.8411,7.8036,7.8075,0.0,0.0,0.0,0.0,0.0,0.0,0.0,0.0,0.0,0.0,0.0,4.4407,4.4505,4.4526,4.5202,4.6892,4.8421,5.0608,5.37,5.6114,5.829,6.0231,6.1841,6.2974,6.3598,6.3598,6.4329,6.5899,6.5714,6.6385,6.7886,6.8593,6.9364,7.0211,7.0323,7.0818,7.1569,7.1558,7.1156,7.0453,7.0453,6.9477,6.7814,6.6095,6.3917,6.1629,6.0422,5.9065,5.7705,5.6805,5.6437,5.6546,5.7572,5.7854,5.806,5.8979,6.089,6.314,6.4892,6.7691,7.0747,7.3374,7.5256,7.7297,8.0469,8.0661,8.0858,8.3091,8.1835,8.0597,8.1329,8.0272,7.9782,8.134,8.1815,8.2779,8.5037,8.6138,8.6564,8.6156,8.6749,8.6937,8.6322,8.5825,8.6393,8.8492,8.8354,8.8151,8.8129,8.7836,8.7195,8.6241,8.6168,8.5782,8.5007,8.5729,8.6135,8.6135,8.6156,8.6091,8.5852,8.4141,8.2884,8.2129,8.2129,8.1932,8.163,8.1852,8.1598,8.1037,8.0468,8.0089,7.9787,7.8954,7.9069,7.9528,0.0,0.0,0.0,0.0,0.0,0.0,0.0,0.0,0.0,0.0,0.0,0.0,0.0,0.0,0.0,0.0,4.73,4.9506,5.249,5.5147,5.7693,6.0203,6.1452,6.2445,6.3105,6.3042,6.4001,6.6016,6.5948,6.6881,6.876,6.9039,6.9277,6.9588,6.9632,6.9793,7.0045,6.993,6.9502,6.8817,6.8741,6.775,6.6151,6.4397,6.2223,5.9815,0.0,5.6182,5.5314,5.4969,5.4913,5.5137,5.5986,5.6641,5.7445,5.942,6.1479,6.3736,6.6577,6.9434,7.2385,7.5777,7.8318,8.0605,8.3264,8.3735,8.3854,8.4653,8.2903,8.1272,8.1437,8.0463,7.9878,8.0662,8.1881,8.3287,8.4935,8.6096,8.6275,8.5086,8.528,8.5357,8.5013,8.5386,8.6315,8.7826,8.7591,8.7591,8.8035,8.7941,8.7688,8.7216,8.6682,8.6114,8.5474,8.5597,8.5573,8.5349,8.5242,8.4898,8.4335,8.3841,8.3113,8.228,8.2949,8.2788,8.2067,8.2298,8.1935,8.1269,8.1169,8.1008,8.0869,8.07,8.0711,8.0614,0.0,0.0,0.0,0.0,0.0,0.0,0.0,0.0,0.0,0.0,0.0,0.0,0.0,0.0,0.0,0.0,0.0,4.8316,5.0715,5.35,5.6043,5.828,5.9541,6.0712,6.1915,6.1434,6.2147,6.4092,6.4316,6.5309,6.6971,6.7464,6.8049,6.8714,6.8758,6.893,6.9181,6.8816,6.8227,6.7513,6.6828,6.5612,6.3936,6.1914,5.9796,0.0,5.5003,5.3546,5.2983,5.3509,5.3742,5.4011,5.515,5.6713,5.8597,6.1071,6.3317,6.5729,6.9088,7.1858,7.4697,7.8337,8.0812,8.3007,8.5366,8.5397,8.5001,8.5286,8.297,8.0846,8.0695,7.9608,7.8937,7.9644,8.1204,8.2939,8.4664,8.5966,8.6226,8.475,8.4959,8.4982,8.4453,8.5189,8.628,8.757,8.7328,8.7295,8.7672,8.7591,8.7427,8.7245,8.6712,8.645,8.64,8.626,8.6082,8.5864,8.5791,8.5153,8.4028,8.4155,8.372,8.2885,8.3448,8.3357,8.2813,8.2684,8.2301,8.181,8.1656,8.1564,8.1478,8.1581,8.1547,8.1261,0.0,0.0,0.0,0.0,0.0,0.0,0.0,0.0,0.0,0.0,0.0,0.0,0.0,0.0,0.0,0.0,0.0,0.0,4.8487,5.1197,5.3367,5.4661,5.6162,5.7868,5.9823,5.8818,5.8908,6.022,6.0869,6.1748,6.2831,6.4202,6.575,6.7481,6.761,6.8114,6.8779,6.8002,6.7176,6.6285,6.467,6.3017,6.1196,5.869,5.6751,5.5096,5.2686,5.1332,5.0909,5.2432,5.3012,5.3445,5.5289,5.8137,6.1241,6.3756,6.6381,6.9148,7.2423,7.5029,7.7594,8.0862,8.2806,8.4496,8.675,8.5738,8.4501,8.4981,8.2029,7.9246,7.8946,7.7569,7.6911,7.8198,7.9861,8.1786,8.4078,8.5844,8.6454,8.5188,8.5817,8.5891,8.4734,8.5406,8.6498,8.7974,8.7734,8.7435,8.7251,8.6999,8.6754,8.6556,8.6538,8.6903,8.7651,8.7669,8.7632,8.7596,8.7596,8.6684,8.5009,8.5046,8.461,8.3828,8.3701,8.372,8.381,8.301,8.2646,8.2555,8.1909,8.1613,8.1596,8.1649,8.1613,8.1486,0.0,0.0,0.0,0.0,0.0,0.0,0.0,0.0,0.0,0.0,0.0,0.0,0.0,0.0,0.0,0.0,0.0,0.0,4.6746,4.8541,5.0466,5.2504,5.3352,5.4323,5.5549,5.5127,5.5482,5.6621,5.7729,5.893,6.0284,6.1718,6.2656,6.3092,6.3313,6.3496,6.3683,6.3458,6.2519,6.1177,6.0755,5.9215,5.7028,5.5763,5.4271,5.2748,5.2123,5.1389,5.085,5.1869,5.3932,5.6506,5.8803,6.1089,6.3504,6.6437,6.869,7.1028,7.4751,7.7185,7.925,8.178,8.4031,8.5783,8.6307,8.5558,8.4301,8.2538,7.8867,7.5781,7.4941,7.4217,7.4095,7.5334,7.8543,8.1416,8.3015,8.5348,8.659,8.5717,8.6643,8.7096,8.642,8.6874,8.7704,8.8949,8.8397,8.7997,8.7945,8.8428,8.8634,8.8399,8.8399,8.8472,8.8563,8.8563,8.8216,8.7596,8.7485,8.6592,8.5009,8.5555,8.5336,8.4517,8.53,8.5191,8.4427,8.4023,8.3435,8.2711,8.2232,8.1935,8.1835,8.1969,8.1935,8.1799,0.0,0.0,0.0,0.0,0.0,0.0,0.0,0.0,0.0,0.0,0.0,0.0,0.0,0.0,0.0,0.0,0.0,0.0,0.0,4.6256,4.7644,4.9068,4.9531,5.0405,5.1718,5.098,5.1347,5.2918,5.3423,5.4458,5.5904,5.6967,5.7707,5.8189,5.8746,5.8972,5.8981,5.8662,5.8014,0.0,0.0,5.5235,5.3875,5.3095,5.2193,5.1367,5.1367,5.2494,5.4196,5.5892,5.7975,6.0414,6.3639,6.5604,6.7282,7.0064,7.207,7.4017,7.6931,7.889,8.0616,8.2616,8.3949,8.4898,8.5193,8.3605,8.141,7.9304,7.5893,7.2991,7.1996,7.1826,7.2503,7.4401,7.7905,8.097,8.2708,8.5495,8.7044,8.625,8.7437,8.8113,8.7543,8.8097,8.8726,8.9364,8.8959,8.872,8.872,8.9143,8.9346,8.9257,8.922,8.9386,8.9642,8.9934,8.944,8.8235,8.8069,8.7138,8.5482,8.601,8.5955,8.55,8.6101,8.6101,8.5501,8.4654,8.3993,8.3376,8.2528,8.2137,8.2055,8.2154,8.2137,8.2055,0.0,0.0,0.0,0.0,0.0,0.0,0.0,0.0,0.0,0.0,0.0,0.0,0.0,0.0,0.0,0.0,0.0,0.0,0.0,0.0,4.5086,4.5389,4.5729,4.6636,4.8294,4.7019,4.7249,4.92,4.892,4.9498,5.083,5.1494,5.2325,5.3237,5.4158,5.4529,5.4501,5.3922,5.3636,5.3411,5.2053,5.1461,5.1289,0.0,5.0531,5.0689,5.0908,5.4028,5.8501,6.1555,6.3191,6.4669,6.8665,7.0485,7.1619,7.3951,7.5696,7.7267,7.8937,8.0376,8.1746,8.3173,8.3178,8.301,8.3555,8.0651,7.7371,7.5774,7.2842,7.037,6.9616,6.9991,7.1357,7.4188,7.7517,8.0486,8.2588,8.5792,8.7669,8.6994,8.8396,8.9203,8.8659,8.9258,8.9712,8.973,8.973,8.9657,8.9546,8.9657,8.973,8.973,8.9712,9.0024,9.0685,9.1235,9.0703,8.9093,8.8929,8.7905,8.6192,8.632,8.6411,8.6411,8.6411,8.6501,8.6533,8.5086,8.4481,8.4317,8.2928,8.237,8.2333,8.2223,8.2186,8.2186,0.0,0.0,0.0,0.0,0.0,0.0,0.0,0.0,0.0,0.0,4.2664,4.2348,0.0,0.0,0.0,0.0,0.0,0.0,0.0,0.0,0.0,4.3782,4.4126,4.4597,4.5247,4.4985,4.5058,4.5447,4.6428,4.701,4.7327,4.8611,4.9353,4.9556,4.992,5.0127,5.009,5.0004,4.952,4.8907,4.9271,4.9131,4.8723,4.9089,0.0,0.0,5.2023,5.4791,5.8408,6.2537,6.5607,6.8247,7.1435,7.3237,7.4512,7.6374,7.768,7.8912,8.0812,8.1942,8.2657,8.2963,8.285,8.234,8.1178,7.834,7.5309,7.2943,6.9441,6.6924,6.7204,6.7986,6.95,7.2299,7.66,8.0103,8.1648,8.541,8.8143,8.8618,9.0117,9.1106,9.1162,9.1143,9.118,9.1345,9.1363,9.1106,9.0445,9.1033,9.1363,9.1363,9.1199,9.1198,9.1344,9.1454,9.0703,8.9093,8.9057,8.818,8.659,8.6447,8.6411,8.6429,8.6591,8.6554,8.6392,8.5795,8.5427,8.5142,8.3754,8.3197,8.3087,8.2443,8.2186,8.2186,0.0,0.0,0.0,0.0,0.0,0.0,0.0,4.2111,4.2404,4.2348,4.2061,4.1881,4.1945,4.1878,4.1785,0.0,0.0,0.0,0.0,0.0,0.0,4.2401,4.2356,4.2566,4.3009,4.278,4.2902,4.3529,0.0,4.4349,4.4653,4.5535,4.5963,4.5971,4.6632,4.6911,4.6949,4.7478,4.7466,4.7161,4.7933,4.8103,4.7976,4.9111,0.0,0.0,5.2772,5.5122,5.8379,6.247,6.5517,6.8509,7.3307,7.5082,7.5897,7.8419,7.9179,7.9635,8.1709,8.2362,8.2431,8.2167,8.1348,8.0157,7.8588,7.535,7.2142,7.0123,6.6947,6.4847,6.5805,6.6748,6.8448,7.1793,7.5967,7.9457,8.147,8.5227,8.8125,8.902,9.052,9.1583,9.1785,9.173,9.1712,9.1803,9.1803,9.162,9.1253,9.1583,9.1803,9.1803,9.1712,9.1675,9.1675,9.1564,9.0703,8.9093,8.8984,8.8107,8.6518,8.6536,8.6573,8.6591,8.6786,8.6803,8.666,8.6045,8.5732,8.5517,8.3971,8.3381,8.3308,8.248,8.2186,8.2186,0.0,0.0,0.0,0.0,0.0,0.0,0.0,4.1916,4.2394,4.1945,4.1721,4.1623,4.1602,4.1817,4.1698,0.0,0.0,0.0,0.0,0.0,0.0,0.0,0.0,0.0,4.1655,0.0,0.0,4.2504,4.2297,0.0,0.0,0.0,0.0,0.0,4.4331,4.4694,4.4739,4.5724,4.6099,0.0,0.0,4.7607,4.7827,0.0,0.0,0.0,0.0,5.4894,5.7569,6.1114,6.3814,6.6692,7.2414,7.4759,7.6018,7.8917,7.9581,7.9772,8.1799,8.2244,8.1956,8.1457,7.9962,7.8186,7.6444,7.2815,6.9408,6.7873,6.5109,6.3357,6.4689,6.5705,6.7564,7.1187,7.4863,7.8217,8.0934,8.4476,8.7231,8.8453,9.0118,9.1253,9.1528,9.1657,9.1767,9.1803,9.1803,9.1803,9.1803,9.1803,9.1803,9.1803,9.1767,9.1749,9.1749,9.1583,9.0777,8.935,8.9094,8.8198,8.6811,8.6771,8.6768,8.6786,8.6925,8.6978,8.6941,8.6334,8.604,8.5894,8.4499,8.3821,8.3564,8.2737,8.2333,8.2186,0.0,0.0,0.0,0.0,0.0,0.0,0.0,4.1717,4.2454,4.253,4.2401,4.2033,4.1324,4.1221,4.1267,0.0,0.0,0.0,0.0,0.0,0.0,0.0,0.0,0.0,0.0,0.0,0.0,4.2236,4.2216,0.0,0.0,0.0,0.0,0.0,0.0,4.3651,4.3687,4.4532,0.0,0.0,0.0,0.0,0.0,0.0,0.0,0.0,0.0,5.3535,5.4959,5.781,6.0262,6.2666,6.608,7.0269,7.4266,7.625,7.7889,7.9406,8.0763,8.1621,8.1944,8.1193,7.9709,7.7829,7.5494,7.1856,6.853,6.6806,6.3984,6.2251,6.353,6.4571,6.6283,6.9346,7.2517,7.5685,7.8993,8.2169,8.4845,8.6716,8.8838,9.03,9.0666,9.1199,9.162,9.1785,9.1803,9.1803,9.1803,9.1803,9.1803,9.1803,9.1638,9.1546,9.1546,9.1527,9.1069,9.0173,8.9604,8.8869,8.8007,8.729,8.696,8.696,8.6978,8.6978,8.6978,8.6904,8.6885,8.6794,8.593,8.5123,8.4389,8.3601,8.2847,8.2186,0.0,0.0,0.0,0.0,0.0,0.0,4.0166,4.1144,4.1867,4.2046,4.1917,4.1615,4.1093,4.1082,4.1117,4.1128,0.0,0.0,0.0,0.0,0.0,0.0,0.0,0.0,0.0,0.0,4.1402,4.1734,4.1839,0.0,0.0,0.0,0.0,0.0,0.0,4.3763,4.4268,4.5076,0.0,0.0,0.0,0.0,0.0,0.0,0.0,0.0,0.0,0.0,5.3224,5.5809,5.7324,5.8692,6.1655,6.4635,6.8132,7.3387,7.5524,7.6832,8.0023,8.0915,8.0915,8.0837,7.9245,7.7022,7.4566,7.0921,6.7559,6.5861,6.3494,6.2109,6.3481,6.4531,6.5902,6.7996,7.1295,7.4441,7.6877,8.0366,8.3305,8.5051,8.7409,8.9,8.9143,9.0263,9.1199,9.1767,9.1803,9.1803,9.1803,9.1803,9.1803,9.1803,9.173,9.1694,9.1694,9.1694,9.129,9.0465,8.9731,8.8959,8.8169,8.7362,8.6978,8.6978,8.6978,8.6978,8.6978,8.6978,8.6978,8.6904,8.6114,8.56,8.5159,8.3858,8.3197,8.2847,0.0,0.0,0.0,0.0,0.0,3.8936,3.9584,4.0609,4.1417,4.1607,4.1673,4.1522,4.1105,4.129,4.1348,4.0988,4.1379,0.0,0.0,0.0,0.0,0.0,0.0,0.0,0.0,0.0,4.1152,4.1255,4.1424,4.1796,0.0,0.0,4.3041,4.3506,0.0,0.0,0.0,0.0,0.0,0.0,0.0,0.0,0.0,0.0,0.0,0.0,0.0,0.0,0.0,0.0,0.0,5.5891,5.8266,6.0061,6.2697,6.9825,7.2638,7.4216,7.8028,7.9183,7.9258,7.9016,7.7754,7.5767,7.2827,6.976,6.6998,6.5034,6.3215,6.2277,6.3192,6.4357,6.5662,6.7218,7.0325,7.3289,7.5623,7.8723,8.1486,8.3453,8.5884,8.7512,8.7839,8.9528,9.0922,9.173,9.1803,9.1803,9.1803,9.1803,9.1803,9.1803,9.1803,9.1803,9.1803,9.1803,9.151,9.0959,8.9913,8.9106,8.8536,8.7455,8.6978,8.6978,8.6978,8.6978,8.6978,8.6978,8.6978,8.6941,8.6371,8.6004,8.5654,8.4535,8.3821,8.3308,0.0,0.0,0.0,0.0,0.0,0.0,3.8895,4.0229,4.1242,4.1394,4.1989,4.2161,4.1462,4.1998,4.2032,4.1174,4.1093,0.0,0.0,0.0,0.0,0.0,0.0,0.0,0.0,0.0,4.1094,4.0894,4.1047,4.1458,4.2216,4.2216,4.2684,4.3543,0.0,0.0,0.0,0.0,0.0,0.0,0.0,0.0,0.0,0.0,0.0,0.0,0.0,0.0,0.0,0.0,0.0,0.0,0.0,5.7017,5.915,6.5274,6.9207,7.205,7.4361,7.6063,7.6856,7.5348,7.4948,7.3902,6.995,6.8355,6.695,6.4336,6.3176,6.2552,6.2446,6.3733,6.5391,6.72,6.9354,7.2056,7.5607,7.7228,7.9084,8.1897,8.4183,8.5907,8.6923,8.9197,9.0922,9.173,9.1803,9.1803,9.1803,9.1803,9.1803,9.1803,9.1803,9.1803,9.1803,9.1803,9.1803,9.1767,9.017,8.94,8.9326,8.7711,8.6978,8.6978,8.6978,8.6978,8.6978,8.6978,8.6978,8.6978,8.6978,8.6518,8.58,8.58,8.4756,8.3381,0.0,0.0,0.0,0.0,0.0,0.0,0.0,3.9554,3.9735,4.0252,4.0162,4.0131,4.0227,4.0493,4.0759,4.0953,4.1094,0.0,0.0,0.0,0.0,0.0,0.0,0.0,0.0,0.0,4.1547,4.1244,4.1413,4.2078,4.3161,4.3161,4.3871,4.5149,4.5406,4.5838,0.0,0.0,0.0,0.0,0.0,0.0,5.0707,0.0,0.0,0.0,0.0,0.0,0.0,0.0,0.0,0.0,0.0,0.0,0.0,6.0325,6.4199,6.8255,7.1507,7.354,7.4752,7.4807,7.3599,7.1886,7.0056,6.7684,6.5524,6.4103,6.3152,6.2616,6.2654,6.3595,6.4854,6.6556,6.8349,7.0615,7.3874,7.5706,7.761,8.0064,8.3061,8.5862,8.8409,8.9326,9.0317,9.1693,9.1803,9.1803,9.1803,9.1803,9.1803,9.1803,9.1803,9.1803,9.1803,9.1803,9.1803,9.1767,9.017,8.94,8.9363,8.7711,8.6978,8.6978,8.6978,8.6978,8.6978,8.6978,8.6978,8.6978,8.6978,8.6831,8.6554,8.6004,8.549,8.4866,0.0,0.0,0.0,0.0,0.0,0.0,0.0,3.8824,3.8835,3.9135,3.8979,3.8989,3.9408,3.9686,4.0009,4.047,4.0874,0.0,0.0,0.0,0.0,0.0,0.0,0.0,0.0,4.1777,4.2005,4.2035,4.2168,4.2946,4.4267,4.4094,4.4706,4.592,4.6214,4.6645,0.0,0.0,0.0,0.0,0.0,0.0,5.0986,0.0,0.0,0.0,0.0,0.0,0.0,0.0,0.0,0.0,0.0,0.0,0.0,0.0,6.0046,6.3334,6.7448,6.9335,7.0363,7.1068,6.9865,6.8304,6.7469,6.5486,6.3632,6.307,6.257,6.2338,6.2743,6.3503,6.4653,6.6219,6.7871,6.9995,7.3135,7.5042,7.7295,8.0573,8.3404,8.6187,8.9106,8.94,9.006,9.1693,9.1803,9.1803,9.1803,9.1803,9.1803,9.1803,9.1803,9.1803,9.1803,9.151,9.1363,9.1326,8.9711,8.8959,8.8886,8.7601,8.6978,8.6978,8.6978,8.6978,0.0,8.6978,8.6978,8.6978,8.6978,8.6978,8.6958,8.6444,8.5857,8.5196,0.0,0.0,0.0,0.0,0.0,0.0,0.0,3.8065,3.8396,3.8158,3.8296,3.8567,3.8866,3.9372,3.9721,3.9881,0.0,0.0,0.0,0.0,0.0,0.0,0.0,0.0,4.1414,4.1863,4.2466,4.3112,4.314,4.3938,4.5496,4.5009,4.5239,4.6104,4.6865,4.7186,0.0,0.0,0.0,0.0,5.0141,5.0802,0.0,0.0,0.0,0.0,0.0,0.0,0.0,0.0,0.0,0.0,0.0,0.0,0.0,0.0,0.0,0.0,0.0,6.3921,6.4452,6.5132,6.4597,6.3768,6.3145,6.2201,0.0,6.1594,6.1606,6.1851,6.2646,6.3466,6.453,6.6219,6.7797,6.9963,7.323,7.5249,7.8112,8.283,8.4756,8.6664,8.9069,8.9363,9.0024,9.1583,9.1767,9.1803,9.1803,9.1803,9.1803,9.1803,9.1803,9.1767,9.173,9.0941,9.0574,9.0519,8.8923,8.8189,8.8169,8.7362,8.6978,8.6978,8.6978,8.6978,8.6978,8.6978,8.6978,8.6978,8.6978,8.6978,8.6978,8.6978,8.604,8.4682,0.0,0.0,0.0,0.0,0.0,0.0,0.0,0.0,0.0,0.0,3.7149,3.7226,3.7869,3.8852,3.9562,0.0,0.0,0.0,0.0,0.0,0.0,0.0,0.0,0.0,4.1549,4.2065,4.267,4.3337,4.3368,4.4448,4.646,4.5889,4.637,4.7755,4.7929,4.8003,0.0,0.0,0.0,0.0,5.0141,5.0802,0.0,0.0,0.0,0.0,5.3214,5.3114,0.0,0.0,0.0,0.0,0.0,0.0,0.0,0.0,5.5103,5.5619,5.7194,0.0,6.2635,6.4043,6.3278,6.2285,0.0,6.1703,6.086,6.1484,6.1606,6.1851,6.2646,6.2976,6.3857,6.6145,6.732,6.9302,7.3171,7.6732,8.0021,8.3051,8.4278,8.582,8.8243,8.9033,8.9803,9.0812,9.1436,9.1803,9.1803,9.1803,9.1803,9.1803,9.1803,9.151,9.0886,9.0612,9.0191,8.9657,8.8524,8.8065,8.8169,8.7362,8.6978,8.6978,8.6978,8.6978,8.6978,8.6978,8.6978,8.6978,8.6978,8.6978,8.6978,8.6978,8.6371,8.5416,0.0,0.0,0.0,0.0,0.0,0.0,0.0,0.0,0.0,0.0,0.0,0.0,0.0,0.0,0.0,0.0,0.0,0.0,0.0,0.0,0.0,0.0,0.0,4.1668,4.1734,4.2348,4.3152,4.4083,4.4284,4.5377,4.7249,4.6907,4.7316,4.8296,4.8296,4.8296,0.0,0.0,0.0,0.0,5.0141,0.0,0.0,0.0,0.0,0.0,5.2774,5.2884,0.0,5.2784,5.2884,5.3214,0.0,0.0,0.0,0.0,5.3946,5.4228,5.5324,5.7248,5.9371,6.0921,6.0603,6.0162,6.0958,6.0187,5.9648,6.0823,6.1043,6.152,6.3099,6.3392,6.42,6.6659,6.8031,7.0491,7.5249,7.8825,8.1636,8.3728,8.5013,8.6371,8.8023,8.8923,8.973,9.0555,9.1363,9.1803,9.1803,9.1803,9.162,9.1253,9.118,9.0942,9.0502,9.0045,8.9441,8.8688,8.7686,8.7338,8.7496,8.7057,8.6856,8.6873,8.6943,8.6978,8.6978,8.6978,8.6978,8.6978,8.6978,8.6978,8.6978,8.6978,8.6209,8.504,0.0,0.0,0.0,0.0,0.0,0.0,0.0,0.0,0.0,0.0,0.0,0.0,0.0,0.0,0.0,0.0,0.0,0.0,0.0,0.0,0.0,0.0,4.1677,4.1913,4.1998,4.2645,4.3652,4.4998,4.5283,4.6276,4.7895,4.7834,4.7975,4.8296,4.8296,4.8296,0.0,0.0,0.0,4.8443,5.0141,0.0,0.0,0.0,0.0,0.0,0.0,0.0,0.0,5.227,5.2454,5.2994,5.2884,0.0,0.0,0.0,0.0,0.0,5.4997,5.5647,5.6261,5.7929,5.818,5.8253,5.9159,5.8657,5.8474,6.0089,6.0419,6.1153,6.3662,6.4213,6.5057,6.748,6.9633,7.2826,7.8038,8.0755,8.281,8.4425,8.593,8.7142,8.7949,8.8849,8.9693,9.0354,9.1289,9.1803,9.1803,9.1693,9.1289,9.0629,9.0338,9.0136,8.9953,8.9222,8.8436,8.7649,8.6793,8.6447,8.6643,8.6643,8.6643,8.6643,8.6838,8.6891,8.6908,8.6925,8.6943,8.6943,8.6833,8.6759,8.6759,8.6615,8.5485,8.4046,0.0,0.0,0.0,0.0,0.0,0.0,0.0,0.0,0.0,0.0,0.0,0.0,0.0,0.0,0.0,0.0,0.0,0.0,0.0,0.0,0.0,4.2061,4.1849,4.1966,4.25,4.2768,4.3748,4.5481,4.544,4.6424,4.839,4.7975,4.7975,4.8296,4.8296,4.8296,4.8296,0.0,0.0,4.8443,5.0141,0.0,0.0,0.0,0.0,0.0,0.0,0.0,0.0,5.227,5.2097,5.205,5.1389,0.0,0.0,0.0,0.0,0.0,5.4326,5.5078,5.6365,5.9294,5.9024,5.84,5.9869,5.9061,5.8474,6.0089,6.0419,6.1153,6.3662,6.464,6.5912,6.8311,7.2349,7.6203,7.9192,8.1101,8.281,8.4425,8.5416,8.6297,8.7105,8.8519,8.9436,8.9583,9.0959,9.1803,9.1803,9.1143,9.0739,9.0592,8.9751,8.8874,8.8016,8.7777,8.7303,8.6647,8.6301,8.6247,8.6465,8.6465,8.6465,8.6465,8.6501,8.6501,8.6519,8.6697,8.6768,8.6695,8.5999,8.5706,8.5616,8.4854,8.3891,8.2909,0.0,0.0,0.0,0.0,0.0,0.0,0.0,0.0,0.0,0.0,0.0,0.0,0.0,0.0,0.0,0.0,0.0,0.0,0.0,0.0,4.2318,4.2557,4.2428,4.2458,4.2775,4.3486,4.4381,4.5375,4.6013,4.7102,4.8652,4.8739,4.8619,4.8296,4.8296,4.8296,4.8296,4.8296,4.8296,4.8443,0.0,0.0,0.0,0.0,0.0,0.0,0.0,0.0,0.0,0.0,5.1353,5.1279,5.0912,0.0,0.0,0.0,0.0,0.0,5.4594,5.5328,5.6282,5.9049,5.9196,5.8829,5.9563,5.9538,5.9758,6.1361,6.1692,6.2585,6.5498,6.6696,6.8591,7.2775,7.6056,7.8956,8.1415,8.2774,8.3911,8.5123,8.5967,8.6775,8.7582,8.8316,8.8887,8.922,9.0006,9.0465,9.0337,9.008,8.9694,8.9147,8.86,8.7833,8.6793,8.6662,8.648,8.6229,8.608,8.608,8.6229,8.6229,8.6229,8.6247,8.6338,8.6411,8.6429,8.6483,8.6263,8.5842,8.5477,8.5075,8.4619,8.3641,8.3043,8.2535,0.0,0.0,0.0,0.0,0.0,0.0,0.0,0.0,0.0,0.0,0.0,0.0,0.0,0.0,0.0,0.0,0.0,0.0,0.0,0.0,4.2664,4.3022,4.3032,4.3141,4.3322,4.4227,4.5013,4.5636,4.6814,4.7948,4.9003,4.9415,4.9123,4.8296,4.8296,4.8296,4.8296,4.8296,4.8406,4.8746,0.0,0.0,0.0,0.0,0.0,0.0,0.0,0.0,0.0,0.0,0.0,0.0,0.0,0.0,0.0,5.1536,5.1977,5.2711,5.4777,5.5475,5.6099,5.8132,5.8927,5.9306,5.9673,6.037,6.1398,6.305,6.3527,6.4567,6.743,6.9265,7.1967,7.7069,7.9286,8.1122,8.3344,8.4389,8.5106,8.5659,8.6449,8.7238,8.801,8.8065,8.8342,8.8966,8.9202,8.9202,8.9075,8.9019,8.8617,8.7851,8.745,8.6884,8.61,8.5986,8.5948,8.6026,8.5948,8.5967,8.6026,8.6026,8.6026,8.6044,8.6228,8.6283,8.6283,8.612,8.57,8.5117,8.4735,8.4079,8.3316,8.2538,8.2267,8.2122,0.0,0.0,0.0,0.0,0.0,0.0,0.0,0.0,0.0,0.0,0.0,0.0,0.0,0.0,0.0,0.0,0.0,0.0,0.0,0.0,4.34,4.3471,4.3471,4.3793,4.4545,4.4654,4.5452,4.6956,4.78,4.8654,4.9524,4.9591,4.9123,4.8296,4.8296,4.8296,4.8296,4.8296,4.8783,4.9564,5.0435,0.0,0.0,0.0,0.0,0.0,0.0,0.0,0.0,0.0,0.0,0.0,0.0,0.0,5.0802,5.0875,5.193,5.3324,5.4252,5.5034,5.5805,5.6737,5.8095,5.96,6.108,6.2071,6.3086,6.4774,6.5705,6.6769,6.8481,7.1894,7.5601,7.9082,8.0991,8.259,8.4278,8.5196,8.5659,8.5543,8.622,8.6955,8.756,8.7633,8.7961,8.8745,8.8873,8.8909,8.8909,8.8143,8.7705,8.7633,8.6702,8.6155,8.61,8.5986,8.5873,8.5892,8.5873,8.5928,8.5892,8.5892,8.5892,8.5928,8.5947,8.5947,8.5893,8.5318,8.5064,8.4882,8.3373,8.2159,8.1309,8.1219,8.1219,8.1219,0.0,0.0,0.0,0.0,0.0,0.0,0.0,0.0,0.0,0.0,0.0,0.0,0.0,0.0,0.0,0.0,0.0,0.0,0.0,4.3428,4.3506,4.3506,4.3506,4.4093,4.5406,4.5443,4.5984,4.7113,4.8453,4.927,4.961,4.961,4.9123,4.8296,4.8296,4.8296,4.8296,4.8296,4.8489,4.8857,4.9711,5.0225,0.0,0.0,0.0,0.0,0.0,0.0,0.0,0.0,5.0105,4.914,4.848,4.9114,5.0151,5.0655,5.1573,5.2747,5.4032,5.4987,5.5805,5.659,5.8767,6.097,6.2095,6.3796,6.5705,6.7834,6.8935,7.0132,7.2224,7.5139,7.8112,8.0844,8.2627,8.4208,8.5702,8.6161,8.6275,8.608,8.6775,8.756,8.8289,8.7869,8.7869,8.8576,8.7814,8.7286,8.7175,8.6939,8.6812,8.6665,8.6282,8.6044,8.5986,8.5911,8.5909,8.5909,8.5909,8.5909,8.5909,8.5909,8.5619,8.5149,8.5149,8.4859,8.4407,8.4154,8.3792,8.3212,8.2106,8.1436,8.1111,8.1111,8.1111,8.1111,0.0,0.0,0.0,0.0,0.0,0.0,0.0,0.0,0.0,0.0,0.0,0.0,0.0,0.0,0.0,0.0,0.0,0.0,4.3489,4.3506,4.3506,4.3506,4.3506,4.424,4.5847,4.5883,4.6425,4.748,4.8903,4.961,4.961,4.961,4.9123,4.8296,4.8296,4.8296,4.8296,4.8296,4.8453,4.8746,4.9344,4.9757,0.0,0.0,0.0,0.0,0.0,0.0,0.0,0.0,5.0435,4.9407,4.9187,4.9664,5.0482,5.1022,5.1756,5.2637,5.3739,5.4803,5.5805,5.659,5.9208,6.1998,6.3613,6.6059,6.8641,7.077,7.2275,7.3766,7.5711,7.7855,8.0057,8.2223,8.3948,8.5385,8.6531,8.6679,8.67,8.6684,8.7158,8.7904,8.8903,8.8011,8.77,8.8367,8.7063,8.6192,8.6043,8.6173,8.6173,8.6043,8.5789,8.5624,8.5511,8.5257,8.5149,8.5149,8.5149,8.5257,8.5511,8.5257,8.4823,8.4334,8.4334,8.4008,8.3501,8.3247,8.2668,8.1853,8.1309,8.1111,8.1111,8.1111,8.1111,8.1111,0.0,0.0,0.0,0.0,0.0,0.0,0.0,0.0,0.0,0.0,0.0,0.0,0.0,0.0,0.0,0.0,0.0,0.0,4.3506,4.3506,4.3506,4.3506,4.3506,4.424,4.5847,4.5883,4.6691,4.8296,4.916,4.961,4.961,4.961,4.9123,4.8296,4.8296,4.8296,4.8296,4.8296,4.8783,4.961,4.961,5.0078,5.0765,0.0,0.0,0.0,0.0,0.0,0.0,0.0,5.1987,5.184,5.1059,5.1353,5.1987,5.1987,5.2564,5.3214,5.3214,5.4363,5.5805,5.6602,5.9245,6.2475,6.5778,6.8995,7.1784,7.3413,7.5674,7.7582,7.8479,7.9947,8.1546,8.3161,8.4756,8.6026,8.6604,8.6715,8.6829,8.7228,8.7299,8.7841,8.9225,8.7937,8.7339,8.8135,8.6778,8.5909,8.5909,8.5909,8.5909,8.5873,8.5112,8.4678,8.4678,8.3899,8.3501,8.3501,8.3501,8.3899,8.4642,8.3863,8.3501,8.3501,8.3501,8.3501,8.3428,8.2632,8.1817,8.1111,8.1111,8.1111,8.1111,8.1092,8.1092,8.1092,0.0,0.0,0.0,0.0,0.0,0.0,0.0,0.0,0.0,0.0,0.0,0.0,0.0,0.0,0.0,0.0,0.0,0.0,4.3506,4.3506,4.3506,4.3506,4.3506,4.3983,4.503,4.6168,4.7572,4.9197,4.8857,4.9003,4.961,4.8967,4.8563,4.8296,4.8296,4.8296,4.8296,4.8296,4.8443,4.8673,4.8673,4.882,0.0,0.0,0.0,0.0,0.0,0.0,0.0,0.0,0.0,0.0,5.0875,5.1353,5.1987,5.1987,5.2564,5.3214,5.3214,5.4792,5.6638,5.7446,6.097,6.4897,6.7577,7.0257,7.3413,7.7928,7.9396,8.0151,8.0975,8.1966,8.3014,8.4058,8.5004,8.5818,8.6391,8.6356,8.6301,8.6312,8.6746,8.7271,8.7684,8.7266,8.7085,8.7339,8.6452,8.5909,8.5909,8.5909,8.5619,8.5076,8.4823,8.4424,8.3863,8.361,8.3501,8.3501,8.2921,8.3066,8.3863,8.361,8.3211,8.2668,8.2668,8.2324,8.178,8.1563,8.1309,8.1111,8.1111,8.1111,8.1128,8.1252,8.1305,8.1322,0.0,0.0,0.0,0.0,0.0,0.0,0.0,0.0,0.0,0.0,4.3506,4.3506,0.0,0.0,0.0,0.0,0.0,0.0,0.0,4.3506,4.3506,4.3506,4.3506,4.402,4.514,4.6755,4.8076,4.9087,4.8563,4.8563,4.9087,4.8563,4.8296,4.8296,4.8296,4.8296,4.8296,4.8296,4.8296,4.8296,4.8296,4.8296,4.837,0.0,0.0,0.0,0.0,0.0,0.0,0.0,0.0,0.0,5.1746,5.2087,5.2527,5.2858,5.3298,5.3739,5.4069,5.5941,5.7948,5.8767,6.2401,6.6733,7.0426,7.3193,7.6276,8.0959,8.195,8.2223,8.2994,8.3801,8.4502,8.4874,8.5541,8.6024,8.6247,8.6174,8.6171,8.6327,8.6723,8.7121,8.7447,8.6904,8.6542,8.6542,8.5547,8.4931,8.4931,8.4931,8.4714,8.4243,8.3899,8.3501,8.303,8.2722,8.2541,8.2541,8.207,8.2124,8.2668,8.2577,8.2287,8.1835,8.1906,8.1652,8.1217,8.1287,8.1322,8.1322,8.1322,8.1322,8.1286,8.1426,8.146,8.1478,0.0,0.0,0.0,0.0,0.0,0.0,0.0,0.0,0.0,0.0,4.3506,4.3506,0.0,0.0,0.0,0.0,0.0,0.0,0.0,0.0,4.3506,4.3506,4.3579,4.435,4.5957,4.7462,4.8223,4.8296,4.8296,4.8296,4.8296,4.8296,4.8296,4.8296,4.8296,4.8296,4.8296,4.8296,4.8296,4.8296,4.8296,4.8296,4.8296,4.8296,0.0,0.0,0.0,0.0,0.0,0.0,0.0,0.0,5.3177,5.3214,5.3324,5.4069,5.4326,5.4583,5.5365,5.7409,5.9526,6.0481,6.398,6.8568,7.3913,7.6974,7.958,8.2647,8.3344,8.3638,8.4462,8.5196,8.5622,8.5415,8.6002,8.6317,8.5937,8.5882,8.608,8.6597,8.6687,8.6977,8.7701,8.6525,8.5692,8.5692,8.4334,8.3501,8.3501,8.3501,8.3465,8.3392,8.2668,8.2287,8.2215,8.1472,8.111,8.1128,8.1128,8.1234,8.141,8.1199,8.1128,8.1146,8.134,8.1427,8.1427,8.1564,8.1579,8.1579,8.1579,8.1579,8.1596,8.1613,8.1649,8.1613,0.0,0.0,0.0,0.0,0.0,0.0,0.0,0.0,0.0,0.0,0.0,0.0,0.0,0.0,0.0,0.0,0.0,0.0,0.0,0.0,4.3506,4.3506,4.4085,4.5214,4.6828,4.7186,4.7672,4.8296,4.8296,4.8296,4.8296,4.8296,4.8296,4.8296,4.8296,4.8296,4.8296,4.8296,4.8296,4.8296,4.8296,4.8296,4.8296,4.8296,4.882,0.0,0.0,0.0,0.0,0.0,0.0,0.0,5.2994,5.3214,5.3214,5.3398,5.3911,5.4583,5.5365,5.7813,6.0639,6.2768,6.7774,7.2973,7.6078,7.8222,8.011,8.2039,8.2957,8.3638,8.4462,8.4756,8.4815,8.4591,8.4581,8.4497,8.4319,8.4155,8.4118,8.4262,8.4243,8.4316,8.4497,8.4207,8.4026,8.4026,8.3718,8.3501,8.3501,8.3501,8.3211,8.2595,8.2378,8.2088,8.1594,8.1413,8.1392,8.1495,8.1495,8.1529,8.1564,8.141,8.141,8.1495,8.1547,8.1564,8.1564,8.1579,8.1579,8.1579,8.1579,8.1579,8.1596,8.1785,8.1835,8.1852,0.0,0.0,0.0,0.0,0.0,0.0,0.0,0.0,0.0,0.0,0.0,0.0,0.0,0.0,0.0,0.0,0.0,0.0,0.0,0.0,4.3653,4.4048,4.4856,4.5838,4.7076,4.748,4.7893,4.8296,4.8296,4.8296,4.8296,4.8296,4.8296,4.8296,4.8296,4.8296,4.8296,4.8296,4.8296,4.8296,4.8296,4.8296,4.8296,4.8296,4.8553,4.893,4.8967,0.0,0.0,0.0,0.0,0.0,0.0,0.0,5.2784,5.3544,5.4326,5.5244,5.6429,5.9098,6.2499,6.6549,7.066,7.4221,7.6261,7.8038,7.947,8.0277,8.2039,8.3638,8.4462,8.4505,8.4386,8.4197,8.4004,8.3846,8.3665,8.3556,8.3501,8.3501,8.3501,8.3501,8.3501,8.3139,8.2958,8.3048,8.2686,8.2522,8.2593,8.2611,8.2211,8.143,8.1394,8.1046,8.0332,8.0332,8.0565,8.1032,8.1032,8.1301,8.1751,8.1564,8.1529,8.1632,8.1717,8.1751,8.1751,8.1852,8.1885,8.1885,8.1885,8.1885,8.1885,8.1985,8.2055,8.2071,0.0,0.0,0.0,0.0,0.0,0.0,0.0,0.0,0.0,0.0,0.0,0.0,0.0,0.0,0.0,0.0,0.0,0.0,0.0,0.0,0.0,4.4883,4.5553,4.6361,4.7296,4.7966,4.8296,4.8296,4.8443,4.86,4.8746,4.86,4.8526,4.8526,4.8526,4.8453,4.8296,4.8296,4.8296,4.8296,4.8296,4.8296,4.8296,4.8296,4.8296,4.8296,4.8296,4.8746,4.938,4.9537,0.0,0.0,0.0,0.0,5.2087,5.3555,5.4557,5.5585,5.7483,6.075,6.4921,7.0206,7.2716,7.4331,7.5946,7.7488,7.8589,7.8589,8.0906,8.3128,8.3788,8.3873,8.3758,8.3603,8.3335,8.3102,8.2903,8.2776,8.2668,8.2668,8.2813,8.2794,8.2686,8.2342,8.2106,8.2122,8.1666,8.1462,8.1564,8.1452,8.1105,8.0431,8.0285,7.9901,7.9261,7.9261,7.9623,8.0313,8.0313,8.0725,8.1533,8.1529,8.1571,8.1717,8.1869,8.1935,8.1952,8.2137,8.2186,8.2186,8.2186,8.2186,8.2186,8.2186,8.2186,8.2186,0.0,0.0,0.0,0.0,0.0,0.0,0.0,0.0,0.0,0.0,4.3506,0.0,0.0,0.0,0.0,0.0,0.0,0.0,4.3506,0.0,0.0,4.5663,4.5847,4.6617,4.8113,4.826,4.8296,4.8296,4.905,4.9784,5.0435,4.9747,4.9417,4.9417,4.9417,4.9013,4.8296,4.8296,4.8296,4.8296,4.8296,4.8296,4.8296,4.8296,4.8296,4.8296,4.8296,4.8379,4.86,4.9344,4.9684,0.0,0.0,0.0,5.1132,5.205,5.2894,5.4168,5.7189,6.245,6.7921,7.1468,7.356,7.516,7.6775,7.7876,7.8589,7.8589,7.9893,8.1114,8.1187,8.1639,8.189,8.179,8.1138,8.0615,8.0422,7.9788,7.9354,7.9354,7.9969,8.0114,7.9426,8.0513,8.0984,8.0294,8.0978,8.141,8.1427,8.0874,8.0504,8.0395,7.9739,7.9367,7.9475,7.9475,7.9592,7.9883,7.9883,7.9936,8.0099,8.0764,8.1461,8.2121,8.2154,8.2154,8.2154,8.2186,8.2186,8.2186,8.2186,8.2186,8.2186,8.2186,8.2186,8.2186,0.0,0.0,0.0,0.0,0.0,0.0,0.0,0.0,0.0,0.0,0.0,4.3506,0.0,0.0,0.0,4.3469,4.3102,4.3029,4.3469,4.3506,4.402,4.5177,4.5663,4.6434,4.759,4.8076,4.8296,4.8296,4.916,5.0225,5.1463,5.1573,5.1393,5.1022,5.0952,5.0512,4.9752,4.9721,4.9444,4.9013,4.9013,4.8746,4.8296,4.8296,4.86,4.9013,4.9013,4.9013,4.9087,4.9454,4.927,4.9003,4.9858,0.0,0.0,0.0,5.2564,5.4095,5.8217,6.2768,6.7136,7.033,7.2386,7.3986,7.5601,7.6607,7.7194,7.7194,7.8338,7.9507,7.9946,8.0127,8.0215,8.0065,7.9654,7.9332,7.9245,7.8919,7.8702,7.8702,7.9028,7.91,7.8738,7.9354,7.9642,7.942,7.9814,8.0133,8.0336,8.028,8.0079,7.9731,7.9607,7.9261,7.8675,7.8675,7.8827,7.914,7.9596,7.9816,7.9816,8.0183,8.0755,8.1562,8.2003,8.1929,8.1525,8.1525,8.1269,8.0881,8.0881,8.0881,8.0918,8.1342,8.1525,8.1599,0.0,0.0,0.0,0.0,0.0,0.0,0.0,0.0,0.0,0.0,0.0,0.0,0.0,0.0,0.0,0.0,4.2947,4.2873,4.3469,4.369,4.4158,4.4957,4.5773,4.6571,4.7379,4.8003,4.8296,4.8296,4.938,5.0629,5.2024,5.3225,5.3545,5.3023,5.2506,5.1881,5.1143,5.0906,5.0435,4.9894,4.9684,4.9344,4.892,4.871,4.915,4.9894,4.9894,4.9894,4.9858,4.9684,4.916,4.871,4.9123,4.927,0.0,0.0,0.0,5.4693,5.8694,6.2181,6.5398,6.8421,7.055,7.2312,7.3913,7.4918,7.5542,7.5763,7.6683,7.7689,7.8462,7.8922,7.9142,7.901,7.8693,7.8464,7.8412,7.8231,7.8086,7.8086,7.8267,7.8303,7.8122,7.8448,7.8731,7.8834,7.9082,7.9406,7.98,7.9941,7.9836,7.9357,7.9454,7.9071,7.816,7.8188,7.8345,7.867,7.9261,7.9571,7.9556,7.9649,8.0014,8.0624,8.1312,8.1232,8.0681,8.0681,8.0351,7.9816,7.9816,7.9816,7.989,8.0461,8.0681,8.0791,0.0,0.0,0.0,0.0,0.0,0.0,0.0,0.0,0.0,0.0,0.0,0.0,4.3506,4.3469,4.3433,4.3506,4.3469,4.3469,4.3506,4.4195,4.4993,4.581,4.6608,0.0,4.8223,4.826,4.8296,4.8296,4.9958,5.1169,5.206,5.4373,5.553,5.5543,5.3891,5.2674,5.1877,5.1132,5.0765,5.0655,4.9894,5.0041,5.0582,4.9821,5.0041,5.0729,5.0729,5.0729,5.0618,4.9858,4.9574,4.938,4.86,4.8379,4.871,0.0,0.0,0.0,5.7629,6.0493,6.3527,6.6072,6.8458,7.066,7.2275,7.323,7.4037,7.4793,7.5014,7.5284,7.5974,7.781,7.9162,7.901,7.8358,7.7783,7.7577,7.6891,7.6437,7.6437,7.7108,7.7253,7.6509,7.7796,7.8613,7.8443,7.9291,8.0102,8.0702,8.0152,7.9799,7.9762,7.9069,7.8633,7.857,7.87,7.8791,7.8891,7.8929,7.8966,7.8941,7.9227,7.9334,7.9417,7.9787,7.989,7.9853,7.9853,7.9853,7.9816,7.9816,7.9816,7.9816,7.9853,7.9853,7.989,0.0,0.0,0.0,0.0,0.0,0.0,0.0,0.0,0.0,0.0,0.0,0.0,0.0,4.3506,4.3506,4.3506,4.3506,4.3506,4.3506,4.4268,4.4847,4.5104,4.6388,4.7223,4.7516,4.8039,4.8296,4.8296,4.9444,5.0445,5.1279,5.3188,5.4347,5.4931,5.5328,5.5136,5.4428,5.3508,5.2873,5.2394,5.1503,5.1036,5.0865,5.1053,5.1661,5.2473,5.2952,5.2784,5.2223,5.14,5.0445,4.9463,4.8563,4.8296,4.8517,4.9711,5.1583,5.3639,5.5244,5.7299,5.9673,6.2622,6.4787,6.6659,6.8274,7.0073,7.1468,7.1762,7.3046,7.4206,7.444,7.59,7.7158,7.7427,7.7295,7.7008,7.6605,7.635,7.6133,7.5868,7.6118,7.6192,7.586,7.6361,7.6671,7.6608,7.6715,7.7008,7.7595,7.7926,7.8236,7.8616,7.9147,7.9055,7.8274,7.8153,7.7853,7.7277,7.7277,7.7277,7.7315,7.7991,7.8276,7.83,7.8938,7.9169,7.9045,7.9045,7.8699,7.8206,7.8206,7.8394,7.8743,7.8964,7.9234,7.952,0.0,0.0,0.0,0.0,0.0,0.0,0.0,0.0,0.0,0.0,0.0,0.0,0.0,0.0,4.3506,4.3506,4.3506,4.3616,4.391,4.4672,4.5214,4.5498,4.6792,4.7489,4.7489,4.8039,4.8296,4.8296,4.916,4.9858,5.0435,5.205,5.3225,5.4069,5.539,5.5908,5.5718,5.4501,5.3902,5.3645,5.2459,5.1881,5.1748,5.2228,5.2936,5.376,5.4542,5.4473,5.3849,5.2784,5.151,5.0225,4.9087,4.8746,4.8857,4.9417,5.0555,5.1877,5.3225,5.4766,5.6565,5.8988,6.1239,6.3209,6.453,6.6733,6.8641,6.9155,7.0991,7.2642,7.3193,7.4315,7.543,7.6243,7.6527,7.6542,7.6108,7.603,7.5883,7.5642,7.5608,7.5608,7.5608,7.5608,7.5689,7.5887,7.5662,7.5756,7.6381,7.6917,7.74,7.7798,7.8658,7.8744,7.8003,7.7801,7.7481,7.6948,7.6948,7.6948,7.6948,7.7357,7.7539,7.7565,7.8201,7.8583,7.872,7.872,7.835,7.7854,7.7854,7.8035,7.841,7.8604,7.8903,7.9189,0.0,0.0,0.0,0.0,0.0,0.0,0.0,0.0,0.0,4.3506,0.0,0.0,0.0,0.0,0.0,4.3579,4.3579,4.391,4.4663,4.548,4.6278,4.7076,4.7856,4.8296,4.8296,4.8296,4.8296,4.8296,4.916,4.9574,4.961,5.1179,5.2344,5.3141,5.3922,5.473,5.5401,5.3875,5.3702,5.43,5.2721,5.2564,5.3298,5.3287,5.3812,5.4583,5.5365,5.5658,5.5438,5.3801,5.2747,5.1767,5.0115,4.9574,0.0,0.0,5.0115,5.0912,0.0,0.0,0.0,5.5291,5.7886,6.0419,6.1239,6.3392,6.5618,6.7187,6.8875,7.0527,7.2069,7.3112,7.4155,7.558,7.6169,7.6404,7.6214,7.5819,7.5612,7.5575,7.5588,7.5588,7.5588,7.5588,7.5826,7.6414,7.645,7.6699,7.7299,7.7358,7.741,7.7486,7.7486,7.7586,7.7751,7.7751,7.7807,7.7946,7.7946,7.7946,7.789,7.7412,7.7179,7.7186,7.7539,7.8164,7.8902,7.8915,7.8903,7.8903,7.8903,7.8903,7.8915,7.8903,7.8903,7.8841,0.0,0.0,0.0,0.0,0.0,0.0,4.3506,4.3506,4.3506,0.0,0.0,0.0,4.4296,4.4892,4.5232,4.5232,4.5232,4.5333,4.5553,4.6315,4.6865,4.7076,4.7856,4.8296,4.8296,4.8296,4.8296,4.8296,4.8526,4.8673,4.8673,4.9747,5.0372,5.0629,5.1426,5.2234,5.3052,5.3775,5.4617,5.5381,5.4217,5.4312,5.5202,5.5629,5.5985,5.6382,5.7076,5.7347,5.709,5.5464,5.4399,5.3261,5.0482,0.0,0.0,0.0,0.0,0.0,5.0041,0.0,0.0,0.0,0.0,0.0,5.709,6.0027,6.2732,6.3221,6.6012,6.8566,6.9263,7.1495,7.3498,7.4185,7.5115,7.5726,7.5519,7.5495,7.5436,7.5137,7.5095,7.5095,7.5095,7.5095,7.515,7.5329,7.5072,7.5095,7.5556,7.6145,7.6766,7.7486,7.7604,7.7398,7.695,7.6986,7.6735,7.6197,7.6197,7.6197,7.6227,7.6644,7.6826,7.6893,7.7617,7.8405,7.9163,7.8978,7.8903,7.8903,7.8903,7.9121,7.9426,7.9037,7.9133,7.9403,0.0,0.0,0.0,0.0,0.0,4.4524,4.4602,4.4284,4.4156,0.0,0.0,0.0,4.5112,4.5626,4.5883,4.5883,4.5883,4.603,4.6388,4.6828,4.7259,4.7599,4.8039,4.8296,4.8296,4.8296,4.8296,4.8296,4.8296,4.8296,4.8296,4.882,4.9233,4.961,5.0078,5.0729,5.1583,5.2873,5.416,5.5228,5.4654,5.5179,5.6301,5.6683,5.726,5.7978,5.835,5.8731,5.8767,5.7152,5.5181,5.2931,5.0408,4.9003,0.0,0.0,0.0,0.0,0.0,0.0,4.9831,5.0775,0.0,0.0,5.4399,5.7189,5.9795,6.0456,6.3576,6.6371,6.6873,6.9102,7.1133,7.1999,7.2745,7.369,7.5112,7.5276,7.5156,7.494,7.4884,7.4884,7.4884,7.4884,7.4884,7.4884,7.467,7.4649,7.4874,7.539,7.5916,7.652,7.6322,7.616,7.6146,7.5818,7.5615,7.5509,7.5509,7.5509,7.5509,7.6006,7.6197,7.6265,7.7105,7.7755,7.8263,7.8829,7.9258,7.9561,7.9561,7.9762,7.9999,7.9697,7.9762,7.9958,0.0,0.0,4.6239,4.6239,4.6108,4.601,4.6213,4.5473,4.5191,0.0,4.5503,4.5277,4.5957,4.6122,4.6204,4.6186,4.6177,4.6461,4.7186,4.7223,4.7562,4.826,4.8296,4.8296,4.8296,4.8296,4.8296,4.8296,4.8296,4.8296,4.8296,4.8296,4.871,4.9454,4.9454,4.9858,5.0582,5.1547,5.2851,5.43,5.4638,5.572,5.709,5.7189,5.8095,5.9343,5.9343,5.9857,6.0309,5.8694,5.5585,5.2097,5.0408,4.9197,4.8416,4.8333,4.8296,0.0,0.0,0.0,0.0,4.9454,5.0592,0.0,5.2737,5.4792,5.6957,5.8499,6.1337,6.3772,6.4545,6.6077,6.7674,6.9101,6.9553,7.0989,7.4587,7.4827,7.4647,7.4692,7.4712,7.4771,7.4771,7.4846,7.4846,7.4771,7.4846,7.4846,7.4771,7.4843,7.4875,7.4933,7.4274,7.442,7.5356,7.4584,7.4622,7.5509,7.5509,7.5509,7.5509,7.5509,7.5509,7.5548,7.6265,7.6609,7.68,7.8375,7.956,8.0391,8.0468,8.0506,8.0506,8.0506,8.0506,8.0421,0.0,4.6364,4.6451,4.6451,4.6426,4.6409,4.6442,4.6269,4.6165,4.6185,4.6585,4.6864,4.6884,4.7611,4.8007,4.7838,4.7829,4.7893,4.8076,4.8076,4.815,4.8296,4.8296,4.8296,4.8296,4.8296,4.8296,4.8296,4.8296,4.8296,4.8296,4.8296,4.837,4.8563,4.8563,4.8636,4.8893,5.048,5.2005,5.3592,5.5694,5.7468,5.8954,5.95,5.9893,6.015,6.015,6.0676,6.1117,5.949,5.7152,5.4483,5.2244,5.0518,4.9197,4.8526,4.8296,4.8296,0.0,0.0,4.8563,4.8563,4.9307,0.0,5.1096,5.3151,5.5133,5.6099,5.8364,6.0294,6.0777,6.2706,6.4424,6.5068,6.6854,6.9162,7.21,7.2731,7.3023,7.3404,7.367,7.3861,7.3861,7.4467,7.4619,7.3899,7.4505,7.4581,7.3899,7.3971,7.3773,7.3221,7.3083,7.3486,7.4431,7.4269,7.4622,7.5509,7.5509,7.5509,7.5509,7.5509,7.5509,7.5509,7.5662,7.6121,7.6723,7.7067,7.8146,7.9598,8.0238,8.0506,8.0506,8.0506,8.0506,8.0497,4.7231,4.7618,4.7859,4.7859,4.774,4.7752,4.7843,4.7413,4.7243,4.7644,4.8205,4.8716,4.9066,4.9452,4.9671,4.9564,4.9187,4.894,4.894,4.8526,4.8296,4.8296,4.8296,4.8296,4.8296,4.8296,4.8296,4.8296,4.8296,4.8296,4.8296,4.8296,4.8296,4.8333,4.8746,4.894,4.905,5.0775,5.2373,5.3959,5.5694,5.7802,5.989,5.9819,6.0554,6.1545,6.1153,6.1006,6.0823,5.96,5.7324,5.473,5.3115,5.1216,4.95,4.9087,4.8636,4.8296,4.8296,4.8296,4.8296,4.8296,4.8636,0.0,0.0,5.1463,5.2821,5.3639,5.5427,5.6878,5.7062,5.8434,5.9908,6.1114,6.2684,6.4527,6.6698,6.9589,7.1804,7.2652,7.2909,7.2999,7.2999,7.3378,7.3454,7.3037,7.3416,7.3474,7.3068,7.3175,7.3088,7.2761,7.2439,7.2699,7.359,7.317,7.359,7.4851,7.4851,7.508,7.5509,7.5509,7.5509,7.5509,7.5509,7.5739,7.6121,7.6532,7.722,7.8108,7.8939,7.9245,7.9245,7.9245,7.9245,7.9312,4.8385,4.8901,4.9254,4.9254,4.9131,4.9081,4.923,4.8588,4.8389,4.9309,4.9837,5.0444,5.1314,5.1224,5.1206,5.1313,5.0548,5.0051,5.0051,4.9114,4.8526,4.8563,4.837,4.8296,4.8296,4.8296,4.8296,4.8296,4.8296,4.8296,4.8296,4.8296,4.8296,4.8333,4.9197,4.961,4.9721,5.1537,5.3125,5.4483,5.5562,5.7661,6.0114,5.9783,6.0884,6.2499,6.1998,6.13,6.0529,5.971,5.7508,5.4913,5.3948,5.2123,5.0225,4.9931,4.9224,4.8526,4.8343,4.8406,4.8526,4.8333,4.8416,4.871,0.0,0.0,0.0,5.161,5.2674,5.3482,5.3482,5.4116,5.5216,5.6837,5.8164,5.9519,6.1067,6.5464,6.9154,7.0949,7.1333,7.1476,7.1476,7.1527,7.1662,7.191,7.2081,7.213,7.2016,7.2318,7.2447,7.2327,7.1905,7.2108,7.2979,7.2452,7.2941,7.4469,7.4469,7.4813,7.5509,7.5509,7.5509,7.5509,7.5509,7.5509,7.5548,7.6188,7.6447,7.6544,7.7593,7.7966,7.7957,7.7975,7.7995,7.8035,4.9332,4.9399,4.9459,4.9459,4.9443,4.9435,4.9459,4.9368,4.9538,5.0185,5.0927,5.167,5.2354,5.241,5.2621,5.3158,5.2293,5.173,5.173,5.0261,4.938,4.9463,4.871,4.8296,4.8296,4.8296,4.8296,4.8296,4.8296,4.8296,4.8296,4.8296,4.8296,4.8333,4.9197,4.961,4.9757,5.2097,5.3592,5.4546,5.6062,5.774,5.949,6.0823,6.1484,6.1814,6.2426,6.2144,6.1337,6.0529,5.9061,5.7336,5.5805,5.4142,5.2517,5.1096,5.0078,4.927,4.8526,4.8857,4.927,4.8489,4.8893,4.95,4.9574,0.0,4.9884,5.0765,0.0,5.0161,5.0161,0.0,0.0,5.1634,5.4144,5.6517,5.7756,5.9717,6.2409,6.621,6.7528,6.8155,6.8155,6.8424,6.9041,7.0109,7.0963,7.1095,7.0307,7.1201,7.1374,7.062,7.1294,7.2108,7.2979,7.3628,7.4393,7.5356,7.5356,7.5395,7.5509,7.5509,7.5509,7.5509,7.5509,7.5509,7.5509,7.5586,7.5571,7.5614,7.7337,7.793,7.7836,7.7948,7.7874,7.7741,4.949,4.949,4.949,4.949,4.949,4.949,4.949,4.9903,5.0638,5.184,5.26,5.3699,5.5426,5.5489,5.5733,5.6397,5.5565,5.4602,5.3581,5.2348,0.0,4.9725,4.9311,4.8898,4.8486,4.8457,4.8419,4.8419,4.8325,4.8296,4.8296,4.8296,4.8296,4.837,4.9701,5.0555,5.1106,5.3078,5.4913,5.6565,5.7226,5.8474,5.9967,6.0639,6.1484,6.2352,6.2683,6.2291,6.1484,6.0676,5.9636,5.8437,5.6785,5.55,5.4289,5.2664,5.161,5.0812,4.9994,5.0031,5.0215,4.9848,4.9674,4.961,4.9564,4.915,4.8783,4.8663,0.0,0.0,0.0,0.0,0.0,0.0,5.0922,5.2637,5.4053,5.5649,5.8332,6.2811,6.4177,6.5036,6.5691,6.5707,6.596,6.6644,6.7591,6.8206,6.8385,6.9453,7.015,7.0353,7.0738,7.1374,7.2223,7.2559,7.3437,7.4736,7.4736,7.5013,7.5509,7.5509,7.5509,7.5509,7.5509,7.5509,7.5509,7.5409,7.5392,7.5477,7.612,7.6332,7.6313,7.6415,7.6397,7.636,4.949,0.0,4.949,4.949,4.949,4.9565,4.979,5.0699,5.1976,5.3629,5.4634,5.6126,5.8642,5.8631,5.8894,5.9955,5.9057,5.7843,5.6398,5.5006,5.3272,5.1155,5.061,4.9866,4.8901,4.8835,4.8687,4.8485,4.839,4.8296,4.8296,4.8296,4.8416,4.871,5.0178,5.1242,5.2134,5.3959,5.5868,5.7703,5.8143,5.9281,6.075,6.075,6.1582,6.2793,6.2793,6.2291,6.152,6.0933,6.0187,5.9306,5.8168,5.7226,5.6271,5.4645,5.3628,5.2758,5.1756,5.161,5.1683,5.1242,5.0702,5.0115,4.9637,4.8893,4.8113,4.7562,4.7259,0.0,0.0,0.0,4.6361,4.7746,0.0,4.9637,5.0812,5.216,5.4659,5.9024,6.0526,6.1593,6.2676,6.264,6.2762,6.3217,6.42,6.5294,6.6465,6.7905,6.9107,7.0029,7.0525,7.1183,7.207,7.2299,7.3132,7.4545,7.4545,7.4889,7.5509,7.5509,7.5509,7.5509,7.5509,7.5492,7.5427,7.5347,7.5329,7.5338,7.5247,7.5161,7.5133,7.5227,7.5246,7.5266,4.949,4.949,4.949,4.949,4.949,4.9753,5.0549,5.2059,5.3704,5.5301,5.6944,5.8934,6.1393,6.1266,6.1703,6.3471,6.2436,6.1354,6.0643,5.8268,5.6138,5.4501,5.2831,5.123,4.9709,4.9586,4.9208,4.8485,4.839,4.8296,4.8296,4.8296,4.8746,4.961,5.0435,5.1242,5.2171,5.4557,5.6051,5.6957,5.8535,6.0114,6.1557,6.1557,6.2071,6.2793,6.2793,6.2291,6.1606,6.1569,6.1043,6.0346,6.0309,5.971,5.8792,5.7141,5.6124,5.5144,5.3544,5.3691,5.3922,5.2354,5.195,5.151,4.9941,4.894,4.8296,4.826,4.7636,4.7076,4.7076,0.0,0.0,0.0,0.0,0.0,0.0,4.9114,5.0886,5.4222,5.6256,5.7714,5.8614,5.8984,5.9462,6.0287,6.1497,6.296,6.4686,6.6726,6.8275,6.9196,7.0809,7.207,7.2941,7.3743,7.4584,7.5471,7.5471,7.5471,7.5509,7.5509,7.5509,7.5509,7.5509,7.5418,7.532,7.5281,7.5209,7.5046,7.5171,7.5074,7.4925,7.5133,7.5084,7.4925,0.0,4.9865,4.949,4.949,4.949,4.9753,5.0587,5.2577,5.4784,5.6991,5.9168,6.1506,6.3984,6.4042,6.4374,6.5549,6.4996,6.3824,6.1964,6.0963,5.8965,5.5618,5.4985,5.3696,5.1525,5.1322,5.0915,5.022,5.0037,4.9948,4.9948,4.9948,5.0105,5.0435,5.1253,5.205,5.2931,5.4814,5.6675,5.8572,6.0737,6.1912,6.2352,6.1777,6.2108,6.2793,6.2793,6.2646,6.2316,6.1777,6.1777,6.1802,6.0737,6.0566,6.0456,5.8866,5.8205,5.7728,5.6675,5.6198,5.5856,5.5317,5.3995,5.2627,5.2123,5.0949,4.9811,4.927,4.8489,4.7746,4.7186,0.0,0.0,0.0,0.0,0.0,0.0,4.6948,4.7719,4.9361,5.1591,5.3558,5.5104,5.5198,5.5599,5.661,5.8114,5.9943,6.2181,6.4547,6.6704,6.8669,6.9586,7.0733,7.2147,7.2979,7.3819,7.466,7.5242,7.5509,7.5509,7.5509,7.5509,7.5509,7.5509,7.5409,7.531,7.5246,7.5171,7.5104,7.5035,7.4995,7.4977,7.5152,7.5113,7.4977,5.0812,5.0504,5.0166,4.9602,4.9753,5.0504,5.2193,5.4296,5.6803,5.9891,6.218,6.4459,6.7015,6.7025,6.724,6.8174,6.7609,6.6466,6.477,6.3861,6.1934,5.8717,5.7972,5.6509,5.4045,5.356,5.2708,5.1465,5.1287,5.1096,5.0802,5.0802,5.0949,5.1242,5.1767,5.2454,5.3324,5.4924,5.6675,5.8572,6.1288,6.2365,6.2365,6.2108,6.2365,6.2793,6.2793,6.2793,6.2719,6.2218,6.2365,6.2683,6.1924,6.2071,6.2304,6.1263,6.0737,6.0297,5.9501,5.8694,5.7948,5.7361,5.582,5.4369,5.3949,5.282,5.1762,5.1389,5.0602,4.9732,4.8799,0.0,0.0,0.0,0.0,0.0,0.0,4.5223,4.5333,4.6168,4.8511,5.0661,5.2023,5.2367,5.2853,5.3813,5.5208,5.7121,5.9663,6.2382,6.4897,6.7123,6.8498,6.9846,7.1221,7.2108,7.3093,7.4193,7.4775,7.5204,7.5509,7.5509,7.5509,7.5509,7.5509,7.5409,7.5272,7.5247,7.5181,7.5133,7.5005,7.4965,7.4967,7.5064,7.5036,7.5036,5.115,5.1405,5.1434,4.9978,5.0353,5.1976,5.518,5.7141,5.9769,6.3881,6.5757,6.7712,7.0281,7.0083,7.0177,7.1225,7.0078,6.9148,6.8736,6.6741,6.4955,6.3505,6.1614,5.9487,5.714,0.0,0.0,5.2351,5.2212,5.1756,5.0986,5.0949,5.1316,5.206,5.206,5.2527,5.3361,5.4913,5.6124,5.7251,6.0346,6.163,6.1741,6.2499,6.2793,6.2793,6.2793,6.2793,6.2793,6.2793,6.2793,6.2939,6.3833,6.4103,6.4103,6.4139,6.3539,6.2695,6.1961,6.1153,6.0136,5.8628,5.7599,5.668,5.552,5.4661,5.4186,5.4547,5.39,5.2928,5.1828,4.9534,0.0,0.0,0.0,0.0,0.0,4.3975,4.38,4.4553,4.6963,4.8799,4.9346,5.035,5.1173,5.1787,5.2806,5.4533,5.7124,6.0275,6.2811,6.4696,6.7474,6.9393,7.0334,7.1175,7.2427,7.4078,7.4116,7.4584,7.5433,7.5433,7.5471,7.5509,7.5509,7.5409,7.531,7.5209,7.5114,7.5017,7.5026,7.4957,7.4905,7.4895,7.4937,7.5027,5.2773,5.2193,5.2156,5.2982,5.332,5.4146,5.6249,5.899,6.2144,6.5684,6.7444,6.9136,7.1171,7.1001,7.0932,7.143,7.0214,6.9249,6.8748,6.7467,6.5988,6.4215,6.3722,6.2322,5.9702,5.934,5.8054,5.5738,5.5015,5.4263,5.3445,5.2847,5.27,5.2884,5.2884,5.3335,5.4179,5.5181,5.7079,5.9612,6.1043,6.1961,6.2499,6.2719,6.2793,6.2793,6.2793,6.2793,6.2793,6.2793,6.2793,6.2939,6.3833,6.4103,6.4213,6.4824,6.442,6.3774,6.3894,6.2889,6.1778,6.166,6.0594,5.9474,5.914,5.8475,5.792,5.8019,5.688,5.5567,5.4704,5.1766,4.9073,0.0,0.0,0.0,0.0,4.3616,4.3579,4.38,4.4963,4.6047,4.6783,4.7105,4.7813,4.915,5.013,5.2067,5.5382,5.7497,6.022,6.3734,6.4925,6.6782,6.9494,7.0021,7.0982,7.2329,7.3017,7.3743,7.4545,7.4545,7.4889,7.5509,7.5509,7.5409,7.532,7.5292,7.518,7.5026,7.5095,7.5142,7.5113,7.5007,7.5095,7.5217,5.4484,5.3837,5.4062,5.5714,5.6925,5.8089,5.9403,6.2116,6.5196,6.849,6.9874,7.1228,7.3042,7.2619,7.2398,7.2881,7.1491,7.0474,7.0312,6.9224,6.8134,6.7197,6.6519,6.5214,6.3198,6.2083,0.0,5.7978,5.7076,5.5879,5.4399,5.3948,5.3544,5.3214,5.3214,5.3654,5.4509,5.6014,5.7886,5.9967,6.1117,6.1851,0.0,6.2683,6.2793,6.2793,6.2793,6.2793,6.2866,6.3233,6.3356,6.3576,6.4751,6.5297,6.5595,6.6407,6.6235,6.5745,6.5587,6.4619,6.3547,6.3015,6.223,6.1488,6.1333,6.0925,6.0646,6.0837,5.9544,5.7988,5.6625,5.3353,4.9894,0.0,0.0,0.0,4.3543,4.3945,4.4172,4.4037,4.4858,4.5556,4.5865,4.5883,4.6287,4.7168,4.8343,5.0223,5.2957,5.5332,5.8091,6.13,6.3003,6.4906,6.7005,6.83,6.9598,7.0894,7.1714,7.2861,7.4193,7.4193,7.466,7.5509,7.5509,7.5474,7.5383,7.5338,7.5217,7.5152,7.52,7.5228,7.5227,7.5171,7.5189,7.5329,5.609,5.5847,5.641,5.7967,6.0407,6.2462,6.3551,6.5636,6.8313,7.1595,7.2412,7.3402,7.5219,7.4437,7.405,7.4758,7.3075,7.2045,7.2361,7.112,7.0454,7.0691,6.9244,6.7906,6.6699,6.456,6.2169,0.0,5.8621,5.6932,5.4546,5.4436,5.3959,5.3214,5.3214,5.3691,5.473,5.7116,5.8621,5.949,6.1117,6.1814,6.1998,6.2695,6.2976,6.2976,6.2976,6.2976,6.3086,6.3833,6.4176,6.4543,6.6035,6.6826,6.7366,6.8146,6.8163,6.777,6.7023,6.6179,6.5146,6.3756,6.3314,6.3144,6.2791,6.2715,6.2797,6.3176,6.1975,6.0306,5.8304,5.4722,5.0563,0.0,4.5029,4.459,4.3763,4.4564,4.5062,4.4744,4.5719,0.0,4.592,4.581,4.5773,4.5883,4.7205,4.8729,5.0441,5.346,5.6154,5.8395,6.1413,6.3426,6.4273,6.6551,6.8394,6.9747,7.0498,7.1967,7.404,7.404,7.4584,7.5509,7.5509,7.5509,7.5501,7.5374,7.5338,7.5329,7.5227,7.5246,7.5338,7.5338,7.5338,7.5356,5.6849,5.7115,5.7828,5.8896,6.1653,6.4452,6.6652,6.8002,6.9981,7.3322,7.3768,7.4445,7.6252,7.5433,7.4798,7.4948,7.3254,7.2184,7.2235,7.1226,7.0641,7.0692,7.042,6.9427,6.7702,6.6611,6.4449,6.119,5.971,5.7728,5.5365,5.4693,5.3959,5.3214,5.3214,5.4032,5.5548,5.7948,5.9453,6.0334,6.1949,6.3025,6.3699,6.3796,6.387,6.387,6.387,6.387,6.3906,6.4066,6.453,6.5251,6.6219,6.6826,6.7366,6.8146,6.8163,6.7946,6.81,6.7061,6.5941,6.6015,6.5479,6.4961,6.4863,6.4879,6.4894,6.4947,6.4198,6.2984,6.1111,5.6425,5.1773,4.8684,4.678,4.5406,4.459,4.4897,4.5062,4.4744,4.5719,4.6276,4.592,4.5296,4.5186,4.5847,4.6177,4.7187,4.9117,5.1377,5.4014,5.704,5.9332,6.186,6.4675,6.6129,6.7655,6.9297,6.9784,7.1131,7.3208,7.3208,7.4049,7.5509,7.5509,7.5509,7.5509,7.5454,7.5445,7.5436,7.5329,7.5356,7.5445,7.5445,7.5445,7.5483,5.8869,5.9318,6.0206,6.1479,6.3362,6.5721,6.8653,6.9821,7.143,7.4354,7.4584,7.5196,7.7017,7.5944,7.5209,7.5469,7.3937,7.2905,7.2841,7.229,7.1976,7.1976,7.1569,7.0623,6.9165,6.7949,6.586,6.2891,6.1263,5.9208,5.6833,5.5585,5.4803,5.4473,5.4866,5.5721,5.698,5.8988,6.0517,6.1728,6.2989,6.398,6.4714,6.4714,6.4714,6.4714,6.4714,6.5162,6.5657,6.5441,6.5595,6.6124,6.7157,6.7788,6.8317,6.8935,6.9172,6.917,6.8923,6.7956,6.6932,6.675,6.6025,6.5413,6.5413,6.5413,6.5413,6.5413,6.4771,6.3344,6.0533,5.7057,5.3529,5.03,4.8479,4.7024,4.575,4.6087,4.6545,4.6829,4.7876,4.8435,4.8104,4.7357,4.6419,4.5342,4.6058,4.6921,4.7904,5.0286,5.2938,5.5762,5.8266,6.0903,6.3794,6.5673,6.736,6.8823,6.9501,7.0903,7.2979,7.2979,7.3904,7.5509,7.5509,7.5509,7.5509,7.5509,7.5509,7.5509,7.5418,7.5427,7.5509,7.5509,7.5509,7.5509,6.0817,6.1452,6.2477,6.3723,6.5111,6.6988,6.9806,7.1079,7.2637,7.5206,7.542,7.6032,7.7792,7.6668,7.5845,7.6064,7.4734,7.3726,7.3383,7.3292,7.3225,7.3199,7.2519,7.1659,7.0642,6.8994,6.6927,6.4347,6.2658,6.0529,5.796,5.6686,5.6025,5.5879,5.6712,5.7519,5.8364,6.0162,6.1655,6.2903,6.4127,6.4971,6.5545,6.5545,6.5545,6.5545,6.5545,6.6247,6.7158,6.6947,6.6957,6.7246,6.8219,6.8859,6.9313,6.9682,7.0091,7.0258,6.9616,6.8814,6.7981,6.7171,6.6292,6.5643,6.5452,6.5413,6.5413,6.5413,6.4756,6.3199,6.0099,5.8076,5.5715,5.2247,5.0547,4.9065,4.7319,4.7667,4.8359,4.9053,4.9924,5.0385,5.0121,4.9273,4.779,4.5387,4.6379,4.7113,4.7206,4.9732,5.228,5.464,5.7556,6.035,6.2897,6.5383,6.7386,6.891,6.9683,7.1169,7.3246,7.3246,7.4095,7.5509,7.5509,7.5509,7.5509,7.5509,7.5509,7.5509,7.5509,7.5509,7.5509,7.5509,7.5418,7.5347,6.1664,6.2762,6.3781,6.4015,6.6559,6.8921,6.9967,7.1473,7.3476,7.6215,7.6489,7.709,7.8791,7.8165,7.7279,7.6367,7.5408,7.4385,7.3276,7.3331,7.3344,7.3199,7.3124,7.26,7.1602,6.9858,6.7736,6.5178,6.349,6.108,5.7997,5.785,5.7373,5.6701,5.7519,5.8315,5.9233,6.1582,6.2646,6.3013,6.5338,6.6329,6.6402,6.6402,6.6402,6.6402,6.6402,6.6727,6.728,6.7974,6.8483,6.8895,6.9014,6.9344,6.973,6.9806,7.0091,7.0372,7.0296,6.9693,6.8852,6.802,6.7171,6.6369,6.5566,6.5413,6.5413,6.5413,6.4665,6.3711,6.2687,6.0775,5.8434,5.5609,5.35,5.1547,4.958,4.9557,4.9819,4.9983,5.0012,5.0086,5.0095,4.9049,4.794,4.6938,4.7003,4.7242,4.7539,4.9648,5.1767,5.3746,5.7012,6.0132,6.2954,6.5394,6.7826,7.0247,7.0667,7.2005,7.4078,7.4078,7.4584,7.5509,7.5509,7.5509,7.5509,7.5509,7.5509,7.5509,7.5509,7.5509,7.5509,7.5509,7.517,7.4869,6.3263,6.4305,6.5493,6.6089,6.7711,6.9343,7.0733,7.2353,7.4221,7.6426,7.6615,7.7191,7.8916,7.8365,7.7516,7.6506,7.562,7.4661,7.3511,7.3513,7.3437,7.3344,7.3172,7.2644,7.1726,7.0403,6.8746,6.6733,6.4604,6.2658,6.0848,5.938,5.8535,5.8315,5.9575,6.0603,6.1471,6.2952,6.4127,6.5118,6.6109,6.6769,6.7223,6.7223,6.7223,6.7263,6.7527,6.7947,6.8447,6.9032,6.9176,6.9144,6.9416,6.9643,6.9863,7.01,7.0264,7.0411,7.0411,6.9807,6.912,6.8776,6.7668,6.659,6.6254,6.5796,6.5413,6.5413,6.5085,6.4612,6.3809,6.2124,6.006,5.7711,5.5864,5.4151,5.2657,5.2111,5.2157,5.2903,5.1852,5.1157,5.1403,5.017,4.902,4.817,4.7914,4.7895,4.8025,5.0,5.2243,5.4761,5.7529,6.0745,6.4419,6.6153,6.844,7.1183,7.1345,7.2383,7.4193,7.4193,7.466,7.5509,7.5509,7.5509,7.5492,7.5142,7.5,7.498,7.4723,7.4582,7.4582,7.4582,7.4423,7.4192,6.4987,6.6025,6.7221,6.7898,6.9154,7.0448,7.1654,7.3309,7.4954,7.6465,7.6804,7.7479,7.8954,7.859,7.7853,7.6893,7.6231,7.5384,7.4257,7.4246,7.4069,7.3639,7.3437,7.2931,7.2028,7.097,6.9669,6.8054,6.6122,6.4457,6.3135,6.1178,6.0407,6.0701,6.1814,6.2768,6.36,6.442,6.5448,6.6512,6.6769,6.7187,6.77,6.77,6.7807,6.7967,6.8272,6.878,6.9344,6.9682,6.9662,6.9536,6.9862,6.9992,7.0038,7.0298,7.0411,7.0411,7.0411,6.999,6.9502,6.9273,6.8317,6.7324,6.6819,6.6216,6.5719,6.5452,6.5413,6.5222,6.4657,6.335,6.1765,5.9958,5.8249,5.6775,5.5567,5.4451,5.404,5.464,5.29,5.1797,5.2122,5.09,4.9928,4.9559,4.9307,4.9075,4.8808,5.0536,5.2828,5.5638,5.7985,6.1187,6.5348,6.6538,6.8751,7.207,7.207,7.2941,7.4575,7.4431,7.4783,7.5501,7.5189,7.5152,7.5236,7.4695,7.4481,7.4449,7.4109,7.4009,7.4009,7.3975,7.3772,7.3591,6.6773,6.7943,6.8968,6.8968,7.1087,7.27,7.2606,7.4194,7.5664,7.6405,7.7316,7.8177,7.9004,7.9079,7.8629,7.7576,7.7475,7.6933,7.5685,7.572,7.5308,7.4229,7.4178,7.3725,7.2709,7.1759,7.0499,6.8898,6.8068,6.6416,6.4066,6.3172,6.3196,6.4029,6.4066,6.453,6.5325,6.6145,6.6476,6.6549,6.737,6.77,6.77,6.77,6.8006,6.8394,6.8394,6.8992,6.9806,6.9816,7.0064,7.0402,7.0402,7.0402,7.0402,7.0411,7.0411,7.0411,7.0411,7.0372,7.0181,6.9387,6.9196,6.8738,6.7087,6.6705,6.6445,6.5566,6.5413,6.5413,6.5375,6.4733,6.3764,6.2534,6.089,5.9319,5.813,5.6518,5.5194,5.4384,5.2513,5.1455,5.1751,5.0758,5.0421,5.1212,5.1286,5.0896,5.0024,5.1251,5.3238,5.6017,5.8102,6.1211,6.5369,6.6186,6.8763,7.2979,7.2979,7.3866,7.5462,7.4951,7.499,7.5427,7.4444,7.4265,7.4685,7.4188,7.4021,7.4021,7.4021,7.4009,7.396,7.3843,7.3467,7.3098,6.8099,6.9038,6.9936,7.0578,7.1874,7.2984,7.3581,7.5114,7.6513,7.734,7.819,7.8816,7.9079,7.9116,7.8741,7.7841,7.7541,7.7037,7.6049,7.5867,7.5618,7.5181,7.4529,7.3997,7.3533,7.2053,7.105,7.0536,6.9192,6.7577,6.5705,6.4884,6.4664,6.4934,6.5485,6.5888,6.6182,6.699,6.7333,6.7333,6.759,6.77,6.77,6.77,6.777,6.7994,6.863,6.9058,6.9395,6.9999,7.0281,7.0411,7.0411,7.0411,7.0411,7.0411,7.0411,7.0411,7.0411,7.0411,7.0334,7.0067,6.9616,6.889,6.7782,6.6636,6.5757,6.5452,6.5413,6.5413,6.5413,6.4733,6.3986,6.3323,6.2465,6.1461,6.0203,5.8648,5.7295,5.6463,5.4088,5.2869,5.3762,5.2817,5.2498,5.3271,5.3124,5.2865,5.2596,5.3767,5.574,5.8536,6.0896,6.3464,6.6282,6.7372,6.9596,7.2979,7.2979,7.3689,7.4951,7.4776,7.4623,7.4455,7.4147,7.4064,7.4203,7.3713,7.3529,7.3491,7.3104,7.2994,7.2967,7.283,7.2593,7.2343,6.97,7.0557,7.1338,7.1932,7.3005,7.3954,7.4491,7.6001,7.7264,7.7741,7.8566,7.9116,7.9116,7.9116,7.8866,7.8341,7.8052,7.7636,7.7099,7.6784,7.644,7.6004,7.5383,7.465,7.3852,7.2759,7.1894,7.1307,6.9986,6.8825,6.7834,6.7026,6.6646,6.6646,6.6843,6.6953,6.699,6.748,6.77,6.77,6.77,6.77,6.77,6.77,6.7797,6.8058,6.8814,6.9208,6.9456,7.0179,7.0411,7.0411,7.0411,7.0411,7.0411,7.0411,7.0411,7.0411,7.0411,7.0411,7.0411,7.0411,7.0029,6.9425,6.8585,6.7095,6.5872,6.5872,6.5643,6.549,6.5834,6.549,6.5047,6.481,6.4252,6.3352,6.1894,5.9906,5.8287,5.7423,5.539,5.4517,5.5671,5.5404,5.5511,5.63,5.6029,5.6192,5.6974,5.6845,5.8087,6.0891,6.3103,6.5212,6.7368,6.8104,7.0008,7.3017,7.3637,7.4197,7.4705,7.454,7.4265,7.3998,7.3603,7.3541,7.3689,7.322,7.299,7.2908,7.2567,7.238,7.2307,7.2144,7.2024,7.1918,7.1413,7.2292,7.2921,7.301,7.4336,7.5401,7.5381,7.6828,7.7878,7.7829,7.8554,7.9116,7.9116,7.9116,7.9054,7.8928,7.8774,7.8629,7.8522,7.8183,7.7595,7.6712,7.6493,7.561,7.392,7.3758,7.2936,7.138,7.0587,7.0183,7.0146,6.9302,6.8885,6.8848,6.8068,6.77,6.77,6.77,6.77,6.77,6.77,6.77,6.77,6.77,6.7993,6.8418,6.8915,6.9365,6.9806,7.0247,7.0411,7.0411,7.0411,7.0411,7.0411,7.0487,7.0487,7.0487,7.0487,7.0487,7.0487,7.0411,7.0372,7.0105,6.9387,6.7935,6.6789,6.6789,6.6139,6.5834,6.6636,6.6789,6.6789,6.6705,6.5987,6.4795,6.3092,6.0449,5.8401,5.7604,5.6546,5.6384,5.7612,5.8501,5.9291,6.0086,5.9816,6.0496,6.2543,6.0595,6.0586,6.3266,6.4894,6.6691,6.8686,6.88,7.0264,7.3093,7.4681,7.5151,7.4654,7.4192,7.394,7.3857,7.2912,7.2784,7.3207,7.2686,7.2409,7.2329,7.2314,7.2189,7.1988,7.1842,7.1816,7.1786,7.1914,7.2491,7.3238,7.4323,7.5017,7.5812,7.7052,7.7602,7.8102,7.8691,7.8941,7.9116,7.9116,7.9116,7.9104,7.9066,7.876,7.8536,7.8509,7.8085,7.7739,7.7525,7.6803,7.6184,7.5772,7.4404,7.3193,7.2224,7.1417,7.1013,7.0977,6.9545,6.8885,6.8848,6.8068,6.77,6.77,6.77,6.77,6.77,6.77,6.77,6.77,6.77,6.7781,6.7956,6.8791,6.9166,6.9375,7.0123,7.0411,7.0411,7.0411,7.0411,7.0525,7.1183,7.1382,7.1382,7.1382,7.1382,7.1221,7.0563,6.996,6.9425,6.9234,6.8394,6.7637,6.7637,6.7446,6.737,6.7599,6.7637,6.74,6.6781,6.5987,6.4726,6.2721,6.0771,5.9336,5.8838,5.8787,5.9436,6.108,6.2215,6.3085,6.3584,6.3518,6.4002,6.5177,6.5859,6.6386,6.6717,6.8354,6.9768,7.0921,7.1608,7.2596,7.3925,7.4591,7.4633,7.4132,7.3665,7.3222,7.283,7.2588,7.2567,7.2695,7.2553,7.2467,7.2423,7.2358,7.2284,7.2174,7.1924,7.1816,7.1786,7.2833,7.3465,7.4193,7.502,7.5905,7.6765,7.7764,7.8227,7.8628,7.9041,7.9116,7.9116,7.9116,7.9116,7.9091,7.9029,7.8825,7.8669,7.8602,7.8071,7.7776,7.7718,7.7052,7.6564,7.6197,7.5264,7.4221,7.3046,7.2239,7.1857,7.1821,7.0573,6.9802,6.9412,6.8605,6.8031,6.77,6.77,6.77,6.77,6.77,6.77,6.77,6.77,6.7823,6.8122,6.8837,6.9229,6.9506,7.0187,7.0411,7.0411,7.0411,7.0411,7.064,7.1909,7.1994,7.1803,7.2185,7.2299,7.2103,7.1367,7.057,6.9926,6.9926,6.9199,6.847,6.847,6.8172,6.802,6.844,6.847,6.8211,6.7362,6.6412,6.4916,6.2635,6.1035,6.0243,6.0585,6.1153,6.2284,6.4171,6.5291,6.5963,6.6205,6.6386,6.6938,6.8024,6.9129,6.9543,6.9073,7.0686,7.1833,7.2299,7.3132,7.3781,7.4193,7.4533,7.4438,7.3998,7.3516,7.3031,7.2496,7.2423,7.2423,7.2496,7.2423,7.2351,7.2263,7.2189,7.2069,7.1918,7.1734,7.1656,7.164,7.3778,7.4611,7.5331,7.5665,7.6829,7.7792,7.8053,7.8666,7.9116,7.9116,7.9091,7.9079,7.9079,7.9066,7.8954,7.8788,7.8775,7.8747,7.8576,7.8071,7.7732,7.7554,7.7279,7.681,7.6166,7.5996,7.5175,7.3722,7.2899,7.2496,7.2496,7.1674,7.0866,7.0073,6.9265,6.8458,6.77,6.77,6.77,6.77,6.77,6.77,6.77,6.77,6.7969,6.8467,6.8926,6.9385,6.9882,7.0256,7.0411,7.0411,7.0563,7.0602,7.0946,7.2673,7.2682,7.2261,7.2979,7.3021,7.2753,7.2269,7.1464,7.0815,7.0968,7.0278,6.9616,6.9731,6.9166,6.8898,6.9655,6.9655,6.9218,6.8139,6.6916,6.5227,6.2723,6.1558,6.1437,6.2728,6.3786,6.5229,6.7262,6.8203,6.8669,6.8669,6.8976,6.9664,7.0746,7.1289,7.1376,7.0975,7.2406,7.3246,7.3361,7.4049,7.4393,7.4384,7.4541,7.445,7.4174,7.3502,7.3023,7.2665,7.2409,7.2336,7.2452,7.2307,7.2144,7.2009,7.1979,7.1811,7.1526,7.1494,7.1494,7.1494,7.4396,7.4948,7.5754,7.698,7.7567,7.8128,7.8816,7.9041,7.9116,7.9116,7.9004,7.8941,7.8941,7.8838,7.8618,7.8326,7.8312,7.8188,7.7943,7.7827,7.7651,7.7365,7.7289,7.7283,7.7346,7.5844,7.4625,7.3722,7.2899,7.2496,7.2496,7.1674,7.0866,7.0073,6.9265,6.8458,6.77,6.77,6.77,6.77,6.77,6.77,6.77,6.77,6.7969,6.8467,6.8926,6.9385,6.9882,7.0256,7.0411,7.0525,7.1259,7.1497,7.1833,7.3514,7.3934,7.3858,7.3972,7.3145,7.2276,7.2336,7.1576,7.0968,7.1731,7.1574,7.1535,7.2253,7.2291,7.2253,7.2367,7.1803,7.068,6.87,6.7074,6.5253,6.3116,6.2944,6.3661,6.5312,6.7174,6.9003,7.0763,7.168,7.2215,7.2215,7.2287,7.2393,7.2597,7.3309,7.3683,7.362,7.3849,7.4354,7.5089,7.5242,7.5318,7.531,7.4502,7.4417,7.4964,7.3344,7.2949,7.3487,7.2629,7.2329,7.2329,7.2144,7.2018,7.1988,7.1872,7.1816,7.1718,7.1542,7.1494,7.1494,7.4784,7.5669,7.6655,7.7466,7.8003,7.8591,7.9314,7.9249,7.9152,7.9319,7.9091,7.8877,7.8799,7.8734,7.8562,7.8118,7.8076,7.7891,7.7426,7.7487,7.7426,7.7196,7.7202,7.7279,7.7433,7.6197,7.5359,7.4992,7.3744,7.3156,7.312,7.2312,7.1284,7.0073,6.9706,6.8862,6.77,6.77,6.77,6.77,6.77,6.77,6.77,6.77,6.816,6.8803,6.9014,6.9526,7.0153,7.0361,7.0411,7.0563,7.1421,7.1688,7.2032,7.3705,7.4545,7.4932,7.5085,7.4368,7.3688,7.3896,7.3261,7.2684,7.3104,7.2956,7.2867,7.3116,7.3154,7.3138,7.3021,7.2682,7.1791,6.9836,6.832,6.6736,6.4897,6.5158,6.6023,6.7302,6.9268,7.0955,7.2177,7.2629,7.2832,7.2832,7.3242,7.3536,7.3589,7.4352,7.4837,7.4889,7.4889,7.531,7.6159,7.6159,7.6379,7.6829,7.5836,7.5549,7.5839,7.4446,7.3736,7.3574,7.3008,7.2802,7.2787,7.2619,7.2797,7.3177,7.312,7.3026,7.2858,7.2343,7.2146,7.2074,7.5456,7.6474,7.7485,7.7979,7.8491,7.9066,7.9686,7.9513,7.9413,7.961,7.9234,7.8903,7.8736,7.8565,7.8281,7.7747,7.7703,7.7517,7.7013,7.7103,7.715,7.7108,7.7139,7.7202,7.731,7.6533,7.6019,7.5836,7.4404,7.3597,7.3413,7.2789,7.1651,7.011,7.011,6.9206,6.77,6.77,6.77,6.77,6.77,6.77,6.77,6.77,6.8272,6.9091,6.9091,6.9805,7.0678,7.0678,7.0831,7.1145,7.2024,7.2299,7.2559,7.4087,7.4966,7.5566,7.5861,7.5466,7.4989,7.5327,7.4739,7.4131,7.4321,7.4174,7.4003,7.3986,7.3985,7.3948,7.3776,7.3551,7.2857,7.1208,6.9965,6.8668,6.7188,6.7681,6.8552,6.9507,7.1143,7.2489,7.3289,7.3323,7.3259,7.3259,7.383,7.4247,7.4368,7.494,7.5329,7.5436,7.5501,7.5891,7.6685,7.6685,7.706,7.7798,7.6915,7.654,7.6531,7.5383,7.4564,7.404,7.3441,7.3275,7.3406,7.3052,7.3389,7.4131,7.4131,7.4034,7.3796,7.2999,7.271,7.2565,7.6848,7.7255,7.7802,7.8914,7.922,7.9502,7.9989,8.0068,8.002,8.004,7.9547,7.9065,7.8741,7.8192,7.7592,7.6945,7.6897,7.6838,7.6663,7.6773,7.6897,7.7092,7.7233,7.7273,7.7289,7.6533,7.5726,7.4977,7.4111,7.3303,7.2606,7.2532,7.1651,7.011,7.011,6.9206,6.77,6.77,6.77,6.77,6.77,6.77,6.77,6.77,6.8272,6.9091,6.9091,7.0193,7.1612,7.1612,7.2147,7.2941,7.3781,7.4002,7.4201,7.5127,7.5433,7.5586,7.6038,7.5568,7.5027,7.5553,7.4867,7.4282,7.5051,7.5061,7.5094,7.5838,7.5987,7.5981,7.5963,7.5136,7.4059,7.2751,7.162,7.0593,6.9673,7.028,7.1284,7.2529,7.3419,7.4214,7.5053,7.5075,7.5009,7.5009,7.5085,7.5133,7.5133,7.5171,7.5227,7.5329,7.5418,7.5891,7.6685,7.6685,7.6884,7.7238,7.6745,7.6643,7.6841,7.5375,7.5095,7.5598,7.3775,7.3431,7.4049,7.3096,7.3213,7.3921,7.3921,7.3921,7.3796,7.2999,7.271,7.2565,7.7679,7.8216,7.8787,7.9494,7.9691,7.9895,8.0391,8.0249,8.0151,8.0344,7.9805,7.9246,7.8627,7.8275,7.7703,7.6882,7.6801,7.6769,7.6741,7.6753,7.6913,7.7233,7.7258,7.7289,7.7289,7.6995,7.6445,7.5652,7.4845,7.3978,7.312,7.2607,7.1523,6.9984,6.9984,6.9109,6.77,6.77,6.77,6.77,6.77,6.77,6.7737,6.8238,6.886,6.9486,7.0294,7.1186,7.2042,7.2406,7.2711,7.3132,7.3964,7.4193,7.4469,7.5844,7.6609,7.7156,7.7679,7.6784,7.5968,7.7046,7.6612,7.6105,7.6958,7.7112,7.7079,7.723,7.7671,7.8018,7.7831,7.7497,7.6648,7.4972,7.435,7.3513,7.1896,7.2438,7.3169,7.3521,7.4293,7.4857,7.5104,7.5036,7.5005,7.5005,7.5005,7.5035,7.5065,7.519,7.5283,7.532,7.5418,7.6159,7.7487,7.7198,7.7589,7.8739,7.7904,7.755,7.7603,7.6722,7.6099,7.5656,7.44,7.3936,7.3966,7.3611,7.3905,7.4701,7.5189,7.5406,7.5225,7.3905,7.3434,7.3253,7.8464,7.8905,7.9398,7.9982,8.0053,8.0239,8.0733,8.0531,8.0392,8.0555,7.9889,7.9161,7.8549,7.8058,7.7465,7.6705,7.6639,7.6688,7.6785,7.6897,7.7056,7.7273,7.7289,7.7289,7.7289,7.7289,7.6775,7.5726,7.516,7.4308,7.3178,7.2629,7.1494,6.9969,6.9969,6.9109,6.77,6.77,6.77,6.77,6.77,6.77,6.7811,6.8605,6.9197,6.9781,7.105,7.1976,7.2707,7.3193,7.3552,7.3866,7.4431,7.4775,7.5271,7.6685,7.7526,7.8079,7.8528,7.7878,7.729,7.8409,7.8243,7.7932,7.8555,7.8672,7.8605,7.8454,7.8897,7.9243,7.9013,7.8939,7.8462,7.7125,7.6828,7.6253,7.4724,7.5034,7.5263,7.4742,7.5171,7.5399,7.5026,7.4955,7.4884,7.4884,7.4884,7.4935,7.5007,7.518,7.5274,7.5274,7.5374,7.6106,7.7557,7.7493,7.8142,7.9437,7.869,7.8159,7.7817,7.7344,7.6716,7.5926,7.4758,7.4256,7.4231,7.3724,7.4158,7.5136,7.5696,7.6094,7.613,7.4774,7.4267,7.4086,7.9244,7.9244,7.9475,8.0362,8.0456,8.0558,8.1037,8.0948,8.0792,8.0792,7.9703,7.8766,7.8435,7.7459,7.6672,7.6326,7.6292,7.6426,7.6769,7.7103,7.7289,7.7289,7.7289,7.7289,7.7289,7.7289,7.6518,7.4903,7.4903,7.4059,7.2496,7.2496,7.1651,7.011,7.011,6.9192,6.77,6.77,6.77,6.77,6.77,6.77,6.7811,6.8605,6.9197,6.9769,7.105,7.2391,7.357,7.4061,7.4775,7.5509,7.5509,7.6083,7.6876,7.7755,7.8022,7.8065,7.8338,7.8615,7.8912,7.9378,7.949,7.949,7.9529,7.9529,7.952,7.9523,7.9516,7.9506,7.9427,7.9243,7.9112,7.9112,7.8884,7.8586,7.8231,7.8174,7.7743,7.6541,7.633,7.5928,7.5093,7.4955,7.4884,7.4884,7.4884,7.4935,7.5017,7.5114,7.52,7.52,7.5264,7.5739,7.6578,7.75,7.8276,7.8891,7.8891,7.8336,7.7273,7.6945,7.6801,7.6712,7.4756,7.4339,7.4955,7.3362,7.3651,7.51,7.51,7.5587,7.622,7.5389,7.51,7.4991,7.984,8.0134,8.0427,8.0733,8.075,8.0737,8.0697,8.0634,8.0598,8.0598,8.0129,7.9599,7.9097,7.8245,7.7496,7.6983,7.6538,7.6426,7.6769,7.7103,7.7289,7.7289,7.7289,7.7289,7.7289,7.7289,7.6518,7.4903,7.4903,7.4052,7.2373,7.2373,7.1787,7.0798,7.0212,6.9425,6.8495,6.7958,6.77,6.77,6.77,6.77,6.7811,6.8605,6.9324,7.0106,7.1367,7.2724,7.3915,7.4376,7.4979,7.5586,7.615,7.7344,7.8566,7.8834,7.9321,7.9824,8.0067,8.0358,8.0499,8.0201,7.9807,7.9646,8.0269,8.0406,8.0425,8.0415,8.1364,8.1964,8.133,8.1687,8.1588,8.0169,7.9349,7.8582,7.7631,7.6863,7.6186,7.5706,7.5475,7.5253,7.4945,7.4937,7.4937,7.4895,7.4927,7.5017,7.5114,7.5218,7.5274,7.5274,7.5301,7.5739,7.6578,7.6749,7.7229,7.8078,7.7858,7.7629,7.731,7.7181,7.7009,7.6749,7.5596,7.4865,7.4426,7.3954,7.409,7.4658,7.5241,7.5948,7.655,7.5636,7.5297,7.5172,8.0344,8.0626,8.0808,8.088,8.0893,8.0792,8.0552,8.044,8.0392,8.0392,8.0024,7.9581,7.9206,7.8534,7.7937,7.7599,7.7294,7.7163,7.716,7.745,7.7525,7.7289,7.7289,7.7289,7.7289,7.7289,7.6639,7.5232,7.4985,7.4147,7.2686,7.2686,7.2244,7.1434,7.0816,7.0122,6.9408,6.8415,6.7993,6.798,6.7757,6.77,6.7811,6.8605,6.9192,6.9825,7.1433,7.251,7.3372,7.4357,7.5066,7.5624,7.6456,7.7411,7.8337,7.8681,7.913,7.9633,8.0267,8.0635,8.0835,8.0908,8.0707,8.0662,8.1208,8.1296,8.1265,8.129,8.2345,8.2971,8.2137,8.2655,8.2751,8.1199,8.0209,7.9342,7.8477,7.7474,7.6579,7.5888,7.5692,7.5428,7.4975,7.4977,7.5007,7.5015,7.5074,7.5123,7.5218,7.5246,7.5255,7.5255,7.5218,7.5428,7.5961,7.581,7.6206,7.7129,7.6815,7.6553,7.6371,7.664,7.6648,7.6423,7.5848,7.5113,7.4238,7.3962,7.3864,7.4014,7.4816,7.5619,7.6295,7.5988,7.6029,7.6126,8.0639,8.0745,8.0767,8.0847,8.0818,8.0688,8.0487,8.0295,8.0165,8.0165,7.9551,7.9089,7.9089,7.8559,7.8159,7.8159,7.8389,7.8309,7.784,7.7988,7.7875,7.7396,7.7365,7.7365,7.7365,7.7292,7.6759,7.5766,7.5193,7.4394,7.3376,7.3376,7.2929,7.2174,7.1701,7.1092,7.0319,6.9003,6.8442,6.8358,6.7941,6.7741,6.776,6.8531,6.8848,6.9123,7.1109,7.1922,7.2274,7.4072,7.5104,7.5739,7.6456,7.6761,7.6953,7.7755,7.8022,7.8247,7.936,7.9888,8.0371,8.1392,8.1863,8.2101,8.2101,8.2033,8.1994,8.1995,8.2694,8.304,8.2062,8.2677,8.3014,8.2038,8.11,8.0377,8.0063,7.9186,7.805,7.671,7.6521,7.6128,7.5103,7.5026,7.5075,7.5218,7.5209,7.5247,7.531,7.5256,7.52,7.52,7.5065,7.4959,7.4919,7.4847,7.5234,7.6156,7.5785,7.537,7.4948,7.5507,7.5812,7.5931,7.5693,7.514,7.4374,7.3644,7.3295,7.331,7.4061,7.4863,7.5707,7.6361,7.6983,7.7488,8.0652,8.089,8.0922,8.0585,8.0448,8.0315,8.0062,8.0005,7.9973,7.9973,7.9805,7.9717,7.9717,7.9162,7.8803,7.8803,7.8612,7.8521,7.8471,7.8241,7.8058,7.7932,7.7917,7.7917,7.7917,7.731,7.6784,7.6318,7.5546,7.4686,7.3857,7.3857,7.3745,7.352,7.2124,7.1381,7.1156,6.9581,6.8723,6.8394,6.8284,6.7956,6.7575,6.7844,6.828,6.8907,7.0073,7.1152,7.2274,7.4072,7.5485,7.6456,7.6647,7.7182,7.7755,7.7937,7.8022,7.8193,7.9124,7.9722,8.0329,8.1151,8.1703,8.2022,8.2022,8.1994,8.1999,8.1991,8.3161,8.3753,8.2185,8.3165,8.3705,8.2149,8.059,7.9566,7.9481,7.796,7.6649,7.6198,7.5892,7.5606,7.52,7.5171,7.5247,7.543,7.5293,7.5247,7.531,7.5256,7.52,7.52,7.5065,7.4819,7.4385,7.3998,7.4238,7.511,7.4991,7.5029,7.5218,7.4885,7.5339,7.6346,7.5833,7.5239,7.4632,7.4449,7.4086,7.3604,7.3787,7.474,7.6054,7.6375,7.6995,7.768,8.0858,8.0914,8.0808,8.043,8.0315,8.0157,7.9952,7.9898,7.9898,7.9898,7.9952,7.9946,7.9946,7.9707,7.9558,7.9558,7.949,7.9338,7.9161,7.8965,7.8741,7.8471,7.8471,7.8588,7.8841,7.8091,7.7586,7.7451,7.6369,7.5516,7.4972,7.4509,7.432,7.4293,7.3257,7.2553,7.2126,7.064,6.9658,6.9014,6.8489,6.806,6.775,6.7556,6.7739,6.8288,6.9544,7.1138,7.2782,7.3891,7.4905,7.5751,7.5931,7.631,7.6719,7.6673,7.6691,7.7002,7.8411,7.9083,7.973,8.1148,8.1753,8.2033,8.2012,8.1964,8.2076,8.2504,8.3598,8.4183,8.3251,8.3834,8.4023,8.2674,8.0693,7.9223,7.9086,7.7451,7.6166,7.5794,7.5592,7.5421,7.5264,7.5321,7.5376,7.5392,7.5301,7.5237,7.5246,7.5152,7.5114,7.52,7.4829,7.452,7.4192,7.3541,7.3366,7.3633,7.3501,7.3537,7.3722,7.3797,7.4389,7.5402,7.5456,7.5169,7.4613,7.4613,7.402,7.3156,7.3472,7.4337,7.5504,7.6162,7.7236,7.8373,8.0993,8.0841,8.0585,8.0344,8.0225,8.0093,7.9962,7.993,7.9865,7.9735,7.9923,7.9986,7.9834,8.003,8.0205,8.0225,8.0343,8.0215,7.9784,7.9735,7.9494,7.9049,7.9025,7.9227,7.9697,7.9138,7.8763,7.8649,7.7363,7.6543,7.6116,7.5375,7.4987,7.4895,7.4413,7.376,7.2978,7.1689,7.0602,6.9711,6.8739,6.8234,6.8023,6.7523,6.7451,6.7858,6.9372,7.1379,7.335,7.3603,7.4056,7.4584,7.4987,7.5123,7.5199,7.5218,7.5237,7.5697,7.7415,7.825,7.9048,8.0919,8.1838,8.2276,8.221,8.2194,8.2375,8.3222,8.4081,8.4553,8.4238,8.4311,8.4039,8.2868,8.077,7.9146,7.8644,7.7254,7.6109,7.5551,7.5489,7.5421,7.5356,7.5418,7.5436,7.5356,7.529,7.5283,7.5228,7.5095,7.5085,7.52,7.4695,7.4345,7.4101,7.3453,7.2875,7.2443,7.2292,7.2204,7.2241,7.2817,7.353,7.4354,7.4816,7.4769,7.434,7.434,7.3651,7.2669,7.3201,7.3971,7.4897,7.6115,7.7702,7.921,8.0805,8.0611,8.0401,8.0217,8.0051,7.9935,7.9961,7.9971,7.9775,7.9117,7.9708,7.987,7.9109,7.9738,8.0235,8.0372,8.0392,8.0373,8.0364,7.9958,7.9675,7.9572,7.961,7.9643,7.9697,8.0045,7.9896,7.9171,7.8275,7.7398,7.6604,7.6445,7.613,7.568,7.4588,7.3814,7.3181,7.2076,7.0897,6.9797,6.9506,6.8807,6.7935,6.7882,6.8044,6.8412,6.9527,7.1379,7.3311,7.3363,7.3702,7.4147,7.4535,7.4723,7.4843,7.5114,7.5237,7.5501,7.6398,7.7598,7.885,7.988,8.163,8.3143,8.3138,8.3138,8.3353,8.417,8.5014,8.5153,8.3636,8.3977,8.3692,8.1314,8.0028,7.8952,7.7903,7.69,7.6109,7.5551,7.5415,7.5383,7.5445,7.5501,7.5501,7.5454,7.5374,7.531,7.5301,7.5199,7.519,7.52,7.5133,7.4626,7.3676,7.3916,7.3554,7.2585,7.2893,7.3053,7.304,7.2681,7.3361,7.4771,7.3889,7.3633,7.3801,7.3801,7.3493,7.3017,7.3114,7.3848,7.5106,7.703,7.8641,7.9783,8.0605,8.0354,8.0139,8.0086,8.003,7.9826,7.9385,7.936,7.9117,7.832,7.8608,7.8913,7.8989,7.981,8.0392,8.044,8.044,8.0459,8.0506,8.0296,8.0159,8.0159,8.0159,8.0159,8.0159,8.0383,8.0315,7.998,7.913,7.8597,7.8341,7.7333,7.6863,7.6758,7.561,7.4436,7.3245,7.2684,7.1549,7.0109,6.9711,6.9021,6.8246,6.7948,6.7743,6.7818,6.9338,7.1157,7.2894,7.3101,7.3337,7.3579,7.3965,7.4308,7.4529,7.4674,7.4889,7.5295,7.6131,7.7317,7.8575,7.9629,8.1154,8.269,8.3814,8.4072,8.4288,8.5082,8.5143,8.4975,8.4699,8.3753,8.269,8.1513,7.9665,7.8104,7.7421,7.6419,7.5641,7.5371,7.5383,7.5418,7.5509,7.5509,7.5483,7.5392,7.5347,7.5292,7.5237,7.5228,7.5085,7.4869,7.4584,7.4044,7.3264,7.3172,7.297,7.2627,7.313,7.3288,7.3174,7.296,7.3463,7.4523,7.377,7.3532,7.3742,7.342,7.3167,7.299,7.2871,7.3757,7.5293,7.665,7.8017,7.9177]}]]